<?xml version="1.0" encoding="UTF-8" standalone="no" ?>
<gpx xmlns="http://www.topografix.com/GPX/1/1" xmlns:xsi="http://www.w3.org/2001/XMLSchema-instance" xsi:schemaLocation="http://www.topografix.com/GPX/1/1 http://www.topografix.com/GPX/1/1/gpx.xsd" version="1.1" creator="VisuGPX - https://www.visugpx.com">
  <metadata>
    <name>2021-11-18-46-Luzech-notre dame de l'ile</name>
    <desc><![CDATA[Randonnée d'environ 11km pour 100m de dénivelé positif. Une seule difficulté : la montée au Calvaire, pour avoir alors une vue à 360° sur la vallée. Ensuite une balade en longeant les rives du Lot jusqu'à St Vincent rive d'olt et retour.]]></desc>
  </metadata>
  <trk>
    <name><![CDATA[2021-11-18-46-Luzech-notre dame de l'ile_1]]></name>
    <trkseg>
      <trkpt lat="44.46268" lon="1.28992">
        <ele>105.8</ele>
        <time>2021-11-18T13:00:21Z</time>
      </trkpt>
      <trkpt lat="44.46271" lon="1.28986">
        <ele>105.2</ele>
        <time>2021-11-18T13:00:28Z</time>
      </trkpt>
      <trkpt lat="44.46275" lon="1.28982">
        <ele>104.7</ele>
        <time>2021-11-18T13:00:32Z</time>
      </trkpt>
      <trkpt lat="44.46279" lon="1.2898">
        <ele>104.6</ele>
        <time>2021-11-18T13:00:35Z</time>
      </trkpt>
      <trkpt lat="44.46282" lon="1.28974">
        <ele>104.2</ele>
        <time>2021-11-18T13:00:41Z</time>
      </trkpt>
      <trkpt lat="44.46286" lon="1.2897">
        <ele>102.6</ele>
        <time>2021-11-18T13:00:49Z</time>
      </trkpt>
      <trkpt lat="44.4629" lon="1.28966">
        <ele>101.7</ele>
        <time>2021-11-18T13:00:55Z</time>
      </trkpt>
      <trkpt lat="44.46294" lon="1.28962">
        <ele>101.2</ele>
        <time>2021-11-18T13:00:59Z</time>
      </trkpt>
      <trkpt lat="44.46297" lon="1.28958">
        <ele>100.9</ele>
        <time>2021-11-18T13:01:04Z</time>
      </trkpt>
      <trkpt lat="44.46301" lon="1.28953">
        <ele>100.6</ele>
        <time>2021-11-18T13:01:09Z</time>
      </trkpt>
      <trkpt lat="44.46305" lon="1.28948">
        <ele>100.5</ele>
        <time>2021-11-18T13:01:15Z</time>
      </trkpt>
      <trkpt lat="44.46309" lon="1.28945">
        <ele>100.5</ele>
        <time>2021-11-18T13:01:18Z</time>
      </trkpt>
      <trkpt lat="44.46313" lon="1.28941">
        <ele>101.1</ele>
        <time>2021-11-18T13:01:23Z</time>
      </trkpt>
      <trkpt lat="44.46317" lon="1.28936">
        <ele>101.6</ele>
        <time>2021-11-18T13:01:28Z</time>
      </trkpt>
      <trkpt lat="44.4632" lon="1.28931">
        <ele>101.7</ele>
        <time>2021-11-18T13:01:33Z</time>
      </trkpt>
      <trkpt lat="44.46324" lon="1.28926">
        <ele>101.7</ele>
        <time>2021-11-18T13:01:37Z</time>
      </trkpt>
      <trkpt lat="44.46328" lon="1.28921">
        <ele>102.4</ele>
        <time>2021-11-18T13:01:41Z</time>
      </trkpt>
      <trkpt lat="44.46332" lon="1.28918">
        <ele>103.2</ele>
        <time>2021-11-18T13:01:46Z</time>
      </trkpt>
      <trkpt lat="44.46337" lon="1.28916">
        <ele>103</ele>
        <time>2021-11-18T13:01:53Z</time>
      </trkpt>
      <trkpt lat="44.46341" lon="1.28914">
        <ele>102.4</ele>
        <time>2021-11-18T13:01:58Z</time>
      </trkpt>
      <trkpt lat="44.46347" lon="1.28912">
        <ele>102.1</ele>
        <time>2021-11-18T13:02:03Z</time>
      </trkpt>
      <trkpt lat="44.46352" lon="1.28911">
        <ele>101.8</ele>
        <time>2021-11-18T13:02:08Z</time>
      </trkpt>
      <trkpt lat="44.46357" lon="1.28908">
        <ele>101.3</ele>
        <time>2021-11-18T13:02:13Z</time>
      </trkpt>
      <trkpt lat="44.46362" lon="1.28905">
        <ele>101.2</ele>
        <time>2021-11-18T13:02:17Z</time>
      </trkpt>
      <trkpt lat="44.46367" lon="1.28903">
        <ele>100.9</ele>
        <time>2021-11-18T13:02:22Z</time>
      </trkpt>
      <trkpt lat="44.46371" lon="1.28901">
        <ele>100.7</ele>
        <time>2021-11-18T13:02:26Z</time>
      </trkpt>
      <trkpt lat="44.46377" lon="1.289">
        <ele>100.8</ele>
        <time>2021-11-18T13:02:30Z</time>
      </trkpt>
      <trkpt lat="44.46381" lon="1.28898">
        <ele>101.1</ele>
        <time>2021-11-18T13:02:34Z</time>
      </trkpt>
      <trkpt lat="44.46386" lon="1.28897">
        <ele>101.9</ele>
        <time>2021-11-18T13:02:39Z</time>
      </trkpt>
      <trkpt lat="44.4639" lon="1.28895">
        <ele>102.7</ele>
        <time>2021-11-18T13:02:45Z</time>
      </trkpt>
      <trkpt lat="44.46395" lon="1.28893">
        <ele>102.8</ele>
        <time>2021-11-18T13:02:50Z</time>
      </trkpt>
      <trkpt lat="44.464" lon="1.2889">
        <ele>102.9</ele>
        <time>2021-11-18T13:02:57Z</time>
      </trkpt>
      <trkpt lat="44.46404" lon="1.28888">
        <ele>102.7</ele>
        <time>2021-11-18T13:03:02Z</time>
      </trkpt>
      <trkpt lat="44.46409" lon="1.28886">
        <ele>102.2</ele>
        <time>2021-11-18T13:03:08Z</time>
      </trkpt>
      <trkpt lat="44.46413" lon="1.28885">
        <ele>101.7</ele>
        <time>2021-11-18T13:03:13Z</time>
      </trkpt>
      <trkpt lat="44.46418" lon="1.28882">
        <ele>101.2</ele>
        <time>2021-11-18T13:03:19Z</time>
      </trkpt>
      <trkpt lat="44.46423" lon="1.2888">
        <ele>101</ele>
        <time>2021-11-18T13:03:24Z</time>
      </trkpt>
      <trkpt lat="44.46428" lon="1.28878">
        <ele>101.1</ele>
        <time>2021-11-18T13:03:29Z</time>
      </trkpt>
      <trkpt lat="44.46433" lon="1.28876">
        <ele>101.6</ele>
        <time>2021-11-18T13:03:34Z</time>
      </trkpt>
      <trkpt lat="44.46438" lon="1.28874">
        <ele>102.1</ele>
        <time>2021-11-18T13:03:38Z</time>
      </trkpt>
      <trkpt lat="44.46442" lon="1.28873">
        <ele>102.5</ele>
        <time>2021-11-18T13:03:42Z</time>
      </trkpt>
      <trkpt lat="44.46446" lon="1.2887">
        <ele>103.3</ele>
        <time>2021-11-18T13:03:47Z</time>
      </trkpt>
      <trkpt lat="44.46451" lon="1.28866">
        <ele>103.4</ele>
        <time>2021-11-18T13:03:52Z</time>
      </trkpt>
      <trkpt lat="44.46455" lon="1.28865">
        <ele>103.4</ele>
        <time>2021-11-18T13:03:56Z</time>
      </trkpt>
      <trkpt lat="44.46461" lon="1.28864">
        <ele>103.5</ele>
        <time>2021-11-18T13:04:00Z</time>
      </trkpt>
      <trkpt lat="44.46467" lon="1.28862">
        <ele>103.9</ele>
        <time>2021-11-18T13:04:04Z</time>
      </trkpt>
      <trkpt lat="44.46472" lon="1.28861">
        <ele>104.9</ele>
        <time>2021-11-18T13:04:09Z</time>
      </trkpt>
      <trkpt lat="44.46478" lon="1.28862">
        <ele>105.8</ele>
        <time>2021-11-18T13:04:14Z</time>
      </trkpt>
      <trkpt lat="44.46482" lon="1.28865">
        <ele>106.1</ele>
        <time>2021-11-18T13:04:18Z</time>
      </trkpt>
      <trkpt lat="44.46486" lon="1.28867">
        <ele>106.1</ele>
        <time>2021-11-18T13:04:22Z</time>
      </trkpt>
      <trkpt lat="44.46491" lon="1.2887">
        <ele>105.8</ele>
        <time>2021-11-18T13:04:28Z</time>
      </trkpt>
      <trkpt lat="44.46496" lon="1.28871">
        <ele>106.1</ele>
        <time>2021-11-18T13:04:31Z</time>
      </trkpt>
      <trkpt lat="44.46502" lon="1.28871">
        <ele>106.8</ele>
        <time>2021-11-18T13:04:35Z</time>
      </trkpt>
      <trkpt lat="44.46506" lon="1.2887">
        <ele>107.7</ele>
        <time>2021-11-18T13:04:39Z</time>
      </trkpt>
      <trkpt lat="44.46511" lon="1.28869">
        <ele>108.3</ele>
        <time>2021-11-18T13:04:44Z</time>
      </trkpt>
      <trkpt lat="44.46516" lon="1.28867">
        <ele>108.7</ele>
        <time>2021-11-18T13:04:49Z</time>
      </trkpt>
      <trkpt lat="44.46521" lon="1.28867">
        <ele>108.2</ele>
        <time>2021-11-18T13:04:55Z</time>
      </trkpt>
      <trkpt lat="44.46525" lon="1.28868">
        <ele>107.7</ele>
        <time>2021-11-18T13:04:59Z</time>
      </trkpt>
      <trkpt lat="44.46532" lon="1.28868">
        <ele>107.5</ele>
        <time>2021-11-18T13:05:02Z</time>
      </trkpt>
      <trkpt lat="44.46537" lon="1.28868">
        <ele>107.7</ele>
        <time>2021-11-18T13:05:05Z</time>
      </trkpt>
      <trkpt lat="44.46541" lon="1.28868">
        <ele>108.8</ele>
        <time>2021-11-18T13:05:10Z</time>
      </trkpt>
      <trkpt lat="44.46546" lon="1.28866">
        <ele>111.7</ele>
        <time>2021-11-18T13:05:20Z</time>
      </trkpt>
      <trkpt lat="44.4655" lon="1.28866">
        <ele>112</ele>
        <time>2021-11-18T13:05:24Z</time>
      </trkpt>
      <trkpt lat="44.46555" lon="1.28865">
        <ele>111.9</ele>
        <time>2021-11-18T13:05:28Z</time>
      </trkpt>
      <trkpt lat="44.4656" lon="1.28863">
        <ele>111.9</ele>
        <time>2021-11-18T13:05:33Z</time>
      </trkpt>
      <trkpt lat="44.46564" lon="1.28858">
        <ele>111.3</ele>
        <time>2021-11-18T13:05:39Z</time>
      </trkpt>
      <trkpt lat="44.46567" lon="1.28853">
        <ele>110.3</ele>
        <time>2021-11-18T13:05:46Z</time>
      </trkpt>
      <trkpt lat="44.4657" lon="1.28847">
        <ele>109.9</ele>
        <time>2021-11-18T13:05:51Z</time>
      </trkpt>
      <trkpt lat="44.46574" lon="1.28843">
        <ele>110.1</ele>
        <time>2021-11-18T13:05:56Z</time>
      </trkpt>
      <trkpt lat="44.46577" lon="1.28838">
        <ele>109.8</ele>
        <time>2021-11-18T13:06:01Z</time>
      </trkpt>
      <trkpt lat="44.4658" lon="1.28832">
        <ele>109.2</ele>
        <time>2021-11-18T13:06:06Z</time>
      </trkpt>
      <trkpt lat="44.46584" lon="1.28828">
        <ele>108.7</ele>
        <time>2021-11-18T13:06:10Z</time>
      </trkpt>
      <trkpt lat="44.46588" lon="1.28823">
        <ele>108.4</ele>
        <time>2021-11-18T13:06:15Z</time>
      </trkpt>
      <trkpt lat="44.46591" lon="1.28818">
        <ele>108.5</ele>
        <time>2021-11-18T13:06:19Z</time>
      </trkpt>
      <trkpt lat="44.46596" lon="1.28813">
        <ele>108.2</ele>
        <time>2021-11-18T13:06:24Z</time>
      </trkpt>
      <trkpt lat="44.466" lon="1.2881">
        <ele>107.8</ele>
        <time>2021-11-18T13:06:28Z</time>
      </trkpt>
      <trkpt lat="44.46604" lon="1.28806">
        <ele>107.6</ele>
        <time>2021-11-18T13:06:33Z</time>
      </trkpt>
      <trkpt lat="44.46608" lon="1.28803">
        <ele>107.6</ele>
        <time>2021-11-18T13:06:37Z</time>
      </trkpt>
      <trkpt lat="44.46613" lon="1.28799">
        <ele>107.5</ele>
        <time>2021-11-18T13:06:41Z</time>
      </trkpt>
      <trkpt lat="44.46617" lon="1.28796">
        <ele>107.7</ele>
        <time>2021-11-18T13:06:45Z</time>
      </trkpt>
      <trkpt lat="44.46621" lon="1.28793">
        <ele>107.1</ele>
        <time>2021-11-18T13:06:50Z</time>
      </trkpt>
      <trkpt lat="44.46625" lon="1.28789">
        <ele>107.1</ele>
        <time>2021-11-18T13:06:54Z</time>
      </trkpt>
      <trkpt lat="44.46628" lon="1.28785">
        <ele>107.3</ele>
        <time>2021-11-18T13:06:58Z</time>
      </trkpt>
      <trkpt lat="44.46632" lon="1.2878">
        <ele>107.7</ele>
        <time>2021-11-18T13:07:02Z</time>
      </trkpt>
      <trkpt lat="44.46637" lon="1.28776">
        <ele>107.9</ele>
        <time>2021-11-18T13:07:06Z</time>
      </trkpt>
      <trkpt lat="44.46641" lon="1.28772">
        <ele>107.9</ele>
        <time>2021-11-18T13:07:10Z</time>
      </trkpt>
      <trkpt lat="44.46646" lon="1.28769">
        <ele>108.2</ele>
        <time>2021-11-18T13:07:14Z</time>
      </trkpt>
      <trkpt lat="44.46651" lon="1.28765">
        <ele>108.7</ele>
        <time>2021-11-18T13:07:18Z</time>
      </trkpt>
      <trkpt lat="44.46656" lon="1.28761">
        <ele>109.5</ele>
        <time>2021-11-18T13:07:22Z</time>
      </trkpt>
      <trkpt lat="44.4666" lon="1.28758">
        <ele>109.4</ele>
        <time>2021-11-18T13:07:26Z</time>
      </trkpt>
      <trkpt lat="44.46664" lon="1.28754">
        <ele>109.2</ele>
        <time>2021-11-18T13:07:30Z</time>
      </trkpt>
      <trkpt lat="44.46668" lon="1.2875">
        <ele>108.9</ele>
        <time>2021-11-18T13:07:35Z</time>
      </trkpt>
      <trkpt lat="44.46673" lon="1.28746">
        <ele>108.1</ele>
        <time>2021-11-18T13:07:40Z</time>
      </trkpt>
      <trkpt lat="44.46678" lon="1.28742">
        <ele>107.1</ele>
        <time>2021-11-18T13:07:44Z</time>
      </trkpt>
      <trkpt lat="44.46681" lon="1.28738">
        <ele>106.4</ele>
        <time>2021-11-18T13:07:48Z</time>
      </trkpt>
      <trkpt lat="44.46685" lon="1.28733">
        <ele>106.3</ele>
        <time>2021-11-18T13:07:52Z</time>
      </trkpt>
      <trkpt lat="44.46688" lon="1.28729">
        <ele>106.8</ele>
        <time>2021-11-18T13:07:56Z</time>
      </trkpt>
      <trkpt lat="44.46692" lon="1.28723">
        <ele>107.5</ele>
        <time>2021-11-18T13:08:00Z</time>
      </trkpt>
      <trkpt lat="44.46695" lon="1.28717">
        <ele>107.5</ele>
        <time>2021-11-18T13:08:04Z</time>
      </trkpt>
      <trkpt lat="44.46699" lon="1.28713">
        <ele>107.4</ele>
        <time>2021-11-18T13:08:08Z</time>
      </trkpt>
      <trkpt lat="44.46703" lon="1.28708">
        <ele>107.4</ele>
        <time>2021-11-18T13:08:12Z</time>
      </trkpt>
      <trkpt lat="44.46707" lon="1.28704">
        <ele>107.5</ele>
        <time>2021-11-18T13:08:16Z</time>
      </trkpt>
      <trkpt lat="44.46712" lon="1.28699">
        <ele>107.6</ele>
        <time>2021-11-18T13:08:20Z</time>
      </trkpt>
      <trkpt lat="44.46716" lon="1.28695">
        <ele>107.5</ele>
        <time>2021-11-18T13:08:24Z</time>
      </trkpt>
      <trkpt lat="44.4672" lon="1.28691">
        <ele>106.6</ele>
        <time>2021-11-18T13:08:29Z</time>
      </trkpt>
      <trkpt lat="44.46724" lon="1.28686">
        <ele>106.3</ele>
        <time>2021-11-18T13:08:33Z</time>
      </trkpt>
      <trkpt lat="44.46729" lon="1.28682">
        <ele>106.2</ele>
        <time>2021-11-18T13:08:37Z</time>
      </trkpt>
      <trkpt lat="44.46734" lon="1.2868">
        <ele>106.3</ele>
        <time>2021-11-18T13:08:41Z</time>
      </trkpt>
      <trkpt lat="44.46739" lon="1.28677">
        <ele>106.7</ele>
        <time>2021-11-18T13:08:45Z</time>
      </trkpt>
      <trkpt lat="44.46744" lon="1.28673">
        <ele>107.2</ele>
        <time>2021-11-18T13:08:49Z</time>
      </trkpt>
      <trkpt lat="44.46748" lon="1.28673">
        <ele>107.8</ele>
        <time>2021-11-18T13:08:53Z</time>
      </trkpt>
      <trkpt lat="44.46753" lon="1.28671">
        <ele>107.9</ele>
        <time>2021-11-18T13:08:58Z</time>
      </trkpt>
      <trkpt lat="44.46758" lon="1.28668">
        <ele>107.5</ele>
        <time>2021-11-18T13:09:03Z</time>
      </trkpt>
      <trkpt lat="44.46762" lon="1.28666">
        <ele>107.4</ele>
        <time>2021-11-18T13:09:08Z</time>
      </trkpt>
      <trkpt lat="44.46767" lon="1.28664">
        <ele>107.4</ele>
        <time>2021-11-18T13:09:13Z</time>
      </trkpt>
      <trkpt lat="44.46772" lon="1.28662">
        <ele>107.7</ele>
        <time>2021-11-18T13:09:17Z</time>
      </trkpt>
      <trkpt lat="44.46778" lon="1.28661">
        <ele>107.4</ele>
        <time>2021-11-18T13:09:22Z</time>
      </trkpt>
      <trkpt lat="44.46783" lon="1.28661">
        <ele>107.1</ele>
        <time>2021-11-18T13:09:26Z</time>
      </trkpt>
      <trkpt lat="44.46789" lon="1.2866">
        <ele>107</ele>
        <time>2021-11-18T13:09:30Z</time>
      </trkpt>
      <trkpt lat="44.46794" lon="1.28659">
        <ele>106.6</ele>
        <time>2021-11-18T13:09:34Z</time>
      </trkpt>
      <trkpt lat="44.46799" lon="1.28657">
        <ele>105.9</ele>
        <time>2021-11-18T13:09:39Z</time>
      </trkpt>
      <trkpt lat="44.46805" lon="1.28654">
        <ele>105.3</ele>
        <time>2021-11-18T13:09:44Z</time>
      </trkpt>
      <trkpt lat="44.4681" lon="1.28653">
        <ele>105.3</ele>
        <time>2021-11-18T13:09:48Z</time>
      </trkpt>
      <trkpt lat="44.46815" lon="1.28652">
        <ele>105.6</ele>
        <time>2021-11-18T13:09:52Z</time>
      </trkpt>
      <trkpt lat="44.4682" lon="1.2865">
        <ele>106.1</ele>
        <time>2021-11-18T13:09:56Z</time>
      </trkpt>
      <trkpt lat="44.46825" lon="1.28647">
        <ele>106.4</ele>
        <time>2021-11-18T13:10:00Z</time>
      </trkpt>
      <trkpt lat="44.4683" lon="1.28645">
        <ele>106.5</ele>
        <time>2021-11-18T13:10:04Z</time>
      </trkpt>
      <trkpt lat="44.46835" lon="1.28644">
        <ele>106.5</ele>
        <time>2021-11-18T13:10:08Z</time>
      </trkpt>
      <trkpt lat="44.4684" lon="1.28643">
        <ele>106.5</ele>
        <time>2021-11-18T13:10:14Z</time>
      </trkpt>
      <trkpt lat="44.46844" lon="1.28642">
        <ele>106.5</ele>
        <time>2021-11-18T13:10:18Z</time>
      </trkpt>
      <trkpt lat="44.46849" lon="1.28642">
        <ele>106.2</ele>
        <time>2021-11-18T13:10:22Z</time>
      </trkpt>
      <trkpt lat="44.46855" lon="1.28642">
        <ele>106</ele>
        <time>2021-11-18T13:10:26Z</time>
      </trkpt>
      <trkpt lat="44.46861" lon="1.28641">
        <ele>106.2</ele>
        <time>2021-11-18T13:10:30Z</time>
      </trkpt>
      <trkpt lat="44.46866" lon="1.2864">
        <ele>106.4</ele>
        <time>2021-11-18T13:10:34Z</time>
      </trkpt>
      <trkpt lat="44.46871" lon="1.28639">
        <ele>106.5</ele>
        <time>2021-11-18T13:10:39Z</time>
      </trkpt>
      <trkpt lat="44.46876" lon="1.28638">
        <ele>107</ele>
        <time>2021-11-18T13:10:44Z</time>
      </trkpt>
      <trkpt lat="44.46881" lon="1.28639">
        <ele>107.3</ele>
        <time>2021-11-18T13:10:48Z</time>
      </trkpt>
      <trkpt lat="44.46887" lon="1.2864">
        <ele>107.6</ele>
        <time>2021-11-18T13:10:52Z</time>
      </trkpt>
      <trkpt lat="44.46893" lon="1.2864">
        <ele>107.7</ele>
        <time>2021-11-18T13:10:56Z</time>
      </trkpt>
      <trkpt lat="44.46898" lon="1.28638">
        <ele>107.9</ele>
        <time>2021-11-18T13:11:01Z</time>
      </trkpt>
      <trkpt lat="44.46904" lon="1.28638">
        <ele>108</ele>
        <time>2021-11-18T13:11:06Z</time>
      </trkpt>
      <trkpt lat="44.46908" lon="1.28637">
        <ele>108.2</ele>
        <time>2021-11-18T13:11:11Z</time>
      </trkpt>
      <trkpt lat="44.46914" lon="1.28637">
        <ele>108.2</ele>
        <time>2021-11-18T13:11:16Z</time>
      </trkpt>
      <trkpt lat="44.46919" lon="1.28634">
        <ele>108.1</ele>
        <time>2021-11-18T13:11:20Z</time>
      </trkpt>
      <trkpt lat="44.46923" lon="1.28631">
        <ele>109</ele>
        <time>2021-11-18T13:11:26Z</time>
      </trkpt>
      <trkpt lat="44.46928" lon="1.28628">
        <ele>110.4</ele>
        <time>2021-11-18T13:12:45Z</time>
      </trkpt>
      <trkpt lat="44.46933" lon="1.28627">
        <ele>109.6</ele>
        <time>2021-11-18T13:12:54Z</time>
      </trkpt>
      <trkpt lat="44.46938" lon="1.28625">
        <ele>108.2</ele>
        <time>2021-11-18T13:13:02Z</time>
      </trkpt>
      <trkpt lat="44.46942" lon="1.28622">
        <ele>107.1</ele>
        <time>2021-11-18T13:13:07Z</time>
      </trkpt>
      <trkpt lat="44.46946" lon="1.28618">
        <ele>106.6</ele>
        <time>2021-11-18T13:13:12Z</time>
      </trkpt>
      <trkpt lat="44.4695" lon="1.28615">
        <ele>105</ele>
        <time>2021-11-18T13:13:25Z</time>
      </trkpt>
      <trkpt lat="44.46955" lon="1.28614">
        <ele>105</ele>
        <time>2021-11-18T13:13:31Z</time>
      </trkpt>
      <trkpt lat="44.4696" lon="1.28611">
        <ele>105.3</ele>
        <time>2021-11-18T13:13:36Z</time>
      </trkpt>
      <trkpt lat="44.46964" lon="1.28608">
        <ele>105.4</ele>
        <time>2021-11-18T13:13:42Z</time>
      </trkpt>
      <trkpt lat="44.46969" lon="1.28606">
        <ele>105.3</ele>
        <time>2021-11-18T13:13:48Z</time>
      </trkpt>
      <trkpt lat="44.46974" lon="1.28605">
        <ele>104.9</ele>
        <time>2021-11-18T13:13:53Z</time>
      </trkpt>
      <trkpt lat="44.46979" lon="1.28603">
        <ele>104.3</ele>
        <time>2021-11-18T13:14:00Z</time>
      </trkpt>
      <trkpt lat="44.46983" lon="1.286">
        <ele>104.9</ele>
        <time>2021-11-18T13:14:06Z</time>
      </trkpt>
      <trkpt lat="44.46988" lon="1.28598">
        <ele>105.5</ele>
        <time>2021-11-18T13:14:10Z</time>
      </trkpt>
      <trkpt lat="44.46992" lon="1.28597">
        <ele>106</ele>
        <time>2021-11-18T13:14:14Z</time>
      </trkpt>
      <trkpt lat="44.46998" lon="1.28595">
        <ele>106.7</ele>
        <time>2021-11-18T13:14:19Z</time>
      </trkpt>
      <trkpt lat="44.47003" lon="1.28593">
        <ele>106.7</ele>
        <time>2021-11-18T13:14:23Z</time>
      </trkpt>
      <trkpt lat="44.47008" lon="1.28593">
        <ele>106.3</ele>
        <time>2021-11-18T13:14:28Z</time>
      </trkpt>
      <trkpt lat="44.47013" lon="1.28592">
        <ele>105.7</ele>
        <time>2021-11-18T13:14:33Z</time>
      </trkpt>
      <trkpt lat="44.47019" lon="1.28591">
        <ele>105.5</ele>
        <time>2021-11-18T13:14:38Z</time>
      </trkpt>
      <trkpt lat="44.47023" lon="1.2859">
        <ele>105.3</ele>
        <time>2021-11-18T13:14:42Z</time>
      </trkpt>
      <trkpt lat="44.47028" lon="1.28589">
        <ele>105.2</ele>
        <time>2021-11-18T13:14:46Z</time>
      </trkpt>
      <trkpt lat="44.47033" lon="1.2859">
        <ele>105.1</ele>
        <time>2021-11-18T13:14:50Z</time>
      </trkpt>
      <trkpt lat="44.47038" lon="1.28592">
        <ele>104.7</ele>
        <time>2021-11-18T13:14:55Z</time>
      </trkpt>
      <trkpt lat="44.47044" lon="1.28592">
        <ele>104.7</ele>
        <time>2021-11-18T13:15:00Z</time>
      </trkpt>
      <trkpt lat="44.47049" lon="1.28591">
        <ele>104.9</ele>
        <time>2021-11-18T13:15:04Z</time>
      </trkpt>
      <trkpt lat="44.47053" lon="1.28591">
        <ele>105.1</ele>
        <time>2021-11-18T13:15:08Z</time>
      </trkpt>
      <trkpt lat="44.47058" lon="1.2859">
        <ele>105</ele>
        <time>2021-11-18T13:15:14Z</time>
      </trkpt>
      <trkpt lat="44.47064" lon="1.28591">
        <ele>105.3</ele>
        <time>2021-11-18T13:15:19Z</time>
      </trkpt>
      <trkpt lat="44.47069" lon="1.28591">
        <ele>106</ele>
        <time>2021-11-18T13:15:23Z</time>
      </trkpt>
      <trkpt lat="44.47074" lon="1.28591">
        <ele>106.6</ele>
        <time>2021-11-18T13:15:27Z</time>
      </trkpt>
      <trkpt lat="44.47079" lon="1.28592">
        <ele>107.2</ele>
        <time>2021-11-18T13:15:32Z</time>
      </trkpt>
      <trkpt lat="44.47084" lon="1.28592">
        <ele>106.5</ele>
        <time>2021-11-18T13:15:37Z</time>
      </trkpt>
      <trkpt lat="44.4709" lon="1.28592">
        <ele>106.1</ele>
        <time>2021-11-18T13:15:41Z</time>
      </trkpt>
      <trkpt lat="44.47094" lon="1.28593">
        <ele>105.9</ele>
        <time>2021-11-18T13:15:44Z</time>
      </trkpt>
      <trkpt lat="44.47099" lon="1.28593">
        <ele>105.7</ele>
        <time>2021-11-18T13:15:48Z</time>
      </trkpt>
      <trkpt lat="44.47104" lon="1.28593">
        <ele>105.2</ele>
        <time>2021-11-18T13:15:53Z</time>
      </trkpt>
      <trkpt lat="44.47109" lon="1.28595">
        <ele>104.8</ele>
        <time>2021-11-18T13:15:57Z</time>
      </trkpt>
      <trkpt lat="44.47114" lon="1.28594">
        <ele>104.6</ele>
        <time>2021-11-18T13:16:02Z</time>
      </trkpt>
      <trkpt lat="44.47119" lon="1.28593">
        <ele>104.7</ele>
        <time>2021-11-18T13:16:07Z</time>
      </trkpt>
      <trkpt lat="44.47124" lon="1.28592">
        <ele>104.8</ele>
        <time>2021-11-18T13:16:11Z</time>
      </trkpt>
      <trkpt lat="44.47129" lon="1.28592">
        <ele>104.9</ele>
        <time>2021-11-18T13:16:16Z</time>
      </trkpt>
      <trkpt lat="44.47135" lon="1.28592">
        <ele>104.9</ele>
        <time>2021-11-18T13:16:21Z</time>
      </trkpt>
      <trkpt lat="44.4714" lon="1.28592">
        <ele>104.7</ele>
        <time>2021-11-18T13:16:26Z</time>
      </trkpt>
      <trkpt lat="44.47146" lon="1.28592">
        <ele>104.5</ele>
        <time>2021-11-18T13:16:31Z</time>
      </trkpt>
      <trkpt lat="44.47151" lon="1.28593">
        <ele>104.6</ele>
        <time>2021-11-18T13:16:35Z</time>
      </trkpt>
      <trkpt lat="44.47156" lon="1.28593">
        <ele>104.8</ele>
        <time>2021-11-18T13:16:39Z</time>
      </trkpt>
      <trkpt lat="44.47162" lon="1.28594">
        <ele>105.7</ele>
        <time>2021-11-18T13:16:43Z</time>
      </trkpt>
      <trkpt lat="44.47167" lon="1.28593">
        <ele>106.7</ele>
        <time>2021-11-18T13:16:47Z</time>
      </trkpt>
      <trkpt lat="44.47172" lon="1.28595">
        <ele>107.8</ele>
        <time>2021-11-18T13:16:51Z</time>
      </trkpt>
      <trkpt lat="44.47176" lon="1.28597">
        <ele>108.4</ele>
        <time>2021-11-18T13:16:56Z</time>
      </trkpt>
      <trkpt lat="44.47181" lon="1.28598">
        <ele>107.8</ele>
        <time>2021-11-18T13:17:02Z</time>
      </trkpt>
      <trkpt lat="44.47186" lon="1.286">
        <ele>107.2</ele>
        <time>2021-11-18T13:17:07Z</time>
      </trkpt>
      <trkpt lat="44.4719" lon="1.28601">
        <ele>106.4</ele>
        <time>2021-11-18T13:17:11Z</time>
      </trkpt>
      <trkpt lat="44.47195" lon="1.28602">
        <ele>105.8</ele>
        <time>2021-11-18T13:17:15Z</time>
      </trkpt>
      <trkpt lat="44.472" lon="1.28603">
        <ele>105.5</ele>
        <time>2021-11-18T13:17:19Z</time>
      </trkpt>
      <trkpt lat="44.47204" lon="1.28605">
        <ele>104.8</ele>
        <time>2021-11-18T13:17:24Z</time>
      </trkpt>
      <trkpt lat="44.4721" lon="1.28608">
        <ele>104.1</ele>
        <time>2021-11-18T13:17:29Z</time>
      </trkpt>
      <trkpt lat="44.47215" lon="1.2861">
        <ele>103.4</ele>
        <time>2021-11-18T13:17:33Z</time>
      </trkpt>
      <trkpt lat="44.4722" lon="1.2861">
        <ele>103.5</ele>
        <time>2021-11-18T13:17:38Z</time>
      </trkpt>
      <trkpt lat="44.47225" lon="1.28611">
        <ele>104</ele>
        <time>2021-11-18T13:17:42Z</time>
      </trkpt>
      <trkpt lat="44.47231" lon="1.2861">
        <ele>104.7</ele>
        <time>2021-11-18T13:17:46Z</time>
      </trkpt>
      <trkpt lat="44.47236" lon="1.28609">
        <ele>105.8</ele>
        <time>2021-11-18T13:17:50Z</time>
      </trkpt>
      <trkpt lat="44.47242" lon="1.28609">
        <ele>106.8</ele>
        <time>2021-11-18T13:17:55Z</time>
      </trkpt>
      <trkpt lat="44.47248" lon="1.2861">
        <ele>108</ele>
        <time>2021-11-18T13:17:58Z</time>
      </trkpt>
      <trkpt lat="44.47253" lon="1.28614">
        <ele>108.9</ele>
        <time>2021-11-18T13:18:01Z</time>
      </trkpt>
      <trkpt lat="44.47257" lon="1.28619">
        <ele>109.4</ele>
        <time>2021-11-18T13:18:06Z</time>
      </trkpt>
      <trkpt lat="44.47262" lon="1.28619">
        <ele>109.1</ele>
        <time>2021-11-18T13:18:10Z</time>
      </trkpt>
      <trkpt lat="44.47267" lon="1.28622">
        <ele>108.9</ele>
        <time>2021-11-18T13:18:15Z</time>
      </trkpt>
      <trkpt lat="44.47273" lon="1.28622">
        <ele>108.4</ele>
        <time>2021-11-18T13:18:20Z</time>
      </trkpt>
      <trkpt lat="44.47278" lon="1.28625">
        <ele>107.9</ele>
        <time>2021-11-18T13:18:26Z</time>
      </trkpt>
      <trkpt lat="44.47282" lon="1.28626">
        <ele>107.7</ele>
        <time>2021-11-18T13:18:30Z</time>
      </trkpt>
      <trkpt lat="44.47287" lon="1.28627">
        <ele>107.6</ele>
        <time>2021-11-18T13:18:34Z</time>
      </trkpt>
      <trkpt lat="44.47291" lon="1.28628">
        <ele>107.4</ele>
        <time>2021-11-18T13:18:38Z</time>
      </trkpt>
      <trkpt lat="44.47296" lon="1.28629">
        <ele>107.3</ele>
        <time>2021-11-18T13:18:42Z</time>
      </trkpt>
      <trkpt lat="44.47301" lon="1.28629">
        <ele>107.1</ele>
        <time>2021-11-18T13:18:47Z</time>
      </trkpt>
      <trkpt lat="44.47306" lon="1.2863">
        <ele>106.8</ele>
        <time>2021-11-18T13:18:52Z</time>
      </trkpt>
      <trkpt lat="44.4731" lon="1.28634">
        <ele>106.7</ele>
        <time>2021-11-18T13:18:57Z</time>
      </trkpt>
      <trkpt lat="44.47311" lon="1.28641">
        <ele>106.4</ele>
        <time>2021-11-18T13:19:04Z</time>
      </trkpt>
      <trkpt lat="44.47307" lon="1.28646">
        <ele>106</ele>
        <time>2021-11-18T13:19:09Z</time>
      </trkpt>
      <trkpt lat="44.47305" lon="1.28652">
        <ele>105.9</ele>
        <time>2021-11-18T13:19:13Z</time>
      </trkpt>
      <trkpt lat="44.47302" lon="1.28657">
        <ele>106.1</ele>
        <time>2021-11-18T13:19:17Z</time>
      </trkpt>
      <trkpt lat="44.47299" lon="1.28663">
        <ele>106.7</ele>
        <time>2021-11-18T13:19:21Z</time>
      </trkpt>
      <trkpt lat="44.47296" lon="1.28668">
        <ele>108.1</ele>
        <time>2021-11-18T13:19:27Z</time>
      </trkpt>
      <trkpt lat="44.47292" lon="1.28673">
        <ele>109.1</ele>
        <time>2021-11-18T13:19:33Z</time>
      </trkpt>
      <trkpt lat="44.4729" lon="1.28679">
        <ele>108.9</ele>
        <time>2021-11-18T13:19:38Z</time>
      </trkpt>
      <trkpt lat="44.47287" lon="1.28685">
        <ele>108.7</ele>
        <time>2021-11-18T13:19:42Z</time>
      </trkpt>
      <trkpt lat="44.47284" lon="1.2869">
        <ele>108.5</ele>
        <time>2021-11-18T13:19:46Z</time>
      </trkpt>
      <trkpt lat="44.47281" lon="1.28694">
        <ele>108.7</ele>
        <time>2021-11-18T13:19:51Z</time>
      </trkpt>
      <trkpt lat="44.47277" lon="1.28697">
        <ele>109.2</ele>
        <time>2021-11-18T13:19:56Z</time>
      </trkpt>
      <trkpt lat="44.47272" lon="1.28699">
        <ele>109.5</ele>
        <time>2021-11-18T13:20:00Z</time>
      </trkpt>
      <trkpt lat="44.47268" lon="1.28703">
        <ele>109.6</ele>
        <time>2021-11-18T13:20:08Z</time>
      </trkpt>
      <trkpt lat="44.47265" lon="1.28708">
        <ele>110</ele>
        <time>2021-11-18T13:20:15Z</time>
      </trkpt>
      <trkpt lat="44.47261" lon="1.28713">
        <ele>111.1</ele>
        <time>2021-11-18T13:20:24Z</time>
      </trkpt>
      <trkpt lat="44.47259" lon="1.28719">
        <ele>112.1</ele>
        <time>2021-11-18T13:20:30Z</time>
      </trkpt>
      <trkpt lat="44.47257" lon="1.28725">
        <ele>113</ele>
        <time>2021-11-18T13:20:36Z</time>
      </trkpt>
      <trkpt lat="44.47254" lon="1.28731">
        <ele>113.9</ele>
        <time>2021-11-18T13:20:44Z</time>
      </trkpt>
      <trkpt lat="44.47251" lon="1.28735">
        <ele>114.6</ele>
        <time>2021-11-18T13:20:49Z</time>
      </trkpt>
      <trkpt lat="44.47248" lon="1.2874">
        <ele>115.2</ele>
        <time>2021-11-18T13:20:55Z</time>
      </trkpt>
      <trkpt lat="44.47245" lon="1.28746">
        <ele>115.4</ele>
        <time>2021-11-18T13:20:59Z</time>
      </trkpt>
      <trkpt lat="44.47242" lon="1.28752">
        <ele>114.9</ele>
        <time>2021-11-18T13:21:04Z</time>
      </trkpt>
      <trkpt lat="44.4724" lon="1.28758">
        <ele>113.8</ele>
        <time>2021-11-18T13:21:10Z</time>
      </trkpt>
      <trkpt lat="44.47238" lon="1.28764">
        <ele>112.6</ele>
        <time>2021-11-18T13:21:16Z</time>
      </trkpt>
      <trkpt lat="44.47236" lon="1.2877">
        <ele>111.7</ele>
        <time>2021-11-18T13:21:22Z</time>
      </trkpt>
      <trkpt lat="44.47234" lon="1.28776">
        <ele>111.4</ele>
        <time>2021-11-18T13:21:27Z</time>
      </trkpt>
      <trkpt lat="44.47231" lon="1.28782">
        <ele>111</ele>
        <time>2021-11-18T13:21:34Z</time>
      </trkpt>
      <trkpt lat="44.47229" lon="1.28787">
        <ele>111.1</ele>
        <time>2021-11-18T13:21:39Z</time>
      </trkpt>
      <trkpt lat="44.47226" lon="1.28793">
        <ele>111.9</ele>
        <time>2021-11-18T13:21:44Z</time>
      </trkpt>
      <trkpt lat="44.47225" lon="1.288">
        <ele>113.1</ele>
        <time>2021-11-18T13:21:50Z</time>
      </trkpt>
      <trkpt lat="44.47224" lon="1.28806">
        <ele>114.2</ele>
        <time>2021-11-18T13:21:56Z</time>
      </trkpt>
      <trkpt lat="44.47221" lon="1.28812">
        <ele>115.2</ele>
        <time>2021-11-18T13:22:03Z</time>
      </trkpt>
      <trkpt lat="44.47221" lon="1.28819">
        <ele>116.6</ele>
        <time>2021-11-18T13:22:10Z</time>
      </trkpt>
      <trkpt lat="44.47221" lon="1.28825">
        <ele>118.1</ele>
        <time>2021-11-18T13:22:16Z</time>
      </trkpt>
      <trkpt lat="44.47221" lon="1.28832">
        <ele>119.1</ele>
        <time>2021-11-18T13:22:21Z</time>
      </trkpt>
      <trkpt lat="44.4722" lon="1.28839">
        <ele>120.9</ele>
        <time>2021-11-18T13:22:29Z</time>
      </trkpt>
      <trkpt lat="44.47218" lon="1.28844">
        <ele>121.9</ele>
        <time>2021-11-18T13:22:35Z</time>
      </trkpt>
      <trkpt lat="44.47216" lon="1.2885">
        <ele>122.6</ele>
        <time>2021-11-18T13:22:43Z</time>
      </trkpt>
      <trkpt lat="44.47216" lon="1.28857">
        <ele>123</ele>
        <time>2021-11-18T13:22:53Z</time>
      </trkpt>
      <trkpt lat="44.4722" lon="1.28862">
        <ele>124.3</ele>
        <time>2021-11-18T13:23:07Z</time>
      </trkpt>
      <trkpt lat="44.47224" lon="1.28864">
        <ele>125.5</ele>
        <time>2021-11-18T13:23:12Z</time>
      </trkpt>
      <trkpt lat="44.47228" lon="1.28867">
        <ele>126.5</ele>
        <time>2021-11-18T13:23:18Z</time>
      </trkpt>
      <trkpt lat="44.47232" lon="1.2887">
        <ele>127</ele>
        <time>2021-11-18T13:23:26Z</time>
      </trkpt>
      <trkpt lat="44.47236" lon="1.28875">
        <ele>126.1</ele>
        <time>2021-11-18T13:23:38Z</time>
      </trkpt>
      <trkpt lat="44.47241" lon="1.28877">
        <ele>126.2</ele>
        <time>2021-11-18T13:23:45Z</time>
      </trkpt>
      <trkpt lat="44.47246" lon="1.28878">
        <ele>126.2</ele>
        <time>2021-11-18T13:23:51Z</time>
      </trkpt>
      <trkpt lat="44.4725" lon="1.28882">
        <ele>126.9</ele>
        <time>2021-11-18T13:23:58Z</time>
      </trkpt>
      <trkpt lat="44.47254" lon="1.28886">
        <ele>128.7</ele>
        <time>2021-11-18T13:24:06Z</time>
      </trkpt>
      <trkpt lat="44.47258" lon="1.2889">
        <ele>130.8</ele>
        <time>2021-11-18T13:24:13Z</time>
      </trkpt>
      <trkpt lat="44.47263" lon="1.28891">
        <ele>133.7</ele>
        <time>2021-11-18T13:24:23Z</time>
      </trkpt>
      <trkpt lat="44.47267" lon="1.28894">
        <ele>134.9</ele>
        <time>2021-11-18T13:24:31Z</time>
      </trkpt>
      <trkpt lat="44.47272" lon="1.28898">
        <ele>136.1</ele>
        <time>2021-11-18T13:24:38Z</time>
      </trkpt>
      <trkpt lat="44.47276" lon="1.28902">
        <ele>137.4</ele>
        <time>2021-11-18T13:24:44Z</time>
      </trkpt>
      <trkpt lat="44.4728" lon="1.28905">
        <ele>139.9</ele>
        <time>2021-11-18T13:24:52Z</time>
      </trkpt>
      <trkpt lat="44.47285" lon="1.28905">
        <ele>141</ele>
        <time>2021-11-18T13:24:58Z</time>
      </trkpt>
      <trkpt lat="44.47289" lon="1.28908">
        <ele>141.6</ele>
        <time>2021-11-18T13:25:05Z</time>
      </trkpt>
      <trkpt lat="44.47294" lon="1.28912">
        <ele>142.4</ele>
        <time>2021-11-18T13:25:12Z</time>
      </trkpt>
      <trkpt lat="44.47298" lon="1.28915">
        <ele>143.5</ele>
        <time>2021-11-18T13:25:20Z</time>
      </trkpt>
      <trkpt lat="44.47302" lon="1.28918">
        <ele>144.6</ele>
        <time>2021-11-18T13:25:27Z</time>
      </trkpt>
      <trkpt lat="44.47307" lon="1.28921">
        <ele>145.5</ele>
        <time>2021-11-18T13:25:32Z</time>
      </trkpt>
      <trkpt lat="44.47312" lon="1.28922">
        <ele>146.6</ele>
        <time>2021-11-18T13:25:39Z</time>
      </trkpt>
      <trkpt lat="44.47316" lon="1.28926">
        <ele>147.8</ele>
        <time>2021-11-18T13:25:46Z</time>
      </trkpt>
      <trkpt lat="44.47321" lon="1.28928">
        <ele>148.9</ele>
        <time>2021-11-18T13:25:54Z</time>
      </trkpt>
      <trkpt lat="44.47325" lon="1.28931">
        <ele>150.4</ele>
        <time>2021-11-18T13:26:03Z</time>
      </trkpt>
      <trkpt lat="44.47329" lon="1.28934">
        <ele>151.7</ele>
        <time>2021-11-18T13:26:10Z</time>
      </trkpt>
      <trkpt lat="44.47334" lon="1.28937">
        <ele>153.2</ele>
        <time>2021-11-18T13:26:19Z</time>
      </trkpt>
      <trkpt lat="44.47338" lon="1.28939">
        <ele>154.1</ele>
        <time>2021-11-18T13:26:26Z</time>
      </trkpt>
      <trkpt lat="44.47342" lon="1.28942">
        <ele>154.9</ele>
        <time>2021-11-18T13:26:32Z</time>
      </trkpt>
      <trkpt lat="44.47347" lon="1.28945">
        <ele>155.8</ele>
        <time>2021-11-18T13:26:38Z</time>
      </trkpt>
      <trkpt lat="44.47351" lon="1.28947">
        <ele>156.7</ele>
        <time>2021-11-18T13:26:45Z</time>
      </trkpt>
      <trkpt lat="44.47355" lon="1.28951">
        <ele>157.5</ele>
        <time>2021-11-18T13:26:54Z</time>
      </trkpt>
      <trkpt lat="44.4736" lon="1.28952">
        <ele>158.3</ele>
        <time>2021-11-18T13:27:01Z</time>
      </trkpt>
      <trkpt lat="44.47365" lon="1.28954">
        <ele>159.4</ele>
        <time>2021-11-18T13:27:08Z</time>
      </trkpt>
      <trkpt lat="44.47369" lon="1.28952">
        <ele>160.7</ele>
        <time>2021-11-18T13:27:14Z</time>
      </trkpt>
      <trkpt lat="44.47374" lon="1.28949">
        <ele>161.9</ele>
        <time>2021-11-18T13:27:19Z</time>
      </trkpt>
      <trkpt lat="44.47378" lon="1.28946">
        <ele>162.7</ele>
        <time>2021-11-18T13:27:25Z</time>
      </trkpt>
      <trkpt lat="44.47383" lon="1.28942">
        <ele>162.9</ele>
        <time>2021-11-18T13:27:31Z</time>
      </trkpt>
      <trkpt lat="44.47388" lon="1.2894">
        <ele>163</ele>
        <time>2021-11-18T13:27:36Z</time>
      </trkpt>
      <trkpt lat="44.47392" lon="1.28937">
        <ele>163.8</ele>
        <time>2021-11-18T13:27:42Z</time>
      </trkpt>
      <trkpt lat="44.47396" lon="1.28933">
        <ele>164.8</ele>
        <time>2021-11-18T13:27:48Z</time>
      </trkpt>
      <trkpt lat="44.474" lon="1.28928">
        <ele>165.3</ele>
        <time>2021-11-18T13:27:54Z</time>
      </trkpt>
      <trkpt lat="44.47404" lon="1.28924">
        <ele>165.5</ele>
        <time>2021-11-18T13:27:59Z</time>
      </trkpt>
      <trkpt lat="44.47408" lon="1.2892">
        <ele>166.1</ele>
        <time>2021-11-18T13:28:04Z</time>
      </trkpt>
      <trkpt lat="44.47412" lon="1.28915">
        <ele>166.9</ele>
        <time>2021-11-18T13:28:09Z</time>
      </trkpt>
      <trkpt lat="44.47415" lon="1.2891">
        <ele>168.3</ele>
        <time>2021-11-18T13:28:16Z</time>
      </trkpt>
      <trkpt lat="44.47419" lon="1.28907">
        <ele>169.3</ele>
        <time>2021-11-18T13:28:21Z</time>
      </trkpt>
      <trkpt lat="44.47423" lon="1.28903">
        <ele>170</ele>
        <time>2021-11-18T13:28:26Z</time>
      </trkpt>
      <trkpt lat="44.47427" lon="1.28899">
        <ele>170.4</ele>
        <time>2021-11-18T13:28:32Z</time>
      </trkpt>
      <trkpt lat="44.47432" lon="1.28895">
        <ele>170.8</ele>
        <time>2021-11-18T13:28:37Z</time>
      </trkpt>
      <trkpt lat="44.47436" lon="1.2889">
        <ele>171.5</ele>
        <time>2021-11-18T13:28:42Z</time>
      </trkpt>
      <trkpt lat="44.4744" lon="1.28886">
        <ele>172.6</ele>
        <time>2021-11-18T13:28:48Z</time>
      </trkpt>
      <trkpt lat="44.47445" lon="1.28883">
        <ele>173.4</ele>
        <time>2021-11-18T13:28:53Z</time>
      </trkpt>
      <trkpt lat="44.47448" lon="1.28878">
        <ele>174.5</ele>
        <time>2021-11-18T13:29:01Z</time>
      </trkpt>
      <trkpt lat="44.47451" lon="1.28872">
        <ele>175.1</ele>
        <time>2021-11-18T13:29:07Z</time>
      </trkpt>
      <trkpt lat="44.47455" lon="1.28868">
        <ele>175.7</ele>
        <time>2021-11-18T13:29:12Z</time>
      </trkpt>
      <trkpt lat="44.47459" lon="1.28863">
        <ele>176.6</ele>
        <time>2021-11-18T13:29:18Z</time>
      </trkpt>
      <trkpt lat="44.47463" lon="1.28859">
        <ele>177.7</ele>
        <time>2021-11-18T13:29:22Z</time>
      </trkpt>
      <trkpt lat="44.47467" lon="1.28856">
        <ele>180.2</ele>
        <time>2021-11-18T13:29:27Z</time>
      </trkpt>
      <trkpt lat="44.47472" lon="1.28853">
        <ele>182.2</ele>
        <time>2021-11-18T13:29:32Z</time>
      </trkpt>
      <trkpt lat="44.47475" lon="1.28848">
        <ele>183.7</ele>
        <time>2021-11-18T13:29:37Z</time>
      </trkpt>
      <trkpt lat="44.47479" lon="1.28843">
        <ele>184.8</ele>
        <time>2021-11-18T13:29:42Z</time>
      </trkpt>
      <trkpt lat="44.47483" lon="1.28839">
        <ele>184.6</ele>
        <time>2021-11-18T13:29:50Z</time>
      </trkpt>
      <trkpt lat="44.47487" lon="1.28836">
        <ele>183.9</ele>
        <time>2021-11-18T13:29:57Z</time>
      </trkpt>
      <trkpt lat="44.47488" lon="1.28828">
        <ele>183.8</ele>
        <time>2021-11-18T13:30:40Z</time>
      </trkpt>
      <trkpt lat="44.47487" lon="1.28822">
        <ele>183.9</ele>
        <time>2021-11-18T13:31:12Z</time>
      </trkpt>
      <trkpt lat="44.4749" lon="1.28816">
        <ele>187.6</ele>
        <time>2021-11-18T13:32:32Z</time>
      </trkpt>
      <trkpt lat="44.47486" lon="1.2882">
        <ele>187</ele>
        <time>2021-11-18T13:32:54Z</time>
      </trkpt>
      <trkpt lat="44.47489" lon="1.28826">
        <ele>186.5</ele>
        <time>2021-11-18T13:33:18Z</time>
      </trkpt>
      <trkpt lat="44.47489" lon="1.28835">
        <ele>186.6</ele>
        <time>2021-11-18T13:33:21Z</time>
      </trkpt>
      <trkpt lat="44.47488" lon="1.28829">
        <ele>187</ele>
        <time>2021-11-18T13:33:30Z</time>
      </trkpt>
      <trkpt lat="44.47485" lon="1.28825">
        <ele>187</ele>
        <time>2021-11-18T13:33:36Z</time>
      </trkpt>
      <trkpt lat="44.47489" lon="1.28827">
        <ele>186.1</ele>
        <time>2021-11-18T13:34:21Z</time>
      </trkpt>
      <trkpt lat="44.47494" lon="1.28826">
        <ele>185.4</ele>
        <time>2021-11-18T13:34:27Z</time>
      </trkpt>
      <trkpt lat="44.47499" lon="1.28822">
        <ele>184.6</ele>
        <time>2021-11-18T13:34:32Z</time>
      </trkpt>
      <trkpt lat="44.47504" lon="1.2882">
        <ele>184.2</ele>
        <time>2021-11-18T13:34:36Z</time>
      </trkpt>
      <trkpt lat="44.47509" lon="1.28818">
        <ele>183.8</ele>
        <time>2021-11-18T13:34:41Z</time>
      </trkpt>
      <trkpt lat="44.47514" lon="1.28816">
        <ele>183.4</ele>
        <time>2021-11-18T13:34:45Z</time>
      </trkpt>
      <trkpt lat="44.47518" lon="1.28815">
        <ele>183.2</ele>
        <time>2021-11-18T13:34:50Z</time>
      </trkpt>
      <trkpt lat="44.47523" lon="1.28812">
        <ele>182.6</ele>
        <time>2021-11-18T13:34:56Z</time>
      </trkpt>
      <trkpt lat="44.47528" lon="1.28812">
        <ele>182.6</ele>
        <time>2021-11-18T13:35:07Z</time>
      </trkpt>
      <trkpt lat="44.47534" lon="1.2881">
        <ele>182.2</ele>
        <time>2021-11-18T13:35:48Z</time>
      </trkpt>
      <trkpt lat="44.47539" lon="1.28808">
        <ele>181.6</ele>
        <time>2021-11-18T13:35:53Z</time>
      </trkpt>
      <trkpt lat="44.47543" lon="1.28805">
        <ele>180.4</ele>
        <time>2021-11-18T13:36:01Z</time>
      </trkpt>
      <trkpt lat="44.47548" lon="1.28806">
        <ele>179.3</ele>
        <time>2021-11-18T13:36:08Z</time>
      </trkpt>
      <trkpt lat="44.47553" lon="1.28803">
        <ele>177.7</ele>
        <time>2021-11-18T13:36:17Z</time>
      </trkpt>
      <trkpt lat="44.47558" lon="1.28802">
        <ele>175.4</ele>
        <time>2021-11-18T13:36:29Z</time>
      </trkpt>
      <trkpt lat="44.47563" lon="1.28805">
        <ele>174.1</ele>
        <time>2021-11-18T13:36:37Z</time>
      </trkpt>
      <trkpt lat="44.47568" lon="1.28803">
        <ele>173.1</ele>
        <time>2021-11-18T13:36:44Z</time>
      </trkpt>
      <trkpt lat="44.47572" lon="1.288">
        <ele>171.7</ele>
        <time>2021-11-18T13:36:50Z</time>
      </trkpt>
      <trkpt lat="44.47577" lon="1.28799">
        <ele>170.4</ele>
        <time>2021-11-18T13:36:55Z</time>
      </trkpt>
      <trkpt lat="44.47581" lon="1.28798">
        <ele>168.9</ele>
        <time>2021-11-18T13:37:10Z</time>
      </trkpt>
      <trkpt lat="44.47586" lon="1.288">
        <ele>167.8</ele>
        <time>2021-11-18T13:37:19Z</time>
      </trkpt>
      <trkpt lat="44.47591" lon="1.28799">
        <ele>167.1</ele>
        <time>2021-11-18T13:37:24Z</time>
      </trkpt>
      <trkpt lat="44.47596" lon="1.28797">
        <ele>166.9</ele>
        <time>2021-11-18T13:37:28Z</time>
      </trkpt>
      <trkpt lat="44.476" lon="1.28796">
        <ele>167.1</ele>
        <time>2021-11-18T13:37:33Z</time>
      </trkpt>
      <trkpt lat="44.47605" lon="1.28793">
        <ele>167.5</ele>
        <time>2021-11-18T13:37:48Z</time>
      </trkpt>
      <trkpt lat="44.4761" lon="1.28792">
        <ele>167.5</ele>
        <time>2021-11-18T13:37:55Z</time>
      </trkpt>
      <trkpt lat="44.47615" lon="1.28791">
        <ele>167.6</ele>
        <time>2021-11-18T13:38:00Z</time>
      </trkpt>
      <trkpt lat="44.47619" lon="1.2879">
        <ele>166.9</ele>
        <time>2021-11-18T13:38:06Z</time>
      </trkpt>
      <trkpt lat="44.47624" lon="1.28789">
        <ele>164.9</ele>
        <time>2021-11-18T13:38:13Z</time>
      </trkpt>
      <trkpt lat="44.47629" lon="1.28788">
        <ele>163</ele>
        <time>2021-11-18T13:38:19Z</time>
      </trkpt>
      <trkpt lat="44.47634" lon="1.28786">
        <ele>162.1</ele>
        <time>2021-11-18T13:38:22Z</time>
      </trkpt>
      <trkpt lat="44.47638" lon="1.28787">
        <ele>159.8</ele>
        <time>2021-11-18T13:38:32Z</time>
      </trkpt>
      <trkpt lat="44.47643" lon="1.28785">
        <ele>159</ele>
        <time>2021-11-18T13:38:45Z</time>
      </trkpt>
      <trkpt lat="44.47647" lon="1.28784">
        <ele>158.4</ele>
        <time>2021-11-18T13:38:51Z</time>
      </trkpt>
      <trkpt lat="44.47652" lon="1.28785">
        <ele>156.6</ele>
        <time>2021-11-18T13:39:01Z</time>
      </trkpt>
      <trkpt lat="44.47657" lon="1.28784">
        <ele>155</ele>
        <time>2021-11-18T13:39:08Z</time>
      </trkpt>
      <trkpt lat="44.47662" lon="1.28784">
        <ele>153.6</ele>
        <time>2021-11-18T13:39:14Z</time>
      </trkpt>
      <trkpt lat="44.47667" lon="1.28784">
        <ele>153.1</ele>
        <time>2021-11-18T13:39:19Z</time>
      </trkpt>
      <trkpt lat="44.47672" lon="1.28784">
        <ele>153</ele>
        <time>2021-11-18T13:39:24Z</time>
      </trkpt>
      <trkpt lat="44.47677" lon="1.28784">
        <ele>153.3</ele>
        <time>2021-11-18T13:39:32Z</time>
      </trkpt>
      <trkpt lat="44.47681" lon="1.28784">
        <ele>154</ele>
        <time>2021-11-18T13:39:37Z</time>
      </trkpt>
      <trkpt lat="44.47686" lon="1.28783">
        <ele>152.7</ele>
        <time>2021-11-18T13:39:43Z</time>
      </trkpt>
      <trkpt lat="44.47691" lon="1.28781">
        <ele>150.5</ele>
        <time>2021-11-18T13:39:51Z</time>
      </trkpt>
      <trkpt lat="44.47695" lon="1.28778">
        <ele>147.8</ele>
        <time>2021-11-18T13:40:02Z</time>
      </trkpt>
      <trkpt lat="44.477" lon="1.28777">
        <ele>146.1</ele>
        <time>2021-11-18T13:40:11Z</time>
      </trkpt>
      <trkpt lat="44.47705" lon="1.28776">
        <ele>145.5</ele>
        <time>2021-11-18T13:40:17Z</time>
      </trkpt>
      <trkpt lat="44.4771" lon="1.28776">
        <ele>145.6</ele>
        <time>2021-11-18T13:40:26Z</time>
      </trkpt>
      <trkpt lat="44.47715" lon="1.28774">
        <ele>142.9</ele>
        <time>2021-11-18T13:40:36Z</time>
      </trkpt>
      <trkpt lat="44.4772" lon="1.28773">
        <ele>141.8</ele>
        <time>2021-11-18T13:40:41Z</time>
      </trkpt>
      <trkpt lat="44.47725" lon="1.28771">
        <ele>140.5</ele>
        <time>2021-11-18T13:40:49Z</time>
      </trkpt>
      <trkpt lat="44.47729" lon="1.2877">
        <ele>138.5</ele>
        <time>2021-11-18T13:40:59Z</time>
      </trkpt>
      <trkpt lat="44.47734" lon="1.28767">
        <ele>136.3</ele>
        <time>2021-11-18T13:41:09Z</time>
      </trkpt>
      <trkpt lat="44.47739" lon="1.28768">
        <ele>135.1</ele>
        <time>2021-11-18T13:41:15Z</time>
      </trkpt>
      <trkpt lat="44.47744" lon="1.28768">
        <ele>133.6</ele>
        <time>2021-11-18T13:41:27Z</time>
      </trkpt>
      <trkpt lat="44.47748" lon="1.28765">
        <ele>133.5</ele>
        <time>2021-11-18T13:41:36Z</time>
      </trkpt>
      <trkpt lat="44.47753" lon="1.28765">
        <ele>132.1</ele>
        <time>2021-11-18T13:41:44Z</time>
      </trkpt>
      <trkpt lat="44.47758" lon="1.28766">
        <ele>129.5</ele>
        <time>2021-11-18T13:41:55Z</time>
      </trkpt>
      <trkpt lat="44.47762" lon="1.28763">
        <ele>126.6</ele>
        <time>2021-11-18T13:42:07Z</time>
      </trkpt>
      <trkpt lat="44.47766" lon="1.28757">
        <ele>125.1</ele>
        <time>2021-11-18T13:42:18Z</time>
      </trkpt>
      <trkpt lat="44.4777" lon="1.28754">
        <ele>123.6</ele>
        <time>2021-11-18T13:42:24Z</time>
      </trkpt>
      <trkpt lat="44.47774" lon="1.28751">
        <ele>121.8</ele>
        <time>2021-11-18T13:42:31Z</time>
      </trkpt>
      <trkpt lat="44.47779" lon="1.2875">
        <ele>120.8</ele>
        <time>2021-11-18T13:42:36Z</time>
      </trkpt>
      <trkpt lat="44.47784" lon="1.28749">
        <ele>119.6</ele>
        <time>2021-11-18T13:42:42Z</time>
      </trkpt>
      <trkpt lat="44.47789" lon="1.28748">
        <ele>118.9</ele>
        <time>2021-11-18T13:42:47Z</time>
      </trkpt>
      <trkpt lat="44.47794" lon="1.28751">
        <ele>118.3</ele>
        <time>2021-11-18T13:42:52Z</time>
      </trkpt>
      <trkpt lat="44.47798" lon="1.28748">
        <ele>118</ele>
        <time>2021-11-18T13:42:56Z</time>
      </trkpt>
      <trkpt lat="44.47798" lon="1.28741">
        <ele>117</ele>
        <time>2021-11-18T13:43:05Z</time>
      </trkpt>
      <trkpt lat="44.47803" lon="1.28737">
        <ele>116.2</ele>
        <time>2021-11-18T13:43:11Z</time>
      </trkpt>
      <trkpt lat="44.47809" lon="1.28735">
        <ele>116.4</ele>
        <time>2021-11-18T13:43:14Z</time>
      </trkpt>
      <trkpt lat="44.4781" lon="1.28728">
        <ele>116.7</ele>
        <time>2021-11-18T13:43:18Z</time>
      </trkpt>
      <trkpt lat="44.47811" lon="1.28722">
        <ele>117.7</ele>
        <time>2021-11-18T13:43:24Z</time>
      </trkpt>
      <trkpt lat="44.4781" lon="1.28715">
        <ele>114.8</ele>
        <time>2021-11-18T13:43:55Z</time>
      </trkpt>
      <trkpt lat="44.47809" lon="1.28709">
        <ele>113.8</ele>
        <time>2021-11-18T13:44:04Z</time>
      </trkpt>
      <trkpt lat="44.47817" lon="1.28709">
        <ele>111.4</ele>
        <time>2021-11-18T13:44:15Z</time>
      </trkpt>
      <trkpt lat="44.47826" lon="1.2871">
        <ele>109.9</ele>
        <time>2021-11-18T13:44:18Z</time>
      </trkpt>
      <trkpt lat="44.47821" lon="1.28709">
        <ele>105.3</ele>
        <time>2021-11-18T13:44:42Z</time>
      </trkpt>
      <trkpt lat="44.4782" lon="1.28703">
        <ele>104.2</ele>
        <time>2021-11-18T13:44:52Z</time>
      </trkpt>
      <trkpt lat="44.47823" lon="1.28698">
        <ele>105.1</ele>
        <time>2021-11-18T13:45:01Z</time>
      </trkpt>
      <trkpt lat="44.4782" lon="1.28693">
        <ele>105.4</ele>
        <time>2021-11-18T13:45:06Z</time>
      </trkpt>
      <trkpt lat="44.47816" lon="1.2869">
        <ele>105.1</ele>
        <time>2021-11-18T13:45:11Z</time>
      </trkpt>
      <trkpt lat="44.47812" lon="1.28685">
        <ele>103.5</ele>
        <time>2021-11-18T13:48:36Z</time>
      </trkpt>
      <trkpt lat="44.47813" lon="1.28679">
        <ele>102.7</ele>
        <time>2021-11-18T13:48:42Z</time>
      </trkpt>
      <trkpt lat="44.47812" lon="1.28672">
        <ele>102.4</ele>
        <time>2021-11-18T13:48:47Z</time>
      </trkpt>
      <trkpt lat="44.4781" lon="1.28666">
        <ele>102</ele>
        <time>2021-11-18T13:48:52Z</time>
      </trkpt>
      <trkpt lat="44.4781" lon="1.28659">
        <ele>102.4</ele>
        <time>2021-11-18T13:48:59Z</time>
      </trkpt>
      <trkpt lat="44.4781" lon="1.28652">
        <ele>102.9</ele>
        <time>2021-11-18T13:49:05Z</time>
      </trkpt>
      <trkpt lat="44.47808" lon="1.28646">
        <ele>103.3</ele>
        <time>2021-11-18T13:49:10Z</time>
      </trkpt>
      <trkpt lat="44.47807" lon="1.28639">
        <ele>103.8</ele>
        <time>2021-11-18T13:49:16Z</time>
      </trkpt>
      <trkpt lat="44.47807" lon="1.28633">
        <ele>104.4</ele>
        <time>2021-11-18T13:49:22Z</time>
      </trkpt>
      <trkpt lat="44.47805" lon="1.28626">
        <ele>104.6</ele>
        <time>2021-11-18T13:49:27Z</time>
      </trkpt>
      <trkpt lat="44.47805" lon="1.28619">
        <ele>104.7</ele>
        <time>2021-11-18T13:49:32Z</time>
      </trkpt>
      <trkpt lat="44.47803" lon="1.28611">
        <ele>104.7</ele>
        <time>2021-11-18T13:49:38Z</time>
      </trkpt>
      <trkpt lat="44.47799" lon="1.28607">
        <ele>104.3</ele>
        <time>2021-11-18T13:49:41Z</time>
      </trkpt>
      <trkpt lat="44.47797" lon="1.286">
        <ele>103.2</ele>
        <time>2021-11-18T13:49:46Z</time>
      </trkpt>
      <trkpt lat="44.47795" lon="1.28594">
        <ele>102.3</ele>
        <time>2021-11-18T13:49:50Z</time>
      </trkpt>
      <trkpt lat="44.47793" lon="1.28588">
        <ele>101.5</ele>
        <time>2021-11-18T13:49:54Z</time>
      </trkpt>
      <trkpt lat="44.47793" lon="1.28581">
        <ele>101.1</ele>
        <time>2021-11-18T13:49:58Z</time>
      </trkpt>
      <trkpt lat="44.47794" lon="1.28574">
        <ele>100.4</ele>
        <time>2021-11-18T13:50:03Z</time>
      </trkpt>
      <trkpt lat="44.47794" lon="1.28567">
        <ele>99.5</ele>
        <time>2021-11-18T13:50:09Z</time>
      </trkpt>
      <trkpt lat="44.47793" lon="1.28561">
        <ele>98.4</ele>
        <time>2021-11-18T13:50:16Z</time>
      </trkpt>
      <trkpt lat="44.47792" lon="1.28555">
        <ele>98.2</ele>
        <time>2021-11-18T13:50:21Z</time>
      </trkpt>
      <trkpt lat="44.4779" lon="1.28549">
        <ele>97.9</ele>
        <time>2021-11-18T13:50:27Z</time>
      </trkpt>
      <trkpt lat="44.47788" lon="1.28542">
        <ele>97.5</ele>
        <time>2021-11-18T13:50:32Z</time>
      </trkpt>
      <trkpt lat="44.47787" lon="1.28536">
        <ele>97.5</ele>
        <time>2021-11-18T13:50:36Z</time>
      </trkpt>
      <trkpt lat="44.47786" lon="1.2853">
        <ele>97.3</ele>
        <time>2021-11-18T13:50:40Z</time>
      </trkpt>
      <trkpt lat="44.47784" lon="1.28523">
        <ele>97.5</ele>
        <time>2021-11-18T13:50:45Z</time>
      </trkpt>
      <trkpt lat="44.47782" lon="1.28516">
        <ele>97.3</ele>
        <time>2021-11-18T13:50:50Z</time>
      </trkpt>
      <trkpt lat="44.4778" lon="1.28509">
        <ele>97.4</ele>
        <time>2021-11-18T13:50:54Z</time>
      </trkpt>
      <trkpt lat="44.47778" lon="1.28503">
        <ele>97.6</ele>
        <time>2021-11-18T13:51:01Z</time>
      </trkpt>
      <trkpt lat="44.47777" lon="1.28496">
        <ele>98.1</ele>
        <time>2021-11-18T13:51:08Z</time>
      </trkpt>
      <trkpt lat="44.47775" lon="1.2849">
        <ele>98.1</ele>
        <time>2021-11-18T13:51:15Z</time>
      </trkpt>
      <trkpt lat="44.47774" lon="1.28484">
        <ele>98</ele>
        <time>2021-11-18T13:51:21Z</time>
      </trkpt>
      <trkpt lat="44.47772" lon="1.28477">
        <ele>97.7</ele>
        <time>2021-11-18T13:51:26Z</time>
      </trkpt>
      <trkpt lat="44.4777" lon="1.2847">
        <ele>96.9</ele>
        <time>2021-11-18T13:51:32Z</time>
      </trkpt>
      <trkpt lat="44.47768" lon="1.28464">
        <ele>95.7</ele>
        <time>2021-11-18T13:51:37Z</time>
      </trkpt>
      <trkpt lat="44.47766" lon="1.28458">
        <ele>94.4</ele>
        <time>2021-11-18T13:51:44Z</time>
      </trkpt>
      <trkpt lat="44.47764" lon="1.28451">
        <ele>94.3</ele>
        <time>2021-11-18T13:51:50Z</time>
      </trkpt>
      <trkpt lat="44.47763" lon="1.28444">
        <ele>94.3</ele>
        <time>2021-11-18T13:51:55Z</time>
      </trkpt>
      <trkpt lat="44.47761" lon="1.28437">
        <ele>94.4</ele>
        <time>2021-11-18T13:52:00Z</time>
      </trkpt>
      <trkpt lat="44.4776" lon="1.2843">
        <ele>94.4</ele>
        <time>2021-11-18T13:52:05Z</time>
      </trkpt>
      <trkpt lat="44.47759" lon="1.28422">
        <ele>94.4</ele>
        <time>2021-11-18T13:52:10Z</time>
      </trkpt>
      <trkpt lat="44.47757" lon="1.28415">
        <ele>94.6</ele>
        <time>2021-11-18T13:52:14Z</time>
      </trkpt>
      <trkpt lat="44.47755" lon="1.28409">
        <ele>94.9</ele>
        <time>2021-11-18T13:52:18Z</time>
      </trkpt>
      <trkpt lat="44.47754" lon="1.28403">
        <ele>95.1</ele>
        <time>2021-11-18T13:52:21Z</time>
      </trkpt>
      <trkpt lat="44.47753" lon="1.28395">
        <ele>95.4</ele>
        <time>2021-11-18T13:52:25Z</time>
      </trkpt>
      <trkpt lat="44.47751" lon="1.28387">
        <ele>95.1</ele>
        <time>2021-11-18T13:52:29Z</time>
      </trkpt>
      <trkpt lat="44.4775" lon="1.28381">
        <ele>94.4</ele>
        <time>2021-11-18T13:52:33Z</time>
      </trkpt>
      <trkpt lat="44.47748" lon="1.28374">
        <ele>93.6</ele>
        <time>2021-11-18T13:52:38Z</time>
      </trkpt>
      <trkpt lat="44.47747" lon="1.28366">
        <ele>92.8</ele>
        <time>2021-11-18T13:52:42Z</time>
      </trkpt>
      <trkpt lat="44.47745" lon="1.2836">
        <ele>92.3</ele>
        <time>2021-11-18T13:52:46Z</time>
      </trkpt>
      <trkpt lat="44.47742" lon="1.28354">
        <ele>91.6</ele>
        <time>2021-11-18T13:52:51Z</time>
      </trkpt>
      <trkpt lat="44.47741" lon="1.28347">
        <ele>91.3</ele>
        <time>2021-11-18T13:52:55Z</time>
      </trkpt>
      <trkpt lat="44.47739" lon="1.28341">
        <ele>91.2</ele>
        <time>2021-11-18T13:52:59Z</time>
      </trkpt>
      <trkpt lat="44.47736" lon="1.28335">
        <ele>91.5</ele>
        <time>2021-11-18T13:53:03Z</time>
      </trkpt>
      <trkpt lat="44.47734" lon="1.28329">
        <ele>91.9</ele>
        <time>2021-11-18T13:53:07Z</time>
      </trkpt>
      <trkpt lat="44.47733" lon="1.28322">
        <ele>92.5</ele>
        <time>2021-11-18T13:53:11Z</time>
      </trkpt>
      <trkpt lat="44.47732" lon="1.28315">
        <ele>93.2</ele>
        <time>2021-11-18T13:53:16Z</time>
      </trkpt>
      <trkpt lat="44.47731" lon="1.28307">
        <ele>93.7</ele>
        <time>2021-11-18T13:53:20Z</time>
      </trkpt>
      <trkpt lat="44.4773" lon="1.283">
        <ele>94</ele>
        <time>2021-11-18T13:53:23Z</time>
      </trkpt>
      <trkpt lat="44.47729" lon="1.28293">
        <ele>94.2</ele>
        <time>2021-11-18T13:53:27Z</time>
      </trkpt>
      <trkpt lat="44.47728" lon="1.28287">
        <ele>94.4</ele>
        <time>2021-11-18T13:53:32Z</time>
      </trkpt>
      <trkpt lat="44.47725" lon="1.28282">
        <ele>95</ele>
        <time>2021-11-18T13:53:35Z</time>
      </trkpt>
      <trkpt lat="44.47724" lon="1.28275">
        <ele>96.2</ele>
        <time>2021-11-18T13:53:39Z</time>
      </trkpt>
      <trkpt lat="44.4772" lon="1.28269">
        <ele>98.2</ele>
        <time>2021-11-18T13:53:48Z</time>
      </trkpt>
      <trkpt lat="44.4772" lon="1.28261">
        <ele>98.3</ele>
        <time>2021-11-18T13:53:51Z</time>
      </trkpt>
      <trkpt lat="44.4772" lon="1.28253">
        <ele>98.3</ele>
        <time>2021-11-18T13:53:54Z</time>
      </trkpt>
      <trkpt lat="44.4772" lon="1.28245">
        <ele>98.1</ele>
        <time>2021-11-18T13:53:57Z</time>
      </trkpt>
      <trkpt lat="44.47719" lon="1.28238">
        <ele>98</ele>
        <time>2021-11-18T13:54:00Z</time>
      </trkpt>
      <trkpt lat="44.47719" lon="1.2823">
        <ele>98.1</ele>
        <time>2021-11-18T13:54:04Z</time>
      </trkpt>
      <trkpt lat="44.47718" lon="1.28223">
        <ele>98.3</ele>
        <time>2021-11-18T13:54:08Z</time>
      </trkpt>
      <trkpt lat="44.47717" lon="1.28216">
        <ele>98.6</ele>
        <time>2021-11-18T13:54:13Z</time>
      </trkpt>
      <trkpt lat="44.47713" lon="1.2821">
        <ele>98.6</ele>
        <time>2021-11-18T13:54:19Z</time>
      </trkpt>
      <trkpt lat="44.47711" lon="1.28204">
        <ele>98.8</ele>
        <time>2021-11-18T13:54:24Z</time>
      </trkpt>
      <trkpt lat="44.47707" lon="1.282">
        <ele>99.4</ele>
        <time>2021-11-18T13:54:28Z</time>
      </trkpt>
      <trkpt lat="44.47705" lon="1.28194">
        <ele>99.9</ele>
        <time>2021-11-18T13:54:33Z</time>
      </trkpt>
      <trkpt lat="44.47701" lon="1.28191">
        <ele>100</ele>
        <time>2021-11-18T13:54:40Z</time>
      </trkpt>
      <trkpt lat="44.47695" lon="1.2819">
        <ele>99.4</ele>
        <time>2021-11-18T13:54:45Z</time>
      </trkpt>
      <trkpt lat="44.4769" lon="1.28191">
        <ele>98.7</ele>
        <time>2021-11-18T13:54:49Z</time>
      </trkpt>
      <trkpt lat="44.47686" lon="1.28193">
        <ele>98.4</ele>
        <time>2021-11-18T13:54:52Z</time>
      </trkpt>
      <trkpt lat="44.47681" lon="1.28195">
        <ele>98.5</ele>
        <time>2021-11-18T13:54:55Z</time>
      </trkpt>
      <trkpt lat="44.47675" lon="1.28195">
        <ele>99.2</ele>
        <time>2021-11-18T13:54:59Z</time>
      </trkpt>
      <trkpt lat="44.4767" lon="1.28196">
        <ele>99.5</ele>
        <time>2021-11-18T13:55:04Z</time>
      </trkpt>
      <trkpt lat="44.47665" lon="1.28197">
        <ele>100</ele>
        <time>2021-11-18T13:55:09Z</time>
      </trkpt>
      <trkpt lat="44.4766" lon="1.28196">
        <ele>99.9</ele>
        <time>2021-11-18T13:55:14Z</time>
      </trkpt>
      <trkpt lat="44.47655" lon="1.28196">
        <ele>99.4</ele>
        <time>2021-11-18T13:55:19Z</time>
      </trkpt>
      <trkpt lat="44.4765" lon="1.28196">
        <ele>98.8</ele>
        <time>2021-11-18T13:55:23Z</time>
      </trkpt>
      <trkpt lat="44.47645" lon="1.28195">
        <ele>98.3</ele>
        <time>2021-11-18T13:55:28Z</time>
      </trkpt>
      <trkpt lat="44.4764" lon="1.28193">
        <ele>97.6</ele>
        <time>2021-11-18T13:55:33Z</time>
      </trkpt>
      <trkpt lat="44.47635" lon="1.28193">
        <ele>96.2</ele>
        <time>2021-11-18T13:55:39Z</time>
      </trkpt>
      <trkpt lat="44.4763" lon="1.28196">
        <ele>95</ele>
        <time>2021-11-18T13:55:44Z</time>
      </trkpt>
      <trkpt lat="44.47626" lon="1.28199">
        <ele>94.6</ele>
        <time>2021-11-18T13:55:48Z</time>
      </trkpt>
      <trkpt lat="44.4762" lon="1.28199">
        <ele>94.5</ele>
        <time>2021-11-18T13:55:52Z</time>
      </trkpt>
      <trkpt lat="44.47614" lon="1.28199">
        <ele>94.5</ele>
        <time>2021-11-18T13:55:55Z</time>
      </trkpt>
      <trkpt lat="44.47608" lon="1.28199">
        <ele>94.7</ele>
        <time>2021-11-18T13:55:58Z</time>
      </trkpt>
      <trkpt lat="44.47602" lon="1.282">
        <ele>94.9</ele>
        <time>2021-11-18T13:56:02Z</time>
      </trkpt>
      <trkpt lat="44.47597" lon="1.282">
        <ele>94.8</ele>
        <time>2021-11-18T13:56:06Z</time>
      </trkpt>
      <trkpt lat="44.47592" lon="1.282">
        <ele>95.1</ele>
        <time>2021-11-18T13:56:10Z</time>
      </trkpt>
      <trkpt lat="44.47587" lon="1.282">
        <ele>95.3</ele>
        <time>2021-11-18T13:56:15Z</time>
      </trkpt>
      <trkpt lat="44.47581" lon="1.28201">
        <ele>96</ele>
        <time>2021-11-18T13:56:20Z</time>
      </trkpt>
      <trkpt lat="44.47576" lon="1.28201">
        <ele>96.3</ele>
        <time>2021-11-18T13:56:24Z</time>
      </trkpt>
      <trkpt lat="44.47571" lon="1.28201">
        <ele>96.3</ele>
        <time>2021-11-18T13:56:29Z</time>
      </trkpt>
      <trkpt lat="44.47566" lon="1.28202">
        <ele>96.3</ele>
        <time>2021-11-18T13:56:33Z</time>
      </trkpt>
      <trkpt lat="44.47561" lon="1.28201">
        <ele>96.3</ele>
        <time>2021-11-18T13:56:37Z</time>
      </trkpt>
      <trkpt lat="44.47556" lon="1.28199">
        <ele>96.1</ele>
        <time>2021-11-18T13:56:41Z</time>
      </trkpt>
      <trkpt lat="44.4755" lon="1.28197">
        <ele>96</ele>
        <time>2021-11-18T13:56:46Z</time>
      </trkpt>
      <trkpt lat="44.47546" lon="1.28195">
        <ele>95.7</ele>
        <time>2021-11-18T13:56:51Z</time>
      </trkpt>
      <trkpt lat="44.47541" lon="1.28193">
        <ele>95.3</ele>
        <time>2021-11-18T13:56:55Z</time>
      </trkpt>
      <trkpt lat="44.47536" lon="1.28189">
        <ele>95.2</ele>
        <time>2021-11-18T13:56:59Z</time>
      </trkpt>
      <trkpt lat="44.47533" lon="1.28184">
        <ele>95.1</ele>
        <time>2021-11-18T13:57:03Z</time>
      </trkpt>
      <trkpt lat="44.4753" lon="1.28178">
        <ele>94.9</ele>
        <time>2021-11-18T13:57:09Z</time>
      </trkpt>
      <trkpt lat="44.47528" lon="1.28172">
        <ele>94.7</ele>
        <time>2021-11-18T13:57:13Z</time>
      </trkpt>
      <trkpt lat="44.47526" lon="1.28165">
        <ele>94.3</ele>
        <time>2021-11-18T13:57:18Z</time>
      </trkpt>
      <trkpt lat="44.47523" lon="1.28159">
        <ele>94</ele>
        <time>2021-11-18T13:57:23Z</time>
      </trkpt>
      <trkpt lat="44.47519" lon="1.28153">
        <ele>93.8</ele>
        <time>2021-11-18T13:57:27Z</time>
      </trkpt>
      <trkpt lat="44.47516" lon="1.28147">
        <ele>94</ele>
        <time>2021-11-18T13:57:30Z</time>
      </trkpt>
      <trkpt lat="44.47514" lon="1.28141">
        <ele>94.2</ele>
        <time>2021-11-18T13:57:33Z</time>
      </trkpt>
      <trkpt lat="44.4751" lon="1.28136">
        <ele>95</ele>
        <time>2021-11-18T13:57:40Z</time>
      </trkpt>
      <trkpt lat="44.47506" lon="1.28132">
        <ele>94.6</ele>
        <time>2021-11-18T13:57:46Z</time>
      </trkpt>
      <trkpt lat="44.47504" lon="1.28127">
        <ele>94.3</ele>
        <time>2021-11-18T13:57:50Z</time>
      </trkpt>
      <trkpt lat="44.47501" lon="1.28121">
        <ele>93.9</ele>
        <time>2021-11-18T13:57:55Z</time>
      </trkpt>
      <trkpt lat="44.47498" lon="1.28115">
        <ele>93.5</ele>
        <time>2021-11-18T13:57:59Z</time>
      </trkpt>
      <trkpt lat="44.47494" lon="1.28111">
        <ele>92.7</ele>
        <time>2021-11-18T13:58:04Z</time>
      </trkpt>
      <trkpt lat="44.47489" lon="1.2811">
        <ele>92</ele>
        <time>2021-11-18T13:58:08Z</time>
      </trkpt>
      <trkpt lat="44.47484" lon="1.28111">
        <ele>91.8</ele>
        <time>2021-11-18T13:58:11Z</time>
      </trkpt>
      <trkpt lat="44.4748" lon="1.28111">
        <ele>91.9</ele>
        <time>2021-11-18T13:58:14Z</time>
      </trkpt>
      <trkpt lat="44.47475" lon="1.28112">
        <ele>92.3</ele>
        <time>2021-11-18T13:58:17Z</time>
      </trkpt>
      <trkpt lat="44.4747" lon="1.28114">
        <ele>93.6</ele>
        <time>2021-11-18T13:58:21Z</time>
      </trkpt>
      <trkpt lat="44.47465" lon="1.28115">
        <ele>95.7</ele>
        <time>2021-11-18T13:58:25Z</time>
      </trkpt>
      <trkpt lat="44.47461" lon="1.28118">
        <ele>98.1</ele>
        <time>2021-11-18T13:58:29Z</time>
      </trkpt>
      <trkpt lat="44.47457" lon="1.2812">
        <ele>100.9</ele>
        <time>2021-11-18T13:58:34Z</time>
      </trkpt>
      <trkpt lat="44.47452" lon="1.28123">
        <ele>102.6</ele>
        <time>2021-11-18T13:58:39Z</time>
      </trkpt>
      <trkpt lat="44.47448" lon="1.28124">
        <ele>103.5</ele>
        <time>2021-11-18T13:58:43Z</time>
      </trkpt>
      <trkpt lat="44.47443" lon="1.28124">
        <ele>104</ele>
        <time>2021-11-18T13:58:49Z</time>
      </trkpt>
      <trkpt lat="44.47437" lon="1.28124">
        <ele>104.5</ele>
        <time>2021-11-18T13:58:54Z</time>
      </trkpt>
      <trkpt lat="44.47432" lon="1.28125">
        <ele>104.8</ele>
        <time>2021-11-18T13:58:59Z</time>
      </trkpt>
      <trkpt lat="44.47428" lon="1.28125">
        <ele>105.3</ele>
        <time>2021-11-18T13:59:06Z</time>
      </trkpt>
      <trkpt lat="44.47422" lon="1.28123">
        <ele>106.2</ele>
        <time>2021-11-18T13:59:11Z</time>
      </trkpt>
      <trkpt lat="44.47417" lon="1.28122">
        <ele>106.8</ele>
        <time>2021-11-18T13:59:15Z</time>
      </trkpt>
      <trkpt lat="44.47412" lon="1.28122">
        <ele>107.6</ele>
        <time>2021-11-18T13:59:19Z</time>
      </trkpt>
      <trkpt lat="44.47407" lon="1.28123">
        <ele>108.4</ele>
        <time>2021-11-18T13:59:23Z</time>
      </trkpt>
      <trkpt lat="44.47402" lon="1.28124">
        <ele>109.4</ele>
        <time>2021-11-18T13:59:27Z</time>
      </trkpt>
      <trkpt lat="44.47397" lon="1.28126">
        <ele>110.5</ele>
        <time>2021-11-18T13:59:32Z</time>
      </trkpt>
      <trkpt lat="44.47393" lon="1.28129">
        <ele>110.8</ele>
        <time>2021-11-18T13:59:36Z</time>
      </trkpt>
      <trkpt lat="44.47388" lon="1.28131">
        <ele>111.2</ele>
        <time>2021-11-18T13:59:39Z</time>
      </trkpt>
      <trkpt lat="44.47383" lon="1.28133">
        <ele>111.8</ele>
        <time>2021-11-18T13:59:43Z</time>
      </trkpt>
      <trkpt lat="44.47378" lon="1.28135">
        <ele>112.4</ele>
        <time>2021-11-18T13:59:47Z</time>
      </trkpt>
      <trkpt lat="44.47372" lon="1.28137">
        <ele>112.9</ele>
        <time>2021-11-18T13:59:51Z</time>
      </trkpt>
      <trkpt lat="44.47367" lon="1.28138">
        <ele>113.4</ele>
        <time>2021-11-18T13:59:56Z</time>
      </trkpt>
      <trkpt lat="44.47362" lon="1.28138">
        <ele>113.5</ele>
        <time>2021-11-18T14:00:00Z</time>
      </trkpt>
      <trkpt lat="44.47357" lon="1.28139">
        <ele>113.2</ele>
        <time>2021-11-18T14:00:05Z</time>
      </trkpt>
      <trkpt lat="44.47352" lon="1.2814">
        <ele>113.2</ele>
        <time>2021-11-18T14:00:09Z</time>
      </trkpt>
      <trkpt lat="44.47347" lon="1.28136">
        <ele>113.8</ele>
        <time>2021-11-18T14:00:16Z</time>
      </trkpt>
      <trkpt lat="44.47342" lon="1.28136">
        <ele>114.1</ele>
        <time>2021-11-18T14:00:20Z</time>
      </trkpt>
      <trkpt lat="44.47337" lon="1.28137">
        <ele>114.2</ele>
        <time>2021-11-18T14:00:23Z</time>
      </trkpt>
      <trkpt lat="44.47333" lon="1.28139">
        <ele>114</ele>
        <time>2021-11-18T14:00:26Z</time>
      </trkpt>
      <trkpt lat="44.47328" lon="1.2814">
        <ele>112.8</ele>
        <time>2021-11-18T14:00:31Z</time>
      </trkpt>
      <trkpt lat="44.47323" lon="1.2814">
        <ele>111.9</ele>
        <time>2021-11-18T14:00:38Z</time>
      </trkpt>
      <trkpt lat="44.47318" lon="1.28142">
        <ele>111.5</ele>
        <time>2021-11-18T14:00:43Z</time>
      </trkpt>
      <trkpt lat="44.47313" lon="1.28144">
        <ele>110.8</ele>
        <time>2021-11-18T14:00:47Z</time>
      </trkpt>
      <trkpt lat="44.47308" lon="1.28144">
        <ele>110.9</ele>
        <time>2021-11-18T14:00:51Z</time>
      </trkpt>
      <trkpt lat="44.47303" lon="1.28145">
        <ele>111.4</ele>
        <time>2021-11-18T14:00:56Z</time>
      </trkpt>
      <trkpt lat="44.47298" lon="1.28146">
        <ele>112</ele>
        <time>2021-11-18T14:01:02Z</time>
      </trkpt>
      <trkpt lat="44.47293" lon="1.28147">
        <ele>112.7</ele>
        <time>2021-11-18T14:01:07Z</time>
      </trkpt>
      <trkpt lat="44.47287" lon="1.28149">
        <ele>113.1</ele>
        <time>2021-11-18T14:01:11Z</time>
      </trkpt>
      <trkpt lat="44.47282" lon="1.28152">
        <ele>113.3</ele>
        <time>2021-11-18T14:01:15Z</time>
      </trkpt>
      <trkpt lat="44.47277" lon="1.28154">
        <ele>113.4</ele>
        <time>2021-11-18T14:01:19Z</time>
      </trkpt>
      <trkpt lat="44.47272" lon="1.28157">
        <ele>113.6</ele>
        <time>2021-11-18T14:01:23Z</time>
      </trkpt>
      <trkpt lat="44.47267" lon="1.28158">
        <ele>114</ele>
        <time>2021-11-18T14:01:26Z</time>
      </trkpt>
      <trkpt lat="44.47263" lon="1.28158">
        <ele>114.4</ele>
        <time>2021-11-18T14:01:29Z</time>
      </trkpt>
      <trkpt lat="44.47258" lon="1.2816">
        <ele>114.8</ele>
        <time>2021-11-18T14:01:33Z</time>
      </trkpt>
      <trkpt lat="44.47253" lon="1.28158">
        <ele>115.3</ele>
        <time>2021-11-18T14:01:37Z</time>
      </trkpt>
      <trkpt lat="44.47248" lon="1.28158">
        <ele>116.3</ele>
        <time>2021-11-18T14:01:43Z</time>
      </trkpt>
      <trkpt lat="44.47244" lon="1.28161">
        <ele>116.8</ele>
        <time>2021-11-18T14:01:48Z</time>
      </trkpt>
      <trkpt lat="44.47239" lon="1.28163">
        <ele>116.9</ele>
        <time>2021-11-18T14:01:52Z</time>
      </trkpt>
      <trkpt lat="44.47235" lon="1.28164">
        <ele>117</ele>
        <time>2021-11-18T14:01:56Z</time>
      </trkpt>
      <trkpt lat="44.4723" lon="1.28165">
        <ele>117</ele>
        <time>2021-11-18T14:02:00Z</time>
      </trkpt>
      <trkpt lat="44.47224" lon="1.28165">
        <ele>117.6</ele>
        <time>2021-11-18T14:02:05Z</time>
      </trkpt>
      <trkpt lat="44.4722" lon="1.28167">
        <ele>118.1</ele>
        <time>2021-11-18T14:02:10Z</time>
      </trkpt>
      <trkpt lat="44.47215" lon="1.28168">
        <ele>118.1</ele>
        <time>2021-11-18T14:02:14Z</time>
      </trkpt>
      <trkpt lat="44.4721" lon="1.28169">
        <ele>117.6</ele>
        <time>2021-11-18T14:02:19Z</time>
      </trkpt>
      <trkpt lat="44.47205" lon="1.28169">
        <ele>117.4</ele>
        <time>2021-11-18T14:02:23Z</time>
      </trkpt>
      <trkpt lat="44.472" lon="1.28171">
        <ele>117.5</ele>
        <time>2021-11-18T14:02:28Z</time>
      </trkpt>
      <trkpt lat="44.47195" lon="1.2817">
        <ele>117.8</ele>
        <time>2021-11-18T14:02:33Z</time>
      </trkpt>
      <trkpt lat="44.47191" lon="1.28166">
        <ele>117.9</ele>
        <time>2021-11-18T14:02:38Z</time>
      </trkpt>
      <trkpt lat="44.47187" lon="1.28162">
        <ele>117.7</ele>
        <time>2021-11-18T14:02:44Z</time>
      </trkpt>
      <trkpt lat="44.47183" lon="1.28159">
        <ele>117.1</ele>
        <time>2021-11-18T14:02:49Z</time>
      </trkpt>
      <trkpt lat="44.47179" lon="1.28158">
        <ele>116</ele>
        <time>2021-11-18T14:02:56Z</time>
      </trkpt>
      <trkpt lat="44.47176" lon="1.28152">
        <ele>114.8</ele>
        <time>2021-11-18T14:03:00Z</time>
      </trkpt>
      <trkpt lat="44.47171" lon="1.28155">
        <ele>113.3</ele>
        <time>2021-11-18T14:03:06Z</time>
      </trkpt>
      <trkpt lat="44.47165" lon="1.28159">
        <ele>112.5</ele>
        <time>2021-11-18T14:03:09Z</time>
      </trkpt>
      <trkpt lat="44.47156" lon="1.28165">
        <ele>112.3</ele>
        <time>2021-11-18T14:03:12Z</time>
      </trkpt>
      <trkpt lat="44.47149" lon="1.28168">
        <ele>112.1</ele>
        <time>2021-11-18T14:03:15Z</time>
      </trkpt>
      <trkpt lat="44.47144" lon="1.28171">
        <ele>112</ele>
        <time>2021-11-18T14:03:18Z</time>
      </trkpt>
      <trkpt lat="44.47138" lon="1.28173">
        <ele>111.9</ele>
        <time>2021-11-18T14:03:21Z</time>
      </trkpt>
      <trkpt lat="44.47132" lon="1.28176">
        <ele>111.8</ele>
        <time>2021-11-18T14:03:24Z</time>
      </trkpt>
      <trkpt lat="44.47127" lon="1.28178">
        <ele>111.5</ele>
        <time>2021-11-18T14:03:28Z</time>
      </trkpt>
      <trkpt lat="44.47122" lon="1.28181">
        <ele>110.3</ele>
        <time>2021-11-18T14:03:34Z</time>
      </trkpt>
      <trkpt lat="44.47125" lon="1.28174">
        <ele>107.9</ele>
        <time>2021-11-18T14:03:45Z</time>
      </trkpt>
      <trkpt lat="44.4713" lon="1.28173">
        <ele>106.5</ele>
        <time>2021-11-18T14:03:50Z</time>
      </trkpt>
      <trkpt lat="44.47134" lon="1.28172">
        <ele>105.2</ele>
        <time>2021-11-18T14:03:54Z</time>
      </trkpt>
      <trkpt lat="44.47139" lon="1.28173">
        <ele>103.2</ele>
        <time>2021-11-18T14:04:00Z</time>
      </trkpt>
      <trkpt lat="44.47145" lon="1.28174">
        <ele>101.1</ele>
        <time>2021-11-18T14:04:06Z</time>
      </trkpt>
      <trkpt lat="44.47149" lon="1.28176">
        <ele>99.1</ele>
        <time>2021-11-18T14:04:12Z</time>
      </trkpt>
      <trkpt lat="44.47153" lon="1.28171">
        <ele>96.8</ele>
        <time>2021-11-18T14:04:22Z</time>
      </trkpt>
      <trkpt lat="44.47151" lon="1.28178">
        <ele>96.2</ele>
        <time>2021-11-18T14:04:31Z</time>
      </trkpt>
      <trkpt lat="44.47146" lon="1.28177">
        <ele>99.2</ele>
        <time>2021-11-18T14:04:44Z</time>
      </trkpt>
      <trkpt lat="44.47141" lon="1.28176">
        <ele>99.9</ele>
        <time>2021-11-18T14:04:49Z</time>
      </trkpt>
      <trkpt lat="44.47137" lon="1.28176">
        <ele>100.4</ele>
        <time>2021-11-18T14:04:53Z</time>
      </trkpt>
      <trkpt lat="44.47132" lon="1.28179">
        <ele>101.8</ele>
        <time>2021-11-18T14:04:58Z</time>
      </trkpt>
      <trkpt lat="44.47127" lon="1.28179">
        <ele>103.2</ele>
        <time>2021-11-18T14:05:03Z</time>
      </trkpt>
      <trkpt lat="44.47123" lon="1.28178">
        <ele>104.8</ele>
        <time>2021-11-18T14:05:08Z</time>
      </trkpt>
      <trkpt lat="44.47118" lon="1.28176">
        <ele>106.1</ele>
        <time>2021-11-18T14:05:13Z</time>
      </trkpt>
      <trkpt lat="44.47113" lon="1.28177">
        <ele>106.8</ele>
        <time>2021-11-18T14:05:18Z</time>
      </trkpt>
      <trkpt lat="44.47109" lon="1.28179">
        <ele>107.9</ele>
        <time>2021-11-18T14:05:23Z</time>
      </trkpt>
      <trkpt lat="44.47103" lon="1.2818">
        <ele>108.4</ele>
        <time>2021-11-18T14:05:29Z</time>
      </trkpt>
      <trkpt lat="44.47099" lon="1.2818">
        <ele>108.8</ele>
        <time>2021-11-18T14:05:34Z</time>
      </trkpt>
      <trkpt lat="44.47094" lon="1.28181">
        <ele>108.9</ele>
        <time>2021-11-18T14:05:38Z</time>
      </trkpt>
      <trkpt lat="44.4709" lon="1.28185">
        <ele>109</ele>
        <time>2021-11-18T14:05:42Z</time>
      </trkpt>
      <trkpt lat="44.47085" lon="1.28187">
        <ele>108.7</ele>
        <time>2021-11-18T14:05:47Z</time>
      </trkpt>
      <trkpt lat="44.4708" lon="1.28188">
        <ele>108.1</ele>
        <time>2021-11-18T14:05:51Z</time>
      </trkpt>
      <trkpt lat="44.47075" lon="1.28187">
        <ele>107.2</ele>
        <time>2021-11-18T14:05:55Z</time>
      </trkpt>
      <trkpt lat="44.47071" lon="1.28184">
        <ele>105.8</ele>
        <time>2021-11-18T14:06:00Z</time>
      </trkpt>
      <trkpt lat="44.47067" lon="1.28181">
        <ele>104.7</ele>
        <time>2021-11-18T14:06:05Z</time>
      </trkpt>
      <trkpt lat="44.47062" lon="1.2818">
        <ele>104.3</ele>
        <time>2021-11-18T14:06:10Z</time>
      </trkpt>
      <trkpt lat="44.47057" lon="1.28183">
        <ele>104</ele>
        <time>2021-11-18T14:06:14Z</time>
      </trkpt>
      <trkpt lat="44.47053" lon="1.28187">
        <ele>104.2</ele>
        <time>2021-11-18T14:06:18Z</time>
      </trkpt>
      <trkpt lat="44.47049" lon="1.2819">
        <ele>104.7</ele>
        <time>2021-11-18T14:06:22Z</time>
      </trkpt>
      <trkpt lat="44.47044" lon="1.28192">
        <ele>105.1</ele>
        <time>2021-11-18T14:06:26Z</time>
      </trkpt>
      <trkpt lat="44.4704" lon="1.28191">
        <ele>105.4</ele>
        <time>2021-11-18T14:06:30Z</time>
      </trkpt>
      <trkpt lat="44.47035" lon="1.28188">
        <ele>105.3</ele>
        <time>2021-11-18T14:06:34Z</time>
      </trkpt>
      <trkpt lat="44.4703" lon="1.28187">
        <ele>105.3</ele>
        <time>2021-11-18T14:06:38Z</time>
      </trkpt>
      <trkpt lat="44.47026" lon="1.2819">
        <ele>105.1</ele>
        <time>2021-11-18T14:06:41Z</time>
      </trkpt>
      <trkpt lat="44.47021" lon="1.28194">
        <ele>104.9</ele>
        <time>2021-11-18T14:06:44Z</time>
      </trkpt>
      <trkpt lat="44.47018" lon="1.28198">
        <ele>104.6</ele>
        <time>2021-11-18T14:06:47Z</time>
      </trkpt>
      <trkpt lat="44.47013" lon="1.28198">
        <ele>104.2</ele>
        <time>2021-11-18T14:06:52Z</time>
      </trkpt>
      <trkpt lat="44.47008" lon="1.28195">
        <ele>103.3</ele>
        <time>2021-11-18T14:06:57Z</time>
      </trkpt>
      <trkpt lat="44.47003" lon="1.28195">
        <ele>102.2</ele>
        <time>2021-11-18T14:07:02Z</time>
      </trkpt>
      <trkpt lat="44.46998" lon="1.28195">
        <ele>101.2</ele>
        <time>2021-11-18T14:07:07Z</time>
      </trkpt>
      <trkpt lat="44.46993" lon="1.28196">
        <ele>100.5</ele>
        <time>2021-11-18T14:07:13Z</time>
      </trkpt>
      <trkpt lat="44.46988" lon="1.28197">
        <ele>100.8</ele>
        <time>2021-11-18T14:07:18Z</time>
      </trkpt>
      <trkpt lat="44.46984" lon="1.28198">
        <ele>101.5</ele>
        <time>2021-11-18T14:07:23Z</time>
      </trkpt>
      <trkpt lat="44.46978" lon="1.28199">
        <ele>102.1</ele>
        <time>2021-11-18T14:07:27Z</time>
      </trkpt>
      <trkpt lat="44.46973" lon="1.28198">
        <ele>102.7</ele>
        <time>2021-11-18T14:07:31Z</time>
      </trkpt>
      <trkpt lat="44.46968" lon="1.28197">
        <ele>103.2</ele>
        <time>2021-11-18T14:07:35Z</time>
      </trkpt>
      <trkpt lat="44.46963" lon="1.28196">
        <ele>103.7</ele>
        <time>2021-11-18T14:07:39Z</time>
      </trkpt>
      <trkpt lat="44.46958" lon="1.28197">
        <ele>104.3</ele>
        <time>2021-11-18T14:07:44Z</time>
      </trkpt>
      <trkpt lat="44.46953" lon="1.28198">
        <ele>105.1</ele>
        <time>2021-11-18T14:07:49Z</time>
      </trkpt>
      <trkpt lat="44.46947" lon="1.28198">
        <ele>106.2</ele>
        <time>2021-11-18T14:07:54Z</time>
      </trkpt>
      <trkpt lat="44.46943" lon="1.28198">
        <ele>107.1</ele>
        <time>2021-11-18T14:07:58Z</time>
      </trkpt>
      <trkpt lat="44.46938" lon="1.28196">
        <ele>107.8</ele>
        <time>2021-11-18T14:08:02Z</time>
      </trkpt>
      <trkpt lat="44.46933" lon="1.28195">
        <ele>108.4</ele>
        <time>2021-11-18T14:08:06Z</time>
      </trkpt>
      <trkpt lat="44.46929" lon="1.28198">
        <ele>109.3</ele>
        <time>2021-11-18T14:08:16Z</time>
      </trkpt>
      <trkpt lat="44.46926" lon="1.28203">
        <ele>109.9</ele>
        <time>2021-11-18T14:08:27Z</time>
      </trkpt>
      <trkpt lat="44.46922" lon="1.28207">
        <ele>110.2</ele>
        <time>2021-11-18T14:08:32Z</time>
      </trkpt>
      <trkpt lat="44.46917" lon="1.28211">
        <ele>110.5</ele>
        <time>2021-11-18T14:08:38Z</time>
      </trkpt>
      <trkpt lat="44.46913" lon="1.28216">
        <ele>110.3</ele>
        <time>2021-11-18T14:08:43Z</time>
      </trkpt>
      <trkpt lat="44.46912" lon="1.28222">
        <ele>109.1</ele>
        <time>2021-11-18T14:08:54Z</time>
      </trkpt>
      <trkpt lat="44.46907" lon="1.28222">
        <ele>108.3</ele>
        <time>2021-11-18T14:09:05Z</time>
      </trkpt>
      <trkpt lat="44.46902" lon="1.2822">
        <ele>107.8</ele>
        <time>2021-11-18T14:09:10Z</time>
      </trkpt>
      <trkpt lat="44.46898" lon="1.28219">
        <ele>107.3</ele>
        <time>2021-11-18T14:09:18Z</time>
      </trkpt>
      <trkpt lat="44.46893" lon="1.28215">
        <ele>106.6</ele>
        <time>2021-11-18T14:09:26Z</time>
      </trkpt>
      <trkpt lat="44.46889" lon="1.28212">
        <ele>106.4</ele>
        <time>2021-11-18T14:09:31Z</time>
      </trkpt>
      <trkpt lat="44.46884" lon="1.28211">
        <ele>106.5</ele>
        <time>2021-11-18T14:09:36Z</time>
      </trkpt>
      <trkpt lat="44.46879" lon="1.2821">
        <ele>106.4</ele>
        <time>2021-11-18T14:09:41Z</time>
      </trkpt>
      <trkpt lat="44.46874" lon="1.28209">
        <ele>106.4</ele>
        <time>2021-11-18T14:09:46Z</time>
      </trkpt>
      <trkpt lat="44.46869" lon="1.28209">
        <ele>106.3</ele>
        <time>2021-11-18T14:09:53Z</time>
      </trkpt>
      <trkpt lat="44.46865" lon="1.28211">
        <ele>104.3</ele>
        <time>2021-11-18T14:10:18Z</time>
      </trkpt>
      <trkpt lat="44.4686" lon="1.28211">
        <ele>103.5</ele>
        <time>2021-11-18T14:10:23Z</time>
      </trkpt>
      <trkpt lat="44.46855" lon="1.28212">
        <ele>103.4</ele>
        <time>2021-11-18T14:10:28Z</time>
      </trkpt>
      <trkpt lat="44.46851" lon="1.28211">
        <ele>103.6</ele>
        <time>2021-11-18T14:10:33Z</time>
      </trkpt>
      <trkpt lat="44.46848" lon="1.28206">
        <ele>104</ele>
        <time>2021-11-18T14:10:38Z</time>
      </trkpt>
      <trkpt lat="44.46844" lon="1.28211">
        <ele>104.5</ele>
        <time>2021-11-18T14:10:45Z</time>
      </trkpt>
      <trkpt lat="44.46852" lon="1.28206">
        <ele>102.2</ele>
        <time>2021-11-18T14:11:14Z</time>
      </trkpt>
      <trkpt lat="44.46848" lon="1.2821">
        <ele>94.6</ele>
        <time>2021-11-18T14:11:28Z</time>
      </trkpt>
      <trkpt lat="44.46844" lon="1.28209">
        <ele>94.2</ele>
        <time>2021-11-18T14:11:33Z</time>
      </trkpt>
      <trkpt lat="44.46839" lon="1.28207">
        <ele>93.8</ele>
        <time>2021-11-18T14:11:38Z</time>
      </trkpt>
      <trkpt lat="44.46834" lon="1.28209">
        <ele>93.7</ele>
        <time>2021-11-18T14:11:44Z</time>
      </trkpt>
      <trkpt lat="44.46828" lon="1.28211">
        <ele>93.4</ele>
        <time>2021-11-18T14:11:50Z</time>
      </trkpt>
      <trkpt lat="44.46823" lon="1.28213">
        <ele>93.1</ele>
        <time>2021-11-18T14:11:55Z</time>
      </trkpt>
      <trkpt lat="44.46818" lon="1.28215">
        <ele>92.5</ele>
        <time>2021-11-18T14:11:59Z</time>
      </trkpt>
      <trkpt lat="44.46814" lon="1.28214">
        <ele>91.4</ele>
        <time>2021-11-18T14:12:04Z</time>
      </trkpt>
      <trkpt lat="44.46808" lon="1.28217">
        <ele>90.6</ele>
        <time>2021-11-18T14:12:08Z</time>
      </trkpt>
      <trkpt lat="44.46803" lon="1.28223">
        <ele>90</ele>
        <time>2021-11-18T14:12:11Z</time>
      </trkpt>
      <trkpt lat="44.46798" lon="1.28225">
        <ele>89.4</ele>
        <time>2021-11-18T14:12:15Z</time>
      </trkpt>
      <trkpt lat="44.46793" lon="1.28224">
        <ele>89.4</ele>
        <time>2021-11-18T14:12:19Z</time>
      </trkpt>
      <trkpt lat="44.46788" lon="1.28222">
        <ele>90</ele>
        <time>2021-11-18T14:12:23Z</time>
      </trkpt>
      <trkpt lat="44.46783" lon="1.2822">
        <ele>90.3</ele>
        <time>2021-11-18T14:12:27Z</time>
      </trkpt>
      <trkpt lat="44.46778" lon="1.28217">
        <ele>90.5</ele>
        <time>2021-11-18T14:12:31Z</time>
      </trkpt>
      <trkpt lat="44.46773" lon="1.28218">
        <ele>90</ele>
        <time>2021-11-18T14:12:37Z</time>
      </trkpt>
      <trkpt lat="44.46768" lon="1.28219">
        <ele>89.3</ele>
        <time>2021-11-18T14:12:44Z</time>
      </trkpt>
      <trkpt lat="44.46764" lon="1.28218">
        <ele>88.1</ele>
        <time>2021-11-18T14:12:49Z</time>
      </trkpt>
      <trkpt lat="44.46758" lon="1.28218">
        <ele>87.1</ele>
        <time>2021-11-18T14:12:55Z</time>
      </trkpt>
      <trkpt lat="44.46753" lon="1.28215">
        <ele>86.4</ele>
        <time>2021-11-18T14:13:00Z</time>
      </trkpt>
      <trkpt lat="44.46748" lon="1.28214">
        <ele>86.1</ele>
        <time>2021-11-18T14:13:05Z</time>
      </trkpt>
      <trkpt lat="44.46743" lon="1.28215">
        <ele>86.6</ele>
        <time>2021-11-18T14:13:09Z</time>
      </trkpt>
      <trkpt lat="44.46738" lon="1.28215">
        <ele>87.5</ele>
        <time>2021-11-18T14:13:13Z</time>
      </trkpt>
      <trkpt lat="44.46733" lon="1.28217">
        <ele>88.3</ele>
        <time>2021-11-18T14:13:16Z</time>
      </trkpt>
      <trkpt lat="44.46728" lon="1.28218">
        <ele>89</ele>
        <time>2021-11-18T14:13:20Z</time>
      </trkpt>
      <trkpt lat="44.46722" lon="1.28219">
        <ele>89.8</ele>
        <time>2021-11-18T14:13:24Z</time>
      </trkpt>
      <trkpt lat="44.46717" lon="1.28221">
        <ele>90.5</ele>
        <time>2021-11-18T14:13:28Z</time>
      </trkpt>
      <trkpt lat="44.46712" lon="1.28221">
        <ele>91.7</ele>
        <time>2021-11-18T14:13:34Z</time>
      </trkpt>
      <trkpt lat="44.46707" lon="1.2822">
        <ele>93.5</ele>
        <time>2021-11-18T14:13:40Z</time>
      </trkpt>
      <trkpt lat="44.46701" lon="1.28219">
        <ele>94.5</ele>
        <time>2021-11-18T14:13:45Z</time>
      </trkpt>
      <trkpt lat="44.46697" lon="1.28222">
        <ele>95.1</ele>
        <time>2021-11-18T14:13:50Z</time>
      </trkpt>
      <trkpt lat="44.46693" lon="1.28224">
        <ele>95.2</ele>
        <time>2021-11-18T14:13:54Z</time>
      </trkpt>
      <trkpt lat="44.46688" lon="1.28225">
        <ele>95.2</ele>
        <time>2021-11-18T14:14:03Z</time>
      </trkpt>
      <trkpt lat="44.46682" lon="1.28225">
        <ele>95.3</ele>
        <time>2021-11-18T14:14:08Z</time>
      </trkpt>
      <trkpt lat="44.46677" lon="1.28224">
        <ele>95.7</ele>
        <time>2021-11-18T14:14:17Z</time>
      </trkpt>
      <trkpt lat="44.46672" lon="1.28225">
        <ele>95.8</ele>
        <time>2021-11-18T14:14:23Z</time>
      </trkpt>
      <trkpt lat="44.46667" lon="1.28223">
        <ele>95.8</ele>
        <time>2021-11-18T14:14:27Z</time>
      </trkpt>
      <trkpt lat="44.46663" lon="1.2822">
        <ele>95.9</ele>
        <time>2021-11-18T14:14:32Z</time>
      </trkpt>
      <trkpt lat="44.46658" lon="1.28216">
        <ele>96.1</ele>
        <time>2021-11-18T14:14:38Z</time>
      </trkpt>
      <trkpt lat="44.46653" lon="1.28217">
        <ele>96.6</ele>
        <time>2021-11-18T14:14:43Z</time>
      </trkpt>
      <trkpt lat="44.46648" lon="1.28218">
        <ele>96.6</ele>
        <time>2021-11-18T14:14:49Z</time>
      </trkpt>
      <trkpt lat="44.46644" lon="1.28218">
        <ele>96.6</ele>
        <time>2021-11-18T14:14:54Z</time>
      </trkpt>
      <trkpt lat="44.46639" lon="1.28219">
        <ele>96.6</ele>
        <time>2021-11-18T14:14:58Z</time>
      </trkpt>
      <trkpt lat="44.46635" lon="1.28222">
        <ele>96</ele>
        <time>2021-11-18T14:15:02Z</time>
      </trkpt>
      <trkpt lat="44.46629" lon="1.28225">
        <ele>95.4</ele>
        <time>2021-11-18T14:15:07Z</time>
      </trkpt>
      <trkpt lat="44.46625" lon="1.28226">
        <ele>95.3</ele>
        <time>2021-11-18T14:15:11Z</time>
      </trkpt>
      <trkpt lat="44.4662" lon="1.28229">
        <ele>94.9</ele>
        <time>2021-11-18T14:15:15Z</time>
      </trkpt>
      <trkpt lat="44.46616" lon="1.28232">
        <ele>94.8</ele>
        <time>2021-11-18T14:15:19Z</time>
      </trkpt>
      <trkpt lat="44.46611" lon="1.28232">
        <ele>95</ele>
        <time>2021-11-18T14:15:24Z</time>
      </trkpt>
      <trkpt lat="44.46606" lon="1.28233">
        <ele>95</ele>
        <time>2021-11-18T14:15:30Z</time>
      </trkpt>
      <trkpt lat="44.46601" lon="1.28233">
        <ele>94.5</ele>
        <time>2021-11-18T14:15:35Z</time>
      </trkpt>
      <trkpt lat="44.46596" lon="1.28234">
        <ele>93.2</ele>
        <time>2021-11-18T14:15:40Z</time>
      </trkpt>
      <trkpt lat="44.4659" lon="1.28236">
        <ele>92.1</ele>
        <time>2021-11-18T14:15:44Z</time>
      </trkpt>
      <trkpt lat="44.46585" lon="1.28238">
        <ele>90.7</ele>
        <time>2021-11-18T14:15:49Z</time>
      </trkpt>
      <trkpt lat="44.46581" lon="1.28239">
        <ele>89.2</ele>
        <time>2021-11-18T14:15:55Z</time>
      </trkpt>
      <trkpt lat="44.46575" lon="1.28242">
        <ele>87.6</ele>
        <time>2021-11-18T14:16:02Z</time>
      </trkpt>
      <trkpt lat="44.4657" lon="1.28242">
        <ele>87.3</ele>
        <time>2021-11-18T14:16:06Z</time>
      </trkpt>
      <trkpt lat="44.46565" lon="1.28244">
        <ele>87</ele>
        <time>2021-11-18T14:16:10Z</time>
      </trkpt>
      <trkpt lat="44.46561" lon="1.28248">
        <ele>86.6</ele>
        <time>2021-11-18T14:16:16Z</time>
      </trkpt>
      <trkpt lat="44.46557" lon="1.28251">
        <ele>87.1</ele>
        <time>2021-11-18T14:16:24Z</time>
      </trkpt>
      <trkpt lat="44.46552" lon="1.28253">
        <ele>87.4</ele>
        <time>2021-11-18T14:16:28Z</time>
      </trkpt>
      <trkpt lat="44.46547" lon="1.28256">
        <ele>87.7</ele>
        <time>2021-11-18T14:16:32Z</time>
      </trkpt>
      <trkpt lat="44.46543" lon="1.28262">
        <ele>88.2</ele>
        <time>2021-11-18T14:16:37Z</time>
      </trkpt>
      <trkpt lat="44.46539" lon="1.28266">
        <ele>88.4</ele>
        <time>2021-11-18T14:16:41Z</time>
      </trkpt>
      <trkpt lat="44.46534" lon="1.28269">
        <ele>88.2</ele>
        <time>2021-11-18T14:16:48Z</time>
      </trkpt>
      <trkpt lat="44.4653" lon="1.28272">
        <ele>88</ele>
        <time>2021-11-18T14:16:55Z</time>
      </trkpt>
      <trkpt lat="44.46526" lon="1.28276">
        <ele>88.4</ele>
        <time>2021-11-18T14:16:59Z</time>
      </trkpt>
      <trkpt lat="44.46523" lon="1.28281">
        <ele>88.9</ele>
        <time>2021-11-18T14:17:03Z</time>
      </trkpt>
      <trkpt lat="44.4652" lon="1.28286">
        <ele>89.7</ele>
        <time>2021-11-18T14:17:08Z</time>
      </trkpt>
      <trkpt lat="44.46515" lon="1.28285">
        <ele>90.8</ele>
        <time>2021-11-18T14:17:16Z</time>
      </trkpt>
      <trkpt lat="44.46515" lon="1.28279">
        <ele>91.2</ele>
        <time>2021-11-18T14:17:22Z</time>
      </trkpt>
      <trkpt lat="44.4651" lon="1.28276">
        <ele>91.5</ele>
        <time>2021-11-18T14:17:31Z</time>
      </trkpt>
      <trkpt lat="44.46505" lon="1.28279">
        <ele>92.2</ele>
        <time>2021-11-18T14:17:36Z</time>
      </trkpt>
      <trkpt lat="44.46501" lon="1.28277">
        <ele>92.9</ele>
        <time>2021-11-18T14:17:49Z</time>
      </trkpt>
      <trkpt lat="44.46496" lon="1.28278">
        <ele>93.2</ele>
        <time>2021-11-18T14:18:00Z</time>
      </trkpt>
      <trkpt lat="44.46491" lon="1.2828">
        <ele>91.9</ele>
        <time>2021-11-18T14:18:05Z</time>
      </trkpt>
      <trkpt lat="44.46486" lon="1.28282">
        <ele>89.9</ele>
        <time>2021-11-18T14:18:10Z</time>
      </trkpt>
      <trkpt lat="44.46481" lon="1.28283">
        <ele>87.7</ele>
        <time>2021-11-18T14:18:17Z</time>
      </trkpt>
      <trkpt lat="44.46477" lon="1.28286">
        <ele>86.7</ele>
        <time>2021-11-18T14:18:31Z</time>
      </trkpt>
      <trkpt lat="44.46474" lon="1.28291">
        <ele>86.9</ele>
        <time>2021-11-18T14:18:36Z</time>
      </trkpt>
      <trkpt lat="44.46472" lon="1.28297">
        <ele>87.6</ele>
        <time>2021-11-18T14:18:57Z</time>
      </trkpt>
      <trkpt lat="44.46469" lon="1.28302">
        <ele>88.5</ele>
        <time>2021-11-18T14:19:09Z</time>
      </trkpt>
      <trkpt lat="44.46466" lon="1.28307">
        <ele>88.3</ele>
        <time>2021-11-18T14:19:17Z</time>
      </trkpt>
      <trkpt lat="44.4646" lon="1.28307">
        <ele>87.2</ele>
        <time>2021-11-18T14:19:40Z</time>
      </trkpt>
      <trkpt lat="44.46456" lon="1.28309">
        <ele>85.3</ele>
        <time>2021-11-18T14:19:46Z</time>
      </trkpt>
      <trkpt lat="44.46451" lon="1.28311">
        <ele>84</ele>
        <time>2021-11-18T14:19:53Z</time>
      </trkpt>
      <trkpt lat="44.46444" lon="1.28314">
        <ele>82.5</ele>
        <time>2021-11-18T14:20:01Z</time>
      </trkpt>
      <trkpt lat="44.46439" lon="1.28318">
        <ele>81.9</ele>
        <time>2021-11-18T14:20:05Z</time>
      </trkpt>
      <trkpt lat="44.46435" lon="1.28321">
        <ele>81.3</ele>
        <time>2021-11-18T14:20:10Z</time>
      </trkpt>
      <trkpt lat="44.4643" lon="1.28325">
        <ele>80.9</ele>
        <time>2021-11-18T14:20:14Z</time>
      </trkpt>
      <trkpt lat="44.46426" lon="1.2833">
        <ele>81.1</ele>
        <time>2021-11-18T14:20:19Z</time>
      </trkpt>
      <trkpt lat="44.46423" lon="1.28335">
        <ele>81.7</ele>
        <time>2021-11-18T14:20:24Z</time>
      </trkpt>
      <trkpt lat="44.46419" lon="1.2834">
        <ele>82.5</ele>
        <time>2021-11-18T14:20:32Z</time>
      </trkpt>
      <trkpt lat="44.46414" lon="1.28342">
        <ele>82.3</ele>
        <time>2021-11-18T14:20:39Z</time>
      </trkpt>
      <trkpt lat="44.46409" lon="1.28343">
        <ele>82</ele>
        <time>2021-11-18T14:20:44Z</time>
      </trkpt>
      <trkpt lat="44.46404" lon="1.28346">
        <ele>81.8</ele>
        <time>2021-11-18T14:20:48Z</time>
      </trkpt>
      <trkpt lat="44.464" lon="1.28351">
        <ele>81.8</ele>
        <time>2021-11-18T14:20:52Z</time>
      </trkpt>
      <trkpt lat="44.46397" lon="1.28355">
        <ele>81.7</ele>
        <time>2021-11-18T14:20:56Z</time>
      </trkpt>
      <trkpt lat="44.46393" lon="1.28359">
        <ele>81.3</ele>
        <time>2021-11-18T14:21:03Z</time>
      </trkpt>
      <trkpt lat="44.46387" lon="1.28359">
        <ele>81.3</ele>
        <time>2021-11-18T14:21:10Z</time>
      </trkpt>
      <trkpt lat="44.46383" lon="1.28363">
        <ele>81.3</ele>
        <time>2021-11-18T14:21:15Z</time>
      </trkpt>
      <trkpt lat="44.4638" lon="1.28368">
        <ele>81.6</ele>
        <time>2021-11-18T14:21:20Z</time>
      </trkpt>
      <trkpt lat="44.46377" lon="1.28373">
        <ele>84.6</ele>
        <time>2021-11-18T14:21:31Z</time>
      </trkpt>
      <trkpt lat="44.46375" lon="1.2838">
        <ele>86.6</ele>
        <time>2021-11-18T14:21:38Z</time>
      </trkpt>
      <trkpt lat="44.46372" lon="1.28385">
        <ele>88.3</ele>
        <time>2021-11-18T14:21:47Z</time>
      </trkpt>
      <trkpt lat="44.46368" lon="1.2839">
        <ele>88.4</ele>
        <time>2021-11-18T14:21:53Z</time>
      </trkpt>
      <trkpt lat="44.46366" lon="1.28395">
        <ele>88.3</ele>
        <time>2021-11-18T14:21:59Z</time>
      </trkpt>
      <trkpt lat="44.46361" lon="1.28399">
        <ele>87.9</ele>
        <time>2021-11-18T14:22:10Z</time>
      </trkpt>
      <trkpt lat="44.46357" lon="1.28404">
        <ele>87.7</ele>
        <time>2021-11-18T14:22:14Z</time>
      </trkpt>
      <trkpt lat="44.46354" lon="1.28408">
        <ele>87.3</ele>
        <time>2021-11-18T14:22:19Z</time>
      </trkpt>
      <trkpt lat="44.4635" lon="1.28415">
        <ele>87.5</ele>
        <time>2021-11-18T14:22:23Z</time>
      </trkpt>
      <trkpt lat="44.46347" lon="1.28422">
        <ele>87.9</ele>
        <time>2021-11-18T14:22:27Z</time>
      </trkpt>
      <trkpt lat="44.46344" lon="1.28427">
        <ele>88.5</ele>
        <time>2021-11-18T14:22:31Z</time>
      </trkpt>
      <trkpt lat="44.4634" lon="1.28431">
        <ele>88.9</ele>
        <time>2021-11-18T14:22:36Z</time>
      </trkpt>
      <trkpt lat="44.46336" lon="1.28436">
        <ele>89</ele>
        <time>2021-11-18T14:22:40Z</time>
      </trkpt>
      <trkpt lat="44.46332" lon="1.28439">
        <ele>89</ele>
        <time>2021-11-18T14:22:46Z</time>
      </trkpt>
      <trkpt lat="44.46328" lon="1.28444">
        <ele>89.2</ele>
        <time>2021-11-18T14:22:50Z</time>
      </trkpt>
      <trkpt lat="44.46325" lon="1.28448">
        <ele>89.3</ele>
        <time>2021-11-18T14:22:54Z</time>
      </trkpt>
      <trkpt lat="44.4632" lon="1.28453">
        <ele>89.2</ele>
        <time>2021-11-18T14:23:00Z</time>
      </trkpt>
      <trkpt lat="44.46318" lon="1.28459">
        <ele>89.2</ele>
        <time>2021-11-18T14:23:08Z</time>
      </trkpt>
      <trkpt lat="44.46315" lon="1.28463">
        <ele>89.3</ele>
        <time>2021-11-18T14:23:12Z</time>
      </trkpt>
      <trkpt lat="44.4631" lon="1.28465">
        <ele>89.2</ele>
        <time>2021-11-18T14:23:17Z</time>
      </trkpt>
      <trkpt lat="44.46307" lon="1.2847">
        <ele>88.6</ele>
        <time>2021-11-18T14:23:22Z</time>
      </trkpt>
      <trkpt lat="44.46303" lon="1.28476">
        <ele>87.7</ele>
        <time>2021-11-18T14:23:28Z</time>
      </trkpt>
      <trkpt lat="44.463" lon="1.28482">
        <ele>86.6</ele>
        <time>2021-11-18T14:23:33Z</time>
      </trkpt>
      <trkpt lat="44.46297" lon="1.28487">
        <ele>85.7</ele>
        <time>2021-11-18T14:23:38Z</time>
      </trkpt>
      <trkpt lat="44.46293" lon="1.28491">
        <ele>85.2</ele>
        <time>2021-11-18T14:23:45Z</time>
      </trkpt>
      <trkpt lat="44.46288" lon="1.28492">
        <ele>84.9</ele>
        <time>2021-11-18T14:23:52Z</time>
      </trkpt>
      <trkpt lat="44.46285" lon="1.28498">
        <ele>84.5</ele>
        <time>2021-11-18T14:23:58Z</time>
      </trkpt>
      <trkpt lat="44.46282" lon="1.28503">
        <ele>84.1</ele>
        <time>2021-11-18T14:24:01Z</time>
      </trkpt>
      <trkpt lat="44.46279" lon="1.28509">
        <ele>83.7</ele>
        <time>2021-11-18T14:24:04Z</time>
      </trkpt>
      <trkpt lat="44.46276" lon="1.28514">
        <ele>83.2</ele>
        <time>2021-11-18T14:24:08Z</time>
      </trkpt>
      <trkpt lat="44.46272" lon="1.28519">
        <ele>82.4</ele>
        <time>2021-11-18T14:24:14Z</time>
      </trkpt>
      <trkpt lat="44.46269" lon="1.28524">
        <ele>81.9</ele>
        <time>2021-11-18T14:24:22Z</time>
      </trkpt>
      <trkpt lat="44.46264" lon="1.28528">
        <ele>81.2</ele>
        <time>2021-11-18T14:24:27Z</time>
      </trkpt>
      <trkpt lat="44.4626" lon="1.28531">
        <ele>80.7</ele>
        <time>2021-11-18T14:24:37Z</time>
      </trkpt>
      <trkpt lat="44.46256" lon="1.28536">
        <ele>80.6</ele>
        <time>2021-11-18T14:24:42Z</time>
      </trkpt>
      <trkpt lat="44.46252" lon="1.2854">
        <ele>80.4</ele>
        <time>2021-11-18T14:24:46Z</time>
      </trkpt>
      <trkpt lat="44.46249" lon="1.28546">
        <ele>80.6</ele>
        <time>2021-11-18T14:24:51Z</time>
      </trkpt>
      <trkpt lat="44.46244" lon="1.2855">
        <ele>80.8</ele>
        <time>2021-11-18T14:24:56Z</time>
      </trkpt>
      <trkpt lat="44.46241" lon="1.28555">
        <ele>80.9</ele>
        <time>2021-11-18T14:25:01Z</time>
      </trkpt>
      <trkpt lat="44.46239" lon="1.28561">
        <ele>81.5</ele>
        <time>2021-11-18T14:25:06Z</time>
      </trkpt>
      <trkpt lat="44.46238" lon="1.28567">
        <ele>82.1</ele>
        <time>2021-11-18T14:25:11Z</time>
      </trkpt>
      <trkpt lat="44.46234" lon="1.28572">
        <ele>83</ele>
        <time>2021-11-18T14:25:20Z</time>
      </trkpt>
      <trkpt lat="44.46231" lon="1.28577">
        <ele>82.8</ele>
        <time>2021-11-18T14:25:24Z</time>
      </trkpt>
      <trkpt lat="44.46227" lon="1.28584">
        <ele>82.7</ele>
        <time>2021-11-18T14:25:28Z</time>
      </trkpt>
      <trkpt lat="44.46226" lon="1.2859">
        <ele>82.6</ele>
        <time>2021-11-18T14:25:32Z</time>
      </trkpt>
      <trkpt lat="44.46222" lon="1.28596">
        <ele>81.9</ele>
        <time>2021-11-18T14:25:37Z</time>
      </trkpt>
      <trkpt lat="44.46218" lon="1.28599">
        <ele>81.2</ele>
        <time>2021-11-18T14:25:41Z</time>
      </trkpt>
      <trkpt lat="44.46214" lon="1.28604">
        <ele>80.5</ele>
        <time>2021-11-18T14:25:48Z</time>
      </trkpt>
      <trkpt lat="44.46211" lon="1.28609">
        <ele>80.7</ele>
        <time>2021-11-18T14:25:55Z</time>
      </trkpt>
      <trkpt lat="44.46207" lon="1.28612">
        <ele>80.5</ele>
        <time>2021-11-18T14:26:00Z</time>
      </trkpt>
      <trkpt lat="44.46205" lon="1.28618">
        <ele>80.5</ele>
        <time>2021-11-18T14:26:05Z</time>
      </trkpt>
      <trkpt lat="44.46202" lon="1.28623">
        <ele>80.7</ele>
        <time>2021-11-18T14:26:11Z</time>
      </trkpt>
      <trkpt lat="44.46197" lon="1.28625">
        <ele>80.1</ele>
        <time>2021-11-18T14:26:16Z</time>
      </trkpt>
      <trkpt lat="44.46194" lon="1.2863">
        <ele>79.8</ele>
        <time>2021-11-18T14:26:20Z</time>
      </trkpt>
      <trkpt lat="44.46191" lon="1.28636">
        <ele>79.4</ele>
        <time>2021-11-18T14:26:24Z</time>
      </trkpt>
      <trkpt lat="44.46188" lon="1.28642">
        <ele>78.9</ele>
        <time>2021-11-18T14:26:28Z</time>
      </trkpt>
      <trkpt lat="44.46186" lon="1.2865">
        <ele>78.8</ele>
        <time>2021-11-18T14:26:32Z</time>
      </trkpt>
      <trkpt lat="44.46183" lon="1.28656">
        <ele>79.2</ele>
        <time>2021-11-18T14:26:36Z</time>
      </trkpt>
      <trkpt lat="44.46181" lon="1.28662">
        <ele>80.2</ele>
        <time>2021-11-18T14:26:40Z</time>
      </trkpt>
      <trkpt lat="44.46178" lon="1.28669">
        <ele>82.2</ele>
        <time>2021-11-18T14:26:50Z</time>
      </trkpt>
      <trkpt lat="44.46175" lon="1.28674">
        <ele>82.6</ele>
        <time>2021-11-18T14:26:55Z</time>
      </trkpt>
      <trkpt lat="44.46173" lon="1.28681">
        <ele>82.6</ele>
        <time>2021-11-18T14:27:00Z</time>
      </trkpt>
      <trkpt lat="44.46171" lon="1.28688">
        <ele>82.9</ele>
        <time>2021-11-18T14:27:04Z</time>
      </trkpt>
      <trkpt lat="44.46171" lon="1.28695">
        <ele>84</ele>
        <time>2021-11-18T14:27:08Z</time>
      </trkpt>
      <trkpt lat="44.46171" lon="1.28701">
        <ele>85.1</ele>
        <time>2021-11-18T14:27:14Z</time>
      </trkpt>
      <trkpt lat="44.46171" lon="1.28709">
        <ele>85.8</ele>
        <time>2021-11-18T14:27:22Z</time>
      </trkpt>
      <trkpt lat="44.46169" lon="1.28716">
        <ele>84.7</ele>
        <time>2021-11-18T14:27:29Z</time>
      </trkpt>
      <trkpt lat="44.46169" lon="1.28723">
        <ele>83.2</ele>
        <time>2021-11-18T14:27:35Z</time>
      </trkpt>
      <trkpt lat="44.4617" lon="1.2873">
        <ele>82</ele>
        <time>2021-11-18T14:27:41Z</time>
      </trkpt>
      <trkpt lat="44.46172" lon="1.28735">
        <ele>80.5</ele>
        <time>2021-11-18T14:27:50Z</time>
      </trkpt>
      <trkpt lat="44.4617" lon="1.28741">
        <ele>79.4</ele>
        <time>2021-11-18T14:28:00Z</time>
      </trkpt>
      <trkpt lat="44.46167" lon="1.28747">
        <ele>78.8</ele>
        <time>2021-11-18T14:28:04Z</time>
      </trkpt>
      <trkpt lat="44.46163" lon="1.28754">
        <ele>78</ele>
        <time>2021-11-18T14:28:08Z</time>
      </trkpt>
      <trkpt lat="44.46161" lon="1.28759">
        <ele>77</ele>
        <time>2021-11-18T14:28:13Z</time>
      </trkpt>
      <trkpt lat="44.46159" lon="1.28765">
        <ele>76</ele>
        <time>2021-11-18T14:28:17Z</time>
      </trkpt>
      <trkpt lat="44.46158" lon="1.28772">
        <ele>75.4</ele>
        <time>2021-11-18T14:28:20Z</time>
      </trkpt>
      <trkpt lat="44.46156" lon="1.28779">
        <ele>74.6</ele>
        <time>2021-11-18T14:28:23Z</time>
      </trkpt>
      <trkpt lat="44.46155" lon="1.28786">
        <ele>74</ele>
        <time>2021-11-18T14:28:26Z</time>
      </trkpt>
      <trkpt lat="44.46152" lon="1.28792">
        <ele>73.1</ele>
        <time>2021-11-18T14:28:30Z</time>
      </trkpt>
      <trkpt lat="44.46149" lon="1.28798">
        <ele>71.4</ele>
        <time>2021-11-18T14:28:37Z</time>
      </trkpt>
      <trkpt lat="44.4615" lon="1.28805">
        <ele>70.1</ele>
        <time>2021-11-18T14:28:45Z</time>
      </trkpt>
      <trkpt lat="44.46149" lon="1.28811">
        <ele>69.6</ele>
        <time>2021-11-18T14:28:54Z</time>
      </trkpt>
      <trkpt lat="44.46147" lon="1.28817">
        <ele>69.2</ele>
        <time>2021-11-18T14:29:00Z</time>
      </trkpt>
      <trkpt lat="44.46144" lon="1.28824">
        <ele>69.1</ele>
        <time>2021-11-18T14:29:06Z</time>
      </trkpt>
      <trkpt lat="44.46142" lon="1.28831">
        <ele>68.9</ele>
        <time>2021-11-18T14:29:11Z</time>
      </trkpt>
      <trkpt lat="44.46138" lon="1.28834">
        <ele>68.5</ele>
        <time>2021-11-18T14:29:18Z</time>
      </trkpt>
      <trkpt lat="44.46133" lon="1.28835">
        <ele>68.4</ele>
        <time>2021-11-18T14:29:22Z</time>
      </trkpt>
      <trkpt lat="44.46128" lon="1.28837">
        <ele>68.2</ele>
        <time>2021-11-18T14:29:26Z</time>
      </trkpt>
      <trkpt lat="44.46124" lon="1.28839">
        <ele>68.8</ele>
        <time>2021-11-18T14:29:31Z</time>
      </trkpt>
      <trkpt lat="44.46119" lon="1.28841">
        <ele>71</ele>
        <time>2021-11-18T14:29:40Z</time>
      </trkpt>
      <trkpt lat="44.46114" lon="1.28841">
        <ele>71.2</ele>
        <time>2021-11-18T14:29:47Z</time>
      </trkpt>
      <trkpt lat="44.4611" lon="1.2885">
        <ele>70.6</ele>
        <time>2021-11-18T14:30:20Z</time>
      </trkpt>
      <trkpt lat="44.46108" lon="1.28857">
        <ele>71</ele>
        <time>2021-11-18T14:30:23Z</time>
      </trkpt>
      <trkpt lat="44.46106" lon="1.28863">
        <ele>71.8</ele>
        <time>2021-11-18T14:30:27Z</time>
      </trkpt>
      <trkpt lat="44.46104" lon="1.28869">
        <ele>72.5</ele>
        <time>2021-11-18T14:30:31Z</time>
      </trkpt>
      <trkpt lat="44.46102" lon="1.28876">
        <ele>72.9</ele>
        <time>2021-11-18T14:30:36Z</time>
      </trkpt>
      <trkpt lat="44.461" lon="1.28882">
        <ele>73.7</ele>
        <time>2021-11-18T14:30:42Z</time>
      </trkpt>
      <trkpt lat="44.46098" lon="1.28888">
        <ele>74.6</ele>
        <time>2021-11-18T14:30:48Z</time>
      </trkpt>
      <trkpt lat="44.46096" lon="1.28894">
        <ele>75.4</ele>
        <time>2021-11-18T14:30:54Z</time>
      </trkpt>
      <trkpt lat="44.46094" lon="1.28901">
        <ele>76.3</ele>
        <time>2021-11-18T14:31:00Z</time>
      </trkpt>
      <trkpt lat="44.46092" lon="1.28908">
        <ele>78.6</ele>
        <time>2021-11-18T14:31:14Z</time>
      </trkpt>
      <trkpt lat="44.46088" lon="1.28911">
        <ele>85.9</ele>
        <time>2021-11-18T14:31:45Z</time>
      </trkpt>
      <trkpt lat="44.46084" lon="1.28914">
        <ele>87.9</ele>
        <time>2021-11-18T14:31:52Z</time>
      </trkpt>
      <trkpt lat="44.46079" lon="1.28915">
        <ele>89.4</ele>
        <time>2021-11-18T14:32:00Z</time>
      </trkpt>
      <trkpt lat="44.46074" lon="1.28917">
        <ele>90.3</ele>
        <time>2021-11-18T14:32:04Z</time>
      </trkpt>
      <trkpt lat="44.46077" lon="1.28922">
        <ele>93.8</ele>
        <time>2021-11-18T14:32:15Z</time>
      </trkpt>
      <trkpt lat="44.46082" lon="1.28925">
        <ele>94.8</ele>
        <time>2021-11-18T14:32:19Z</time>
      </trkpt>
      <trkpt lat="44.46086" lon="1.28929">
        <ele>96.1</ele>
        <time>2021-11-18T14:32:23Z</time>
      </trkpt>
      <trkpt lat="44.46088" lon="1.28934">
        <ele>98.2</ele>
        <time>2021-11-18T14:32:28Z</time>
      </trkpt>
      <trkpt lat="44.4609" lon="1.28941">
        <ele>100.1</ele>
        <time>2021-11-18T14:32:33Z</time>
      </trkpt>
      <trkpt lat="44.46092" lon="1.28947">
        <ele>101.5</ele>
        <time>2021-11-18T14:32:39Z</time>
      </trkpt>
      <trkpt lat="44.46094" lon="1.28953">
        <ele>101.2</ele>
        <time>2021-11-18T14:32:50Z</time>
      </trkpt>
      <trkpt lat="44.46094" lon="1.28963">
        <ele>101.2</ele>
        <time>2021-11-18T14:33:01Z</time>
      </trkpt>
      <trkpt lat="44.46092" lon="1.28969">
        <ele>101.1</ele>
        <time>2021-11-18T14:33:04Z</time>
      </trkpt>
      <trkpt lat="44.4609" lon="1.28977">
        <ele>101.1</ele>
        <time>2021-11-18T14:33:07Z</time>
      </trkpt>
      <trkpt lat="44.4609" lon="1.28984">
        <ele>101</ele>
        <time>2021-11-18T14:33:10Z</time>
      </trkpt>
      <trkpt lat="44.46089" lon="1.28991">
        <ele>100.9</ele>
        <time>2021-11-18T14:33:14Z</time>
      </trkpt>
      <trkpt lat="44.46089" lon="1.28999">
        <ele>100.6</ele>
        <time>2021-11-18T14:33:18Z</time>
      </trkpt>
      <trkpt lat="44.46087" lon="1.29006">
        <ele>100.3</ele>
        <time>2021-11-18T14:33:22Z</time>
      </trkpt>
      <trkpt lat="44.46086" lon="1.29014">
        <ele>100.1</ele>
        <time>2021-11-18T14:33:26Z</time>
      </trkpt>
      <trkpt lat="44.46086" lon="1.29022">
        <ele>100.2</ele>
        <time>2021-11-18T14:33:30Z</time>
      </trkpt>
      <trkpt lat="44.46085" lon="1.29029">
        <ele>100.7</ele>
        <time>2021-11-18T14:33:33Z</time>
      </trkpt>
      <trkpt lat="44.46085" lon="1.29035">
        <ele>101.3</ele>
        <time>2021-11-18T14:33:36Z</time>
      </trkpt>
      <trkpt lat="44.46084" lon="1.29042">
        <ele>101.6</ele>
        <time>2021-11-18T14:33:44Z</time>
      </trkpt>
      <trkpt lat="44.46086" lon="1.29049">
        <ele>100.4</ele>
        <time>2021-11-18T14:33:50Z</time>
      </trkpt>
      <trkpt lat="44.46088" lon="1.29056">
        <ele>98.9</ele>
        <time>2021-11-18T14:33:56Z</time>
      </trkpt>
      <trkpt lat="44.46089" lon="1.29064">
        <ele>97.8</ele>
        <time>2021-11-18T14:34:01Z</time>
      </trkpt>
      <trkpt lat="44.46087" lon="1.29071">
        <ele>97.4</ele>
        <time>2021-11-18T14:34:04Z</time>
      </trkpt>
      <trkpt lat="44.46086" lon="1.29077">
        <ele>97.3</ele>
        <time>2021-11-18T14:34:07Z</time>
      </trkpt>
      <trkpt lat="44.46086" lon="1.29084">
        <ele>96.9</ele>
        <time>2021-11-18T14:34:11Z</time>
      </trkpt>
      <trkpt lat="44.46086" lon="1.29091">
        <ele>96.2</ele>
        <time>2021-11-18T14:34:15Z</time>
      </trkpt>
      <trkpt lat="44.46087" lon="1.29098">
        <ele>95.3</ele>
        <time>2021-11-18T14:34:20Z</time>
      </trkpt>
      <trkpt lat="44.46088" lon="1.29105">
        <ele>94.9</ele>
        <time>2021-11-18T14:34:24Z</time>
      </trkpt>
      <trkpt lat="44.46088" lon="1.29111">
        <ele>94.6</ele>
        <time>2021-11-18T14:34:28Z</time>
      </trkpt>
      <trkpt lat="44.46088" lon="1.29119">
        <ele>94.3</ele>
        <time>2021-11-18T14:34:33Z</time>
      </trkpt>
      <trkpt lat="44.46089" lon="1.29125">
        <ele>93.8</ele>
        <time>2021-11-18T14:34:39Z</time>
      </trkpt>
      <trkpt lat="44.4609" lon="1.29132">
        <ele>92.8</ele>
        <time>2021-11-18T14:34:43Z</time>
      </trkpt>
      <trkpt lat="44.46088" lon="1.29139">
        <ele>91.7</ele>
        <time>2021-11-18T14:34:48Z</time>
      </trkpt>
      <trkpt lat="44.46089" lon="1.29146">
        <ele>90.6</ele>
        <time>2021-11-18T14:34:52Z</time>
      </trkpt>
      <trkpt lat="44.4609" lon="1.29154">
        <ele>89.3</ele>
        <time>2021-11-18T14:34:56Z</time>
      </trkpt>
      <trkpt lat="44.46091" lon="1.29161">
        <ele>88.2</ele>
        <time>2021-11-18T14:35:00Z</time>
      </trkpt>
      <trkpt lat="44.46092" lon="1.29168">
        <ele>87.1</ele>
        <time>2021-11-18T14:35:04Z</time>
      </trkpt>
      <trkpt lat="44.46093" lon="1.29175">
        <ele>85.8</ele>
        <time>2021-11-18T14:35:09Z</time>
      </trkpt>
      <trkpt lat="44.46095" lon="1.29182">
        <ele>85.4</ele>
        <time>2021-11-18T14:35:13Z</time>
      </trkpt>
      <trkpt lat="44.46096" lon="1.2919">
        <ele>85.5</ele>
        <time>2021-11-18T14:35:17Z</time>
      </trkpt>
      <trkpt lat="44.46099" lon="1.29197">
        <ele>85.7</ele>
        <time>2021-11-18T14:35:20Z</time>
      </trkpt>
      <trkpt lat="44.46103" lon="1.29204">
        <ele>86</ele>
        <time>2021-11-18T14:35:23Z</time>
      </trkpt>
      <trkpt lat="44.46106" lon="1.29209">
        <ele>86.5</ele>
        <time>2021-11-18T14:35:26Z</time>
      </trkpt>
      <trkpt lat="44.46106" lon="1.29216">
        <ele>87.4</ele>
        <time>2021-11-18T14:35:30Z</time>
      </trkpt>
      <trkpt lat="44.46107" lon="1.29223">
        <ele>88.4</ele>
        <time>2021-11-18T14:35:35Z</time>
      </trkpt>
      <trkpt lat="44.46107" lon="1.29229">
        <ele>88.4</ele>
        <time>2021-11-18T14:35:41Z</time>
      </trkpt>
      <trkpt lat="44.46108" lon="1.29237">
        <ele>88.6</ele>
        <time>2021-11-18T14:35:45Z</time>
      </trkpt>
      <trkpt lat="44.4611" lon="1.29243">
        <ele>88.8</ele>
        <time>2021-11-18T14:35:48Z</time>
      </trkpt>
      <trkpt lat="44.46111" lon="1.29249">
        <ele>89.2</ele>
        <time>2021-11-18T14:35:52Z</time>
      </trkpt>
      <trkpt lat="44.46113" lon="1.29257">
        <ele>90</ele>
        <time>2021-11-18T14:35:57Z</time>
      </trkpt>
      <trkpt lat="44.46116" lon="1.29263">
        <ele>90.6</ele>
        <time>2021-11-18T14:36:02Z</time>
      </trkpt>
      <trkpt lat="44.46119" lon="1.29269">
        <ele>90.6</ele>
        <time>2021-11-18T14:36:07Z</time>
      </trkpt>
      <trkpt lat="44.4612" lon="1.29277">
        <ele>90.9</ele>
        <time>2021-11-18T14:36:12Z</time>
      </trkpt>
      <trkpt lat="44.4612" lon="1.29283">
        <ele>91.3</ele>
        <time>2021-11-18T14:36:15Z</time>
      </trkpt>
      <trkpt lat="44.46122" lon="1.2929">
        <ele>91.5</ele>
        <time>2021-11-18T14:36:19Z</time>
      </trkpt>
      <trkpt lat="44.46123" lon="1.29297">
        <ele>91.5</ele>
        <time>2021-11-18T14:36:24Z</time>
      </trkpt>
      <trkpt lat="44.46124" lon="1.29304">
        <ele>90.9</ele>
        <time>2021-11-18T14:36:30Z</time>
      </trkpt>
      <trkpt lat="44.46124" lon="1.29312">
        <ele>90.8</ele>
        <time>2021-11-18T14:36:35Z</time>
      </trkpt>
      <trkpt lat="44.46127" lon="1.29317">
        <ele>91.1</ele>
        <time>2021-11-18T14:36:39Z</time>
      </trkpt>
      <trkpt lat="44.4613" lon="1.29324">
        <ele>92.2</ele>
        <time>2021-11-18T14:36:43Z</time>
      </trkpt>
      <trkpt lat="44.46131" lon="1.29331">
        <ele>93.9</ele>
        <time>2021-11-18T14:36:47Z</time>
      </trkpt>
      <trkpt lat="44.46134" lon="1.29338">
        <ele>96.1</ele>
        <time>2021-11-18T14:36:52Z</time>
      </trkpt>
      <trkpt lat="44.46136" lon="1.29344">
        <ele>97.8</ele>
        <time>2021-11-18T14:36:57Z</time>
      </trkpt>
      <trkpt lat="44.46139" lon="1.29351">
        <ele>98.5</ele>
        <time>2021-11-18T14:37:02Z</time>
      </trkpt>
      <trkpt lat="44.46142" lon="1.29356">
        <ele>99.1</ele>
        <time>2021-11-18T14:37:06Z</time>
      </trkpt>
      <trkpt lat="44.46145" lon="1.29362">
        <ele>100.3</ele>
        <time>2021-11-18T14:37:12Z</time>
      </trkpt>
      <trkpt lat="44.46147" lon="1.29368">
        <ele>101.2</ele>
        <time>2021-11-18T14:37:16Z</time>
      </trkpt>
      <trkpt lat="44.46149" lon="1.29374">
        <ele>102.3</ele>
        <time>2021-11-18T14:37:20Z</time>
      </trkpt>
      <trkpt lat="44.46152" lon="1.2938">
        <ele>103.1</ele>
        <time>2021-11-18T14:37:25Z</time>
      </trkpt>
      <trkpt lat="44.46154" lon="1.29387">
        <ele>103.5</ele>
        <time>2021-11-18T14:37:30Z</time>
      </trkpt>
      <trkpt lat="44.46156" lon="1.29395">
        <ele>103.7</ele>
        <time>2021-11-18T14:37:35Z</time>
      </trkpt>
      <trkpt lat="44.46159" lon="1.29401">
        <ele>103.9</ele>
        <time>2021-11-18T14:37:39Z</time>
      </trkpt>
      <trkpt lat="44.46161" lon="1.29407">
        <ele>103.8</ele>
        <time>2021-11-18T14:37:44Z</time>
      </trkpt>
      <trkpt lat="44.46162" lon="1.29414">
        <ele>103.6</ele>
        <time>2021-11-18T14:37:48Z</time>
      </trkpt>
      <trkpt lat="44.46163" lon="1.29421">
        <ele>104</ele>
        <time>2021-11-18T14:37:52Z</time>
      </trkpt>
      <trkpt lat="44.46166" lon="1.29427">
        <ele>104.5</ele>
        <time>2021-11-18T14:37:57Z</time>
      </trkpt>
      <trkpt lat="44.46169" lon="1.29431">
        <ele>104.5</ele>
        <time>2021-11-18T14:38:02Z</time>
      </trkpt>
      <trkpt lat="44.46174" lon="1.29434">
        <ele>104.3</ele>
        <time>2021-11-18T14:38:08Z</time>
      </trkpt>
      <trkpt lat="44.46175" lon="1.29441">
        <ele>103.6</ele>
        <time>2021-11-18T14:38:15Z</time>
      </trkpt>
      <trkpt lat="44.46179" lon="1.29445">
        <ele>103.4</ele>
        <time>2021-11-18T14:38:20Z</time>
      </trkpt>
      <trkpt lat="44.46182" lon="1.2945">
        <ele>103.2</ele>
        <time>2021-11-18T14:38:24Z</time>
      </trkpt>
      <trkpt lat="44.46184" lon="1.29457">
        <ele>102.6</ele>
        <time>2021-11-18T14:38:27Z</time>
      </trkpt>
      <trkpt lat="44.46185" lon="1.29463">
        <ele>102.1</ele>
        <time>2021-11-18T14:38:30Z</time>
      </trkpt>
      <trkpt lat="44.46186" lon="1.29469">
        <ele>101.7</ele>
        <time>2021-11-18T14:38:34Z</time>
      </trkpt>
      <trkpt lat="44.46188" lon="1.29476">
        <ele>101.4</ele>
        <time>2021-11-18T14:38:38Z</time>
      </trkpt>
      <trkpt lat="44.46192" lon="1.29481">
        <ele>101</ele>
        <time>2021-11-18T14:38:42Z</time>
      </trkpt>
      <trkpt lat="44.46195" lon="1.29486">
        <ele>100.7</ele>
        <time>2021-11-18T14:38:46Z</time>
      </trkpt>
      <trkpt lat="44.46198" lon="1.29493">
        <ele>100.8</ele>
        <time>2021-11-18T14:38:51Z</time>
      </trkpt>
      <trkpt lat="44.46199" lon="1.29499">
        <ele>101.2</ele>
        <time>2021-11-18T14:38:55Z</time>
      </trkpt>
      <trkpt lat="44.46202" lon="1.29506">
        <ele>101.1</ele>
        <time>2021-11-18T14:39:00Z</time>
      </trkpt>
      <trkpt lat="44.46204" lon="1.29512">
        <ele>101</ele>
        <time>2021-11-18T14:39:05Z</time>
      </trkpt>
      <trkpt lat="44.46207" lon="1.29518">
        <ele>101.3</ele>
        <time>2021-11-18T14:39:09Z</time>
      </trkpt>
      <trkpt lat="44.46211" lon="1.29524">
        <ele>101.6</ele>
        <time>2021-11-18T14:39:13Z</time>
      </trkpt>
      <trkpt lat="44.46214" lon="1.29528">
        <ele>101.7</ele>
        <time>2021-11-18T14:39:17Z</time>
      </trkpt>
      <trkpt lat="44.46218" lon="1.29534">
        <ele>101.6</ele>
        <time>2021-11-18T14:39:21Z</time>
      </trkpt>
      <trkpt lat="44.4622" lon="1.2954">
        <ele>102.1</ele>
        <time>2021-11-18T14:39:26Z</time>
      </trkpt>
      <trkpt lat="44.46223" lon="1.29544">
        <ele>102.5</ele>
        <time>2021-11-18T14:39:30Z</time>
      </trkpt>
      <trkpt lat="44.46228" lon="1.29549">
        <ele>103.8</ele>
        <time>2021-11-18T14:39:35Z</time>
      </trkpt>
      <trkpt lat="44.46231" lon="1.29555">
        <ele>105.3</ele>
        <time>2021-11-18T14:39:39Z</time>
      </trkpt>
      <trkpt lat="44.46233" lon="1.2956">
        <ele>106.7</ele>
        <time>2021-11-18T14:39:43Z</time>
      </trkpt>
      <trkpt lat="44.46237" lon="1.29565">
        <ele>108</ele>
        <time>2021-11-18T14:39:48Z</time>
      </trkpt>
      <trkpt lat="44.46241" lon="1.29568">
        <ele>108.7</ele>
        <time>2021-11-18T14:39:53Z</time>
      </trkpt>
      <trkpt lat="44.46244" lon="1.29574">
        <ele>108.7</ele>
        <time>2021-11-18T14:39:59Z</time>
      </trkpt>
      <trkpt lat="44.46247" lon="1.29579">
        <ele>108.6</ele>
        <time>2021-11-18T14:40:03Z</time>
      </trkpt>
      <trkpt lat="44.46252" lon="1.29584">
        <ele>108.3</ele>
        <time>2021-11-18T14:40:08Z</time>
      </trkpt>
      <trkpt lat="44.46256" lon="1.29587">
        <ele>107.3</ele>
        <time>2021-11-18T14:40:13Z</time>
      </trkpt>
      <trkpt lat="44.4626" lon="1.29591">
        <ele>107.1</ele>
        <time>2021-11-18T14:40:17Z</time>
      </trkpt>
      <trkpt lat="44.46263" lon="1.29597">
        <ele>107.4</ele>
        <time>2021-11-18T14:40:21Z</time>
      </trkpt>
      <trkpt lat="44.46266" lon="1.29602">
        <ele>107.5</ele>
        <time>2021-11-18T14:40:26Z</time>
      </trkpt>
      <trkpt lat="44.46269" lon="1.29606">
        <ele>107.6</ele>
        <time>2021-11-18T14:40:31Z</time>
      </trkpt>
      <trkpt lat="44.46274" lon="1.29611">
        <ele>108.1</ele>
        <time>2021-11-18T14:40:36Z</time>
      </trkpt>
      <trkpt lat="44.46277" lon="1.29616">
        <ele>108.4</ele>
        <time>2021-11-18T14:40:40Z</time>
      </trkpt>
      <trkpt lat="44.46282" lon="1.2962">
        <ele>108.8</ele>
        <time>2021-11-18T14:40:45Z</time>
      </trkpt>
      <trkpt lat="44.46286" lon="1.29623">
        <ele>109</ele>
        <time>2021-11-18T14:40:50Z</time>
      </trkpt>
      <trkpt lat="44.46291" lon="1.29626">
        <ele>108.6</ele>
        <time>2021-11-18T14:40:55Z</time>
      </trkpt>
      <trkpt lat="44.46294" lon="1.2963">
        <ele>107.9</ele>
        <time>2021-11-18T14:41:00Z</time>
      </trkpt>
      <trkpt lat="44.46298" lon="1.29635">
        <ele>107.5</ele>
        <time>2021-11-18T14:41:04Z</time>
      </trkpt>
      <trkpt lat="44.46302" lon="1.29638">
        <ele>107</ele>
        <time>2021-11-18T14:41:09Z</time>
      </trkpt>
      <trkpt lat="44.46306" lon="1.29643">
        <ele>106.8</ele>
        <time>2021-11-18T14:41:13Z</time>
      </trkpt>
      <trkpt lat="44.4631" lon="1.29647">
        <ele>106.9</ele>
        <time>2021-11-18T14:41:18Z</time>
      </trkpt>
      <trkpt lat="44.46315" lon="1.2965">
        <ele>106.8</ele>
        <time>2021-11-18T14:41:24Z</time>
      </trkpt>
      <trkpt lat="44.46319" lon="1.29655">
        <ele>106.5</ele>
        <time>2021-11-18T14:41:29Z</time>
      </trkpt>
      <trkpt lat="44.46323" lon="1.29659">
        <ele>106.2</ele>
        <time>2021-11-18T14:41:34Z</time>
      </trkpt>
      <trkpt lat="44.46326" lon="1.29665">
        <ele>105.9</ele>
        <time>2021-11-18T14:41:40Z</time>
      </trkpt>
      <trkpt lat="44.4633" lon="1.29669">
        <ele>106.4</ele>
        <time>2021-11-18T14:41:44Z</time>
      </trkpt>
      <trkpt lat="44.46334" lon="1.29674">
        <ele>107.1</ele>
        <time>2021-11-18T14:41:49Z</time>
      </trkpt>
      <trkpt lat="44.46339" lon="1.29677">
        <ele>107.1</ele>
        <time>2021-11-18T14:41:54Z</time>
      </trkpt>
      <trkpt lat="44.46344" lon="1.29679">
        <ele>106.7</ele>
        <time>2021-11-18T14:41:59Z</time>
      </trkpt>
      <trkpt lat="44.46348" lon="1.29682">
        <ele>106.2</ele>
        <time>2021-11-18T14:42:03Z</time>
      </trkpt>
      <trkpt lat="44.46352" lon="1.29686">
        <ele>105.6</ele>
        <time>2021-11-18T14:42:08Z</time>
      </trkpt>
      <trkpt lat="44.46357" lon="1.29689">
        <ele>104.9</ele>
        <time>2021-11-18T14:42:13Z</time>
      </trkpt>
      <trkpt lat="44.46361" lon="1.29693">
        <ele>104.7</ele>
        <time>2021-11-18T14:42:18Z</time>
      </trkpt>
      <trkpt lat="44.46365" lon="1.29698">
        <ele>104.8</ele>
        <time>2021-11-18T14:42:24Z</time>
      </trkpt>
      <trkpt lat="44.46369" lon="1.29702">
        <ele>105</ele>
        <time>2021-11-18T14:42:33Z</time>
      </trkpt>
      <trkpt lat="44.46373" lon="1.29706">
        <ele>104.9</ele>
        <time>2021-11-18T14:42:37Z</time>
      </trkpt>
      <trkpt lat="44.46379" lon="1.29707">
        <ele>104.9</ele>
        <time>2021-11-18T14:42:41Z</time>
      </trkpt>
      <trkpt lat="44.46383" lon="1.29707">
        <ele>105.2</ele>
        <time>2021-11-18T14:42:44Z</time>
      </trkpt>
      <trkpt lat="44.46387" lon="1.29711">
        <ele>104.9</ele>
        <time>2021-11-18T14:42:48Z</time>
      </trkpt>
      <trkpt lat="44.46391" lon="1.29717">
        <ele>104</ele>
        <time>2021-11-18T14:42:51Z</time>
      </trkpt>
      <trkpt lat="44.46394" lon="1.29722">
        <ele>102.7</ele>
        <time>2021-11-18T14:42:55Z</time>
      </trkpt>
      <trkpt lat="44.46398" lon="1.29725">
        <ele>101.6</ele>
        <time>2021-11-18T14:42:59Z</time>
      </trkpt>
      <trkpt lat="44.46402" lon="1.2973">
        <ele>100.4</ele>
        <time>2021-11-18T14:43:03Z</time>
      </trkpt>
      <trkpt lat="44.46405" lon="1.29737">
        <ele>99</ele>
        <time>2021-11-18T14:43:07Z</time>
      </trkpt>
      <trkpt lat="44.46408" lon="1.29741">
        <ele>98.2</ele>
        <time>2021-11-18T14:43:10Z</time>
      </trkpt>
      <trkpt lat="44.46412" lon="1.29747">
        <ele>97.6</ele>
        <time>2021-11-18T14:43:14Z</time>
      </trkpt>
      <trkpt lat="44.46416" lon="1.29752">
        <ele>97.3</ele>
        <time>2021-11-18T14:43:18Z</time>
      </trkpt>
      <trkpt lat="44.46419" lon="1.29756">
        <ele>97</ele>
        <time>2021-11-18T14:43:23Z</time>
      </trkpt>
      <trkpt lat="44.46422" lon="1.29762">
        <ele>97.4</ele>
        <time>2021-11-18T14:43:28Z</time>
      </trkpt>
      <trkpt lat="44.46425" lon="1.29766">
        <ele>97.8</ele>
        <time>2021-11-18T14:43:33Z</time>
      </trkpt>
      <trkpt lat="44.4643" lon="1.2977">
        <ele>98.6</ele>
        <time>2021-11-18T14:43:38Z</time>
      </trkpt>
      <trkpt lat="44.46434" lon="1.29774">
        <ele>99.9</ele>
        <time>2021-11-18T14:43:43Z</time>
      </trkpt>
      <trkpt lat="44.46437" lon="1.29779">
        <ele>99.5</ele>
        <time>2021-11-18T14:43:49Z</time>
      </trkpt>
      <trkpt lat="44.4644" lon="1.29785">
        <ele>99.4</ele>
        <time>2021-11-18T14:43:55Z</time>
      </trkpt>
      <trkpt lat="44.46445" lon="1.29788">
        <ele>99</ele>
        <time>2021-11-18T14:44:00Z</time>
      </trkpt>
      <trkpt lat="44.46449" lon="1.2979">
        <ele>98.8</ele>
        <time>2021-11-18T14:44:03Z</time>
      </trkpt>
      <trkpt lat="44.46454" lon="1.29792">
        <ele>98.7</ele>
        <time>2021-11-18T14:44:06Z</time>
      </trkpt>
      <trkpt lat="44.46458" lon="1.29796">
        <ele>98.6</ele>
        <time>2021-11-18T14:44:10Z</time>
      </trkpt>
      <trkpt lat="44.46463" lon="1.29799">
        <ele>98.7</ele>
        <time>2021-11-18T14:44:15Z</time>
      </trkpt>
      <trkpt lat="44.46466" lon="1.29804">
        <ele>99.2</ele>
        <time>2021-11-18T14:44:20Z</time>
      </trkpt>
      <trkpt lat="44.4647" lon="1.29808">
        <ele>100.1</ele>
        <time>2021-11-18T14:44:25Z</time>
      </trkpt>
      <trkpt lat="44.46475" lon="1.29809">
        <ele>101</ele>
        <time>2021-11-18T14:44:30Z</time>
      </trkpt>
      <trkpt lat="44.46479" lon="1.29812">
        <ele>101</ele>
        <time>2021-11-18T14:44:35Z</time>
      </trkpt>
      <trkpt lat="44.46482" lon="1.29818">
        <ele>100.4</ele>
        <time>2021-11-18T14:44:39Z</time>
      </trkpt>
      <trkpt lat="44.46485" lon="1.29823">
        <ele>100.1</ele>
        <time>2021-11-18T14:44:42Z</time>
      </trkpt>
      <trkpt lat="44.46488" lon="1.29829">
        <ele>100.3</ele>
        <time>2021-11-18T14:44:45Z</time>
      </trkpt>
      <trkpt lat="44.46492" lon="1.29835">
        <ele>100.5</ele>
        <time>2021-11-18T14:44:49Z</time>
      </trkpt>
      <trkpt lat="44.46496" lon="1.29839">
        <ele>100.7</ele>
        <time>2021-11-18T14:44:53Z</time>
      </trkpt>
      <trkpt lat="44.46497" lon="1.29845">
        <ele>101.2</ele>
        <time>2021-11-18T14:44:57Z</time>
      </trkpt>
      <trkpt lat="44.46501" lon="1.2985">
        <ele>101.8</ele>
        <time>2021-11-18T14:45:01Z</time>
      </trkpt>
      <trkpt lat="44.46505" lon="1.29853">
        <ele>102.1</ele>
        <time>2021-11-18T14:45:04Z</time>
      </trkpt>
      <trkpt lat="44.46509" lon="1.29858">
        <ele>102.5</ele>
        <time>2021-11-18T14:45:08Z</time>
      </trkpt>
      <trkpt lat="44.4651" lon="1.29865">
        <ele>103</ele>
        <time>2021-11-18T14:45:12Z</time>
      </trkpt>
      <trkpt lat="44.4651" lon="1.29872">
        <ele>103.6</ele>
        <time>2021-11-18T14:45:17Z</time>
      </trkpt>
      <trkpt lat="44.46512" lon="1.29878">
        <ele>103.8</ele>
        <time>2021-11-18T14:45:21Z</time>
      </trkpt>
      <trkpt lat="44.46511" lon="1.29885">
        <ele>103.8</ele>
        <time>2021-11-18T14:45:25Z</time>
      </trkpt>
      <trkpt lat="44.46509" lon="1.29892">
        <ele>103.3</ele>
        <time>2021-11-18T14:45:30Z</time>
      </trkpt>
      <trkpt lat="44.4651" lon="1.29898">
        <ele>102.5</ele>
        <time>2021-11-18T14:45:36Z</time>
      </trkpt>
      <trkpt lat="44.46511" lon="1.29906">
        <ele>102.2</ele>
        <time>2021-11-18T14:45:42Z</time>
      </trkpt>
      <trkpt lat="44.46513" lon="1.29913">
        <ele>102.4</ele>
        <time>2021-11-18T14:45:46Z</time>
      </trkpt>
      <trkpt lat="44.46517" lon="1.29918">
        <ele>102.7</ele>
        <time>2021-11-18T14:45:51Z</time>
      </trkpt>
      <trkpt lat="44.46519" lon="1.29925">
        <ele>102.7</ele>
        <time>2021-11-18T14:45:56Z</time>
      </trkpt>
      <trkpt lat="44.46516" lon="1.2993">
        <ele>102.2</ele>
        <time>2021-11-18T14:45:59Z</time>
      </trkpt>
      <trkpt lat="44.46513" lon="1.29936">
        <ele>101.5</ele>
        <time>2021-11-18T14:46:03Z</time>
      </trkpt>
      <trkpt lat="44.46514" lon="1.29942">
        <ele>100.3</ele>
        <time>2021-11-18T14:46:12Z</time>
      </trkpt>
      <trkpt lat="44.46516" lon="1.29948">
        <ele>99.1</ele>
        <time>2021-11-18T14:46:24Z</time>
      </trkpt>
      <trkpt lat="44.46513" lon="1.29953">
        <ele>98.4</ele>
        <time>2021-11-18T14:47:09Z</time>
      </trkpt>
      <trkpt lat="44.46509" lon="1.29956">
        <ele>97.8</ele>
        <time>2021-11-18T14:47:14Z</time>
      </trkpt>
      <trkpt lat="44.46512" lon="1.29952">
        <ele>96.3</ele>
        <time>2021-11-18T14:48:10Z</time>
      </trkpt>
      <trkpt lat="44.46507" lon="1.29951">
        <ele>94.3</ele>
        <time>2021-11-18T14:48:21Z</time>
      </trkpt>
      <trkpt lat="44.46502" lon="1.2995">
        <ele>93.1</ele>
        <time>2021-11-18T14:48:28Z</time>
      </trkpt>
      <trkpt lat="44.46505" lon="1.29955">
        <ele>97.8</ele>
        <time>2021-11-18T14:49:59Z</time>
      </trkpt>
      <trkpt lat="44.46511" lon="1.29951">
        <ele>98.5</ele>
        <time>2021-11-18T14:50:48Z</time>
      </trkpt>
      <trkpt lat="44.46515" lon="1.29953">
        <ele>102.4</ele>
        <time>2021-11-18T14:52:45Z</time>
      </trkpt>
      <trkpt lat="44.46512" lon="1.29948">
        <ele>103</ele>
        <time>2021-11-18T14:52:56Z</time>
      </trkpt>
      <trkpt lat="44.46507" lon="1.29946">
        <ele>103</ele>
        <time>2021-11-18T14:53:03Z</time>
      </trkpt>
      <trkpt lat="44.46511" lon="1.2995">
        <ele>103.6</ele>
        <time>2021-11-18T14:53:49Z</time>
      </trkpt>
      <trkpt lat="44.46515" lon="1.29955">
        <ele>102.3</ele>
        <time>2021-11-18T14:54:58Z</time>
      </trkpt>
      <trkpt lat="44.4652" lon="1.29955">
        <ele>102.1</ele>
        <time>2021-11-18T14:55:02Z</time>
      </trkpt>
      <trkpt lat="44.46518" lon="1.29961">
        <ele>104</ele>
        <time>2021-11-18T14:55:32Z</time>
      </trkpt>
      <trkpt lat="44.46515" lon="1.29966">
        <ele>102.4</ele>
        <time>2021-11-18T14:55:43Z</time>
      </trkpt>
      <trkpt lat="44.4652" lon="1.29968">
        <ele>101.8</ele>
        <time>2021-11-18T14:55:48Z</time>
      </trkpt>
      <trkpt lat="44.46523" lon="1.29973">
        <ele>101.4</ele>
        <time>2021-11-18T14:55:52Z</time>
      </trkpt>
      <trkpt lat="44.46527" lon="1.29972">
        <ele>99.7</ele>
        <time>2021-11-18T14:56:01Z</time>
      </trkpt>
      <trkpt lat="44.46532" lon="1.29971">
        <ele>98.1</ele>
        <time>2021-11-18T14:56:05Z</time>
      </trkpt>
      <trkpt lat="44.46538" lon="1.29969">
        <ele>96.5</ele>
        <time>2021-11-18T14:56:09Z</time>
      </trkpt>
      <trkpt lat="44.46543" lon="1.29965">
        <ele>95.3</ele>
        <time>2021-11-18T14:56:13Z</time>
      </trkpt>
      <trkpt lat="44.46547" lon="1.29962">
        <ele>94.1</ele>
        <time>2021-11-18T14:56:18Z</time>
      </trkpt>
      <trkpt lat="44.46551" lon="1.29957">
        <ele>93.4</ele>
        <time>2021-11-18T14:56:23Z</time>
      </trkpt>
      <trkpt lat="44.46555" lon="1.29953">
        <ele>92.7</ele>
        <time>2021-11-18T14:56:27Z</time>
      </trkpt>
      <trkpt lat="44.46558" lon="1.2995">
        <ele>92.1</ele>
        <time>2021-11-18T14:56:32Z</time>
      </trkpt>
      <trkpt lat="44.46563" lon="1.29947">
        <ele>91.5</ele>
        <time>2021-11-18T14:56:40Z</time>
      </trkpt>
      <trkpt lat="44.46568" lon="1.29942">
        <ele>91.8</ele>
        <time>2021-11-18T14:56:45Z</time>
      </trkpt>
      <trkpt lat="44.46572" lon="1.29937">
        <ele>92.3</ele>
        <time>2021-11-18T14:56:49Z</time>
      </trkpt>
      <trkpt lat="44.46576" lon="1.29933">
        <ele>93</ele>
        <time>2021-11-18T14:56:53Z</time>
      </trkpt>
      <trkpt lat="44.46581" lon="1.29929">
        <ele>93.8</ele>
        <time>2021-11-18T14:56:57Z</time>
      </trkpt>
      <trkpt lat="44.46585" lon="1.29926">
        <ele>94.7</ele>
        <time>2021-11-18T14:57:02Z</time>
      </trkpt>
      <trkpt lat="44.46589" lon="1.29928">
        <ele>94.9</ele>
        <time>2021-11-18T14:57:10Z</time>
      </trkpt>
      <trkpt lat="44.46593" lon="1.29923">
        <ele>94.7</ele>
        <time>2021-11-18T14:57:16Z</time>
      </trkpt>
      <trkpt lat="44.46595" lon="1.29916">
        <ele>94.5</ele>
        <time>2021-11-18T14:57:20Z</time>
      </trkpt>
      <trkpt lat="44.466" lon="1.29911">
        <ele>94.5</ele>
        <time>2021-11-18T14:57:24Z</time>
      </trkpt>
      <trkpt lat="44.46605" lon="1.29908">
        <ele>94.6</ele>
        <time>2021-11-18T14:57:28Z</time>
      </trkpt>
      <trkpt lat="44.46609" lon="1.29905">
        <ele>94.5</ele>
        <time>2021-11-18T14:57:32Z</time>
      </trkpt>
      <trkpt lat="44.46614" lon="1.29904">
        <ele>94.2</ele>
        <time>2021-11-18T14:57:37Z</time>
      </trkpt>
      <trkpt lat="44.46619" lon="1.29899">
        <ele>93.6</ele>
        <time>2021-11-18T14:57:45Z</time>
      </trkpt>
      <trkpt lat="44.46621" lon="1.29892">
        <ele>93</ele>
        <time>2021-11-18T14:57:48Z</time>
      </trkpt>
      <trkpt lat="44.46623" lon="1.29886">
        <ele>91.7</ele>
        <time>2021-11-18T14:57:52Z</time>
      </trkpt>
      <trkpt lat="44.46626" lon="1.2988">
        <ele>89.4</ele>
        <time>2021-11-18T14:57:58Z</time>
      </trkpt>
      <trkpt lat="44.46629" lon="1.29875">
        <ele>88.1</ele>
        <time>2021-11-18T14:58:03Z</time>
      </trkpt>
      <trkpt lat="44.46632" lon="1.2987">
        <ele>85.6</ele>
        <time>2021-11-18T14:58:13Z</time>
      </trkpt>
      <trkpt lat="44.46635" lon="1.29865">
        <ele>84.8</ele>
        <time>2021-11-18T14:58:18Z</time>
      </trkpt>
      <trkpt lat="44.46638" lon="1.2986">
        <ele>84.1</ele>
        <time>2021-11-18T14:58:23Z</time>
      </trkpt>
      <trkpt lat="44.46642" lon="1.29858">
        <ele>84</ele>
        <time>2021-11-18T14:58:26Z</time>
      </trkpt>
      <trkpt lat="44.46647" lon="1.29855">
        <ele>83.6</ele>
        <time>2021-11-18T14:58:32Z</time>
      </trkpt>
      <trkpt lat="44.46652" lon="1.29853">
        <ele>83.5</ele>
        <time>2021-11-18T14:58:36Z</time>
      </trkpt>
      <trkpt lat="44.46657" lon="1.2985">
        <ele>83.2</ele>
        <time>2021-11-18T14:58:40Z</time>
      </trkpt>
      <trkpt lat="44.46663" lon="1.29848">
        <ele>83.3</ele>
        <time>2021-11-18T14:58:43Z</time>
      </trkpt>
      <trkpt lat="44.46671" lon="1.29846">
        <ele>83.5</ele>
        <time>2021-11-18T14:58:46Z</time>
      </trkpt>
      <trkpt lat="44.46677" lon="1.29843">
        <ele>83.2</ele>
        <time>2021-11-18T14:58:49Z</time>
      </trkpt>
      <trkpt lat="44.46682" lon="1.29841">
        <ele>83</ele>
        <time>2021-11-18T14:58:52Z</time>
      </trkpt>
      <trkpt lat="44.46686" lon="1.29839">
        <ele>82.8</ele>
        <time>2021-11-18T14:58:55Z</time>
      </trkpt>
      <trkpt lat="44.4669" lon="1.29837">
        <ele>83</ele>
        <time>2021-11-18T14:58:59Z</time>
      </trkpt>
      <trkpt lat="44.46695" lon="1.29833">
        <ele>83.3</ele>
        <time>2021-11-18T14:59:04Z</time>
      </trkpt>
      <trkpt lat="44.467" lon="1.2983">
        <ele>83.3</ele>
        <time>2021-11-18T14:59:08Z</time>
      </trkpt>
      <trkpt lat="44.46705" lon="1.29826">
        <ele>83.4</ele>
        <time>2021-11-18T14:59:14Z</time>
      </trkpt>
      <trkpt lat="44.46711" lon="1.29825">
        <ele>84.6</ele>
        <time>2021-11-18T14:59:19Z</time>
      </trkpt>
      <trkpt lat="44.46716" lon="1.29824">
        <ele>86.1</ele>
        <time>2021-11-18T14:59:23Z</time>
      </trkpt>
      <trkpt lat="44.46721" lon="1.29823">
        <ele>87.2</ele>
        <time>2021-11-18T14:59:26Z</time>
      </trkpt>
      <trkpt lat="44.46727" lon="1.29821">
        <ele>88.7</ele>
        <time>2021-11-18T14:59:30Z</time>
      </trkpt>
      <trkpt lat="44.46732" lon="1.29818">
        <ele>89.7</ele>
        <time>2021-11-18T14:59:34Z</time>
      </trkpt>
      <trkpt lat="44.46736" lon="1.29815">
        <ele>90.4</ele>
        <time>2021-11-18T14:59:39Z</time>
      </trkpt>
      <trkpt lat="44.46739" lon="1.2981">
        <ele>90.7</ele>
        <time>2021-11-18T14:59:44Z</time>
      </trkpt>
      <trkpt lat="44.46744" lon="1.29806">
        <ele>90.4</ele>
        <time>2021-11-18T14:59:49Z</time>
      </trkpt>
      <trkpt lat="44.4675" lon="1.29804">
        <ele>90.1</ele>
        <time>2021-11-18T14:59:53Z</time>
      </trkpt>
      <trkpt lat="44.46755" lon="1.29803">
        <ele>90.4</ele>
        <time>2021-11-18T14:59:56Z</time>
      </trkpt>
      <trkpt lat="44.4676" lon="1.298">
        <ele>90.9</ele>
        <time>2021-11-18T14:59:59Z</time>
      </trkpt>
      <trkpt lat="44.46764" lon="1.29798">
        <ele>91.4</ele>
        <time>2021-11-18T15:00:02Z</time>
      </trkpt>
      <trkpt lat="44.4677" lon="1.29797">
        <ele>92.4</ele>
        <time>2021-11-18T15:00:05Z</time>
      </trkpt>
      <trkpt lat="44.46776" lon="1.29797">
        <ele>93.7</ele>
        <time>2021-11-18T15:00:08Z</time>
      </trkpt>
      <trkpt lat="44.46782" lon="1.29796">
        <ele>95.4</ele>
        <time>2021-11-18T15:00:12Z</time>
      </trkpt>
      <trkpt lat="44.46787" lon="1.29793">
        <ele>97.1</ele>
        <time>2021-11-18T15:00:17Z</time>
      </trkpt>
      <trkpt lat="44.46791" lon="1.2979">
        <ele>97.7</ele>
        <time>2021-11-18T15:00:22Z</time>
      </trkpt>
      <trkpt lat="44.46795" lon="1.29788">
        <ele>98.1</ele>
        <time>2021-11-18T15:00:26Z</time>
      </trkpt>
      <trkpt lat="44.468" lon="1.29786">
        <ele>98.8</ele>
        <time>2021-11-18T15:00:32Z</time>
      </trkpt>
      <trkpt lat="44.46804" lon="1.29781">
        <ele>98.6</ele>
        <time>2021-11-18T15:00:39Z</time>
      </trkpt>
      <trkpt lat="44.46809" lon="1.29778">
        <ele>98</ele>
        <time>2021-11-18T15:00:44Z</time>
      </trkpt>
      <trkpt lat="44.46813" lon="1.29774">
        <ele>97.3</ele>
        <time>2021-11-18T15:00:49Z</time>
      </trkpt>
      <trkpt lat="44.46818" lon="1.29772">
        <ele>96.6</ele>
        <time>2021-11-18T15:00:53Z</time>
      </trkpt>
      <trkpt lat="44.46822" lon="1.29769">
        <ele>96</ele>
        <time>2021-11-18T15:00:57Z</time>
      </trkpt>
      <trkpt lat="44.46828" lon="1.29767">
        <ele>95.5</ele>
        <time>2021-11-18T15:01:01Z</time>
      </trkpt>
      <trkpt lat="44.46834" lon="1.29766">
        <ele>95</ele>
        <time>2021-11-18T15:01:05Z</time>
      </trkpt>
      <trkpt lat="44.46838" lon="1.29762">
        <ele>94.5</ele>
        <time>2021-11-18T15:01:10Z</time>
      </trkpt>
      <trkpt lat="44.46842" lon="1.29758">
        <ele>94.1</ele>
        <time>2021-11-18T15:01:15Z</time>
      </trkpt>
      <trkpt lat="44.46847" lon="1.29757">
        <ele>93.6</ele>
        <time>2021-11-18T15:01:19Z</time>
      </trkpt>
      <trkpt lat="44.46852" lon="1.29753">
        <ele>93.3</ele>
        <time>2021-11-18T15:01:24Z</time>
      </trkpt>
      <trkpt lat="44.46858" lon="1.29753">
        <ele>92.9</ele>
        <time>2021-11-18T15:01:27Z</time>
      </trkpt>
      <trkpt lat="44.46864" lon="1.29752">
        <ele>92.4</ele>
        <time>2021-11-18T15:01:30Z</time>
      </trkpt>
      <trkpt lat="44.46869" lon="1.29749">
        <ele>91.9</ele>
        <time>2021-11-18T15:01:33Z</time>
      </trkpt>
      <trkpt lat="44.46873" lon="1.29746">
        <ele>91.7</ele>
        <time>2021-11-18T15:01:36Z</time>
      </trkpt>
      <trkpt lat="44.46879" lon="1.29744">
        <ele>91.7</ele>
        <time>2021-11-18T15:01:39Z</time>
      </trkpt>
      <trkpt lat="44.46883" lon="1.29742">
        <ele>91.7</ele>
        <time>2021-11-18T15:01:42Z</time>
      </trkpt>
      <trkpt lat="44.46887" lon="1.2974">
        <ele>92.1</ele>
        <time>2021-11-18T15:01:46Z</time>
      </trkpt>
      <trkpt lat="44.46891" lon="1.29736">
        <ele>92.8</ele>
        <time>2021-11-18T15:01:52Z</time>
      </trkpt>
      <trkpt lat="44.46895" lon="1.29733">
        <ele>93</ele>
        <time>2021-11-18T15:01:57Z</time>
      </trkpt>
      <trkpt lat="44.46901" lon="1.2973">
        <ele>93.3</ele>
        <time>2021-11-18T15:02:01Z</time>
      </trkpt>
      <trkpt lat="44.46906" lon="1.29726">
        <ele>93.8</ele>
        <time>2021-11-18T15:02:05Z</time>
      </trkpt>
      <trkpt lat="44.4691" lon="1.29723">
        <ele>94</ele>
        <time>2021-11-18T15:02:09Z</time>
      </trkpt>
      <trkpt lat="44.46915" lon="1.29719">
        <ele>94.2</ele>
        <time>2021-11-18T15:02:12Z</time>
      </trkpt>
      <trkpt lat="44.46919" lon="1.29717">
        <ele>94.7</ele>
        <time>2021-11-18T15:02:16Z</time>
      </trkpt>
      <trkpt lat="44.46924" lon="1.29718">
        <ele>95.5</ele>
        <time>2021-11-18T15:02:21Z</time>
      </trkpt>
      <trkpt lat="44.46929" lon="1.29719">
        <ele>96.2</ele>
        <time>2021-11-18T15:02:25Z</time>
      </trkpt>
      <trkpt lat="44.46927" lon="1.29712">
        <ele>96.8</ele>
        <time>2021-11-18T15:02:34Z</time>
      </trkpt>
      <trkpt lat="44.46926" lon="1.29705">
        <ele>96.3</ele>
        <time>2021-11-18T15:02:38Z</time>
      </trkpt>
      <trkpt lat="44.46925" lon="1.29698">
        <ele>95.2</ele>
        <time>2021-11-18T15:02:42Z</time>
      </trkpt>
      <trkpt lat="44.46923" lon="1.29691">
        <ele>93.6</ele>
        <time>2021-11-18T15:02:48Z</time>
      </trkpt>
      <trkpt lat="44.46923" lon="1.29684">
        <ele>92.6</ele>
        <time>2021-11-18T15:03:10Z</time>
      </trkpt>
      <trkpt lat="44.46925" lon="1.29678">
        <ele>92.7</ele>
        <time>2021-11-18T15:03:16Z</time>
      </trkpt>
      <trkpt lat="44.46925" lon="1.29671">
        <ele>92.6</ele>
        <time>2021-11-18T15:03:21Z</time>
      </trkpt>
      <trkpt lat="44.46928" lon="1.29666">
        <ele>92.1</ele>
        <time>2021-11-18T15:03:28Z</time>
      </trkpt>
      <trkpt lat="44.46933" lon="1.29667">
        <ele>91.8</ele>
        <time>2021-11-18T15:03:38Z</time>
      </trkpt>
      <trkpt lat="44.46937" lon="1.29664">
        <ele>90.5</ele>
        <time>2021-11-18T15:03:55Z</time>
      </trkpt>
      <trkpt lat="44.46941" lon="1.29668">
        <ele>89.9</ele>
        <time>2021-11-18T15:04:09Z</time>
      </trkpt>
      <trkpt lat="44.46946" lon="1.29665">
        <ele>89.3</ele>
        <time>2021-11-18T15:04:17Z</time>
      </trkpt>
      <trkpt lat="44.46951" lon="1.29665">
        <ele>88.9</ele>
        <time>2021-11-18T15:04:24Z</time>
      </trkpt>
      <trkpt lat="44.46955" lon="1.29666">
        <ele>88.7</ele>
        <time>2021-11-18T15:04:29Z</time>
      </trkpt>
      <trkpt lat="44.4696" lon="1.29668">
        <ele>88.4</ele>
        <time>2021-11-18T15:04:36Z</time>
      </trkpt>
      <trkpt lat="44.46964" lon="1.29669">
        <ele>88.2</ele>
        <time>2021-11-18T15:04:44Z</time>
      </trkpt>
      <trkpt lat="44.46969" lon="1.29671">
        <ele>88.1</ele>
        <time>2021-11-18T15:04:51Z</time>
      </trkpt>
      <trkpt lat="44.46974" lon="1.29672">
        <ele>87.8</ele>
        <time>2021-11-18T15:04:57Z</time>
      </trkpt>
      <trkpt lat="44.46978" lon="1.29672">
        <ele>87.3</ele>
        <time>2021-11-18T15:05:04Z</time>
      </trkpt>
      <trkpt lat="44.46983" lon="1.29674">
        <ele>87</ele>
        <time>2021-11-18T15:05:12Z</time>
      </trkpt>
      <trkpt lat="44.46989" lon="1.29675">
        <ele>86.9</ele>
        <time>2021-11-18T15:05:16Z</time>
      </trkpt>
      <trkpt lat="44.46994" lon="1.29674">
        <ele>86.6</ele>
        <time>2021-11-18T15:05:21Z</time>
      </trkpt>
      <trkpt lat="44.46998" lon="1.29678">
        <ele>86.4</ele>
        <time>2021-11-18T15:05:27Z</time>
      </trkpt>
      <trkpt lat="44.47002" lon="1.29682">
        <ele>86.2</ele>
        <time>2021-11-18T15:05:33Z</time>
      </trkpt>
      <trkpt lat="44.47007" lon="1.29682">
        <ele>85.6</ele>
        <time>2021-11-18T15:05:39Z</time>
      </trkpt>
      <trkpt lat="44.47012" lon="1.2968">
        <ele>85.5</ele>
        <time>2021-11-18T15:05:43Z</time>
      </trkpt>
      <trkpt lat="44.47017" lon="1.29678">
        <ele>85.6</ele>
        <time>2021-11-18T15:05:47Z</time>
      </trkpt>
      <trkpt lat="44.47023" lon="1.29676">
        <ele>85.8</ele>
        <time>2021-11-18T15:05:50Z</time>
      </trkpt>
      <trkpt lat="44.47028" lon="1.29676">
        <ele>85.6</ele>
        <time>2021-11-18T15:05:54Z</time>
      </trkpt>
      <trkpt lat="44.47033" lon="1.29675">
        <ele>85.3</ele>
        <time>2021-11-18T15:05:58Z</time>
      </trkpt>
      <trkpt lat="44.47038" lon="1.29676">
        <ele>85.5</ele>
        <time>2021-11-18T15:06:04Z</time>
      </trkpt>
      <trkpt lat="44.47043" lon="1.29675">
        <ele>86.1</ele>
        <time>2021-11-18T15:06:10Z</time>
      </trkpt>
      <trkpt lat="44.47049" lon="1.29677">
        <ele>85.8</ele>
        <time>2021-11-18T15:06:26Z</time>
      </trkpt>
      <trkpt lat="44.47055" lon="1.29676">
        <ele>86.1</ele>
        <time>2021-11-18T15:06:29Z</time>
      </trkpt>
      <trkpt lat="44.4706" lon="1.29675">
        <ele>86.8</ele>
        <time>2021-11-18T15:06:33Z</time>
      </trkpt>
      <trkpt lat="44.47065" lon="1.29674">
        <ele>87.5</ele>
        <time>2021-11-18T15:06:39Z</time>
      </trkpt>
      <trkpt lat="44.47069" lon="1.2967">
        <ele>87.9</ele>
        <time>2021-11-18T15:06:45Z</time>
      </trkpt>
      <trkpt lat="44.47075" lon="1.29669">
        <ele>88.1</ele>
        <time>2021-11-18T15:07:01Z</time>
      </trkpt>
      <trkpt lat="44.4708" lon="1.2967">
        <ele>88.4</ele>
        <time>2021-11-18T15:07:06Z</time>
      </trkpt>
      <trkpt lat="44.47085" lon="1.2967">
        <ele>88</ele>
        <time>2021-11-18T15:07:13Z</time>
      </trkpt>
      <trkpt lat="44.4709" lon="1.2967">
        <ele>87</ele>
        <time>2021-11-18T15:07:21Z</time>
      </trkpt>
      <trkpt lat="44.47096" lon="1.29667">
        <ele>86.6</ele>
        <time>2021-11-18T15:07:26Z</time>
      </trkpt>
      <trkpt lat="44.47101" lon="1.29667">
        <ele>86.5</ele>
        <time>2021-11-18T15:07:31Z</time>
      </trkpt>
      <trkpt lat="44.47107" lon="1.29665">
        <ele>86.5</ele>
        <time>2021-11-18T15:07:37Z</time>
      </trkpt>
      <trkpt lat="44.47111" lon="1.29661">
        <ele>86.9</ele>
        <time>2021-11-18T15:07:40Z</time>
      </trkpt>
      <trkpt lat="44.47115" lon="1.29656">
        <ele>87.3</ele>
        <time>2021-11-18T15:07:43Z</time>
      </trkpt>
      <trkpt lat="44.47119" lon="1.29653">
        <ele>87.9</ele>
        <time>2021-11-18T15:07:47Z</time>
      </trkpt>
      <trkpt lat="44.47123" lon="1.2965">
        <ele>88.6</ele>
        <time>2021-11-18T15:07:52Z</time>
      </trkpt>
      <trkpt lat="44.47128" lon="1.29648">
        <ele>89.9</ele>
        <time>2021-11-18T15:07:58Z</time>
      </trkpt>
      <trkpt lat="44.47133" lon="1.29645">
        <ele>91.4</ele>
        <time>2021-11-18T15:08:03Z</time>
      </trkpt>
      <trkpt lat="44.47138" lon="1.29643">
        <ele>92.9</ele>
        <time>2021-11-18T15:08:08Z</time>
      </trkpt>
      <trkpt lat="44.47142" lon="1.2964">
        <ele>93.3</ele>
        <time>2021-11-18T15:08:12Z</time>
      </trkpt>
      <trkpt lat="44.47146" lon="1.29636">
        <ele>93.7</ele>
        <time>2021-11-18T15:08:19Z</time>
      </trkpt>
      <trkpt lat="44.4715" lon="1.2963">
        <ele>93.9</ele>
        <time>2021-11-18T15:08:23Z</time>
      </trkpt>
      <trkpt lat="44.47154" lon="1.29624">
        <ele>93.7</ele>
        <time>2021-11-18T15:08:28Z</time>
      </trkpt>
      <trkpt lat="44.47158" lon="1.29622">
        <ele>93.9</ele>
        <time>2021-11-18T15:08:35Z</time>
      </trkpt>
      <trkpt lat="44.47163" lon="1.29622">
        <ele>93.5</ele>
        <time>2021-11-18T15:08:45Z</time>
      </trkpt>
      <trkpt lat="44.47168" lon="1.29622">
        <ele>93.6</ele>
        <time>2021-11-18T15:08:52Z</time>
      </trkpt>
      <trkpt lat="44.47173" lon="1.29621">
        <ele>93.4</ele>
        <time>2021-11-18T15:08:59Z</time>
      </trkpt>
      <trkpt lat="44.47179" lon="1.29619">
        <ele>93.1</ele>
        <time>2021-11-18T15:09:02Z</time>
      </trkpt>
      <trkpt lat="44.47183" lon="1.29616">
        <ele>92.6</ele>
        <time>2021-11-18T15:09:05Z</time>
      </trkpt>
      <trkpt lat="44.47188" lon="1.29613">
        <ele>92.3</ele>
        <time>2021-11-18T15:09:09Z</time>
      </trkpt>
      <trkpt lat="44.47193" lon="1.29611">
        <ele>91.7</ele>
        <time>2021-11-18T15:09:18Z</time>
      </trkpt>
      <trkpt lat="44.47197" lon="1.29605">
        <ele>91.6</ele>
        <time>2021-11-18T15:09:22Z</time>
      </trkpt>
      <trkpt lat="44.47201" lon="1.29602">
        <ele>91.6</ele>
        <time>2021-11-18T15:09:25Z</time>
      </trkpt>
      <trkpt lat="44.47205" lon="1.29598">
        <ele>91.6</ele>
        <time>2021-11-18T15:09:31Z</time>
      </trkpt>
      <trkpt lat="44.47211" lon="1.29596">
        <ele>91.2</ele>
        <time>2021-11-18T15:09:52Z</time>
      </trkpt>
      <trkpt lat="44.47215" lon="1.29598">
        <ele>90.5</ele>
        <time>2021-11-18T15:10:01Z</time>
      </trkpt>
      <trkpt lat="44.47218" lon="1.29592">
        <ele>91.2</ele>
        <time>2021-11-18T15:10:11Z</time>
      </trkpt>
      <trkpt lat="44.47224" lon="1.29591">
        <ele>92.4</ele>
        <time>2021-11-18T15:10:17Z</time>
      </trkpt>
      <trkpt lat="44.47229" lon="1.29589">
        <ele>93.1</ele>
        <time>2021-11-18T15:10:22Z</time>
      </trkpt>
      <trkpt lat="44.47234" lon="1.29587">
        <ele>94</ele>
        <time>2021-11-18T15:10:27Z</time>
      </trkpt>
      <trkpt lat="44.47239" lon="1.29587">
        <ele>95.2</ele>
        <time>2021-11-18T15:10:33Z</time>
      </trkpt>
      <trkpt lat="44.47244" lon="1.29588">
        <ele>96.2</ele>
        <time>2021-11-18T15:10:41Z</time>
      </trkpt>
      <trkpt lat="44.47249" lon="1.29584">
        <ele>97.4</ele>
        <time>2021-11-18T15:10:48Z</time>
      </trkpt>
      <trkpt lat="44.47253" lon="1.29584">
        <ele>98.4</ele>
        <time>2021-11-18T15:10:56Z</time>
      </trkpt>
      <trkpt lat="44.47257" lon="1.29589">
        <ele>98.4</ele>
        <time>2021-11-18T15:11:02Z</time>
      </trkpt>
      <trkpt lat="44.4726" lon="1.29596">
        <ele>98.3</ele>
        <time>2021-11-18T15:11:07Z</time>
      </trkpt>
      <trkpt lat="44.47263" lon="1.29601">
        <ele>98.3</ele>
        <time>2021-11-18T15:11:14Z</time>
      </trkpt>
      <trkpt lat="44.47269" lon="1.296">
        <ele>98.2</ele>
        <time>2021-11-18T15:11:21Z</time>
      </trkpt>
      <trkpt lat="44.47273" lon="1.29599">
        <ele>98.3</ele>
        <time>2021-11-18T15:11:25Z</time>
      </trkpt>
      <trkpt lat="44.47278" lon="1.29597">
        <ele>98.5</ele>
        <time>2021-11-18T15:11:31Z</time>
      </trkpt>
      <trkpt lat="44.47278" lon="1.29589">
        <ele>98.4</ele>
        <time>2021-11-18T15:11:39Z</time>
      </trkpt>
      <trkpt lat="44.47279" lon="1.29583">
        <ele>98.1</ele>
        <time>2021-11-18T15:11:46Z</time>
      </trkpt>
      <trkpt lat="44.4728" lon="1.29576">
        <ele>97.9</ele>
        <time>2021-11-18T15:11:51Z</time>
      </trkpt>
      <trkpt lat="44.47282" lon="1.2957">
        <ele>97.8</ele>
        <time>2021-11-18T15:11:55Z</time>
      </trkpt>
      <trkpt lat="44.47284" lon="1.29563">
        <ele>97.6</ele>
        <time>2021-11-18T15:12:00Z</time>
      </trkpt>
      <trkpt lat="44.47286" lon="1.29557">
        <ele>97.6</ele>
        <time>2021-11-18T15:12:05Z</time>
      </trkpt>
      <trkpt lat="44.47287" lon="1.2955">
        <ele>98</ele>
        <time>2021-11-18T15:12:11Z</time>
      </trkpt>
      <trkpt lat="44.4729" lon="1.29545">
        <ele>98.5</ele>
        <time>2021-11-18T15:12:17Z</time>
      </trkpt>
      <trkpt lat="44.47294" lon="1.29542">
        <ele>98.9</ele>
        <time>2021-11-18T15:12:22Z</time>
      </trkpt>
      <trkpt lat="44.47299" lon="1.29538">
        <ele>99</ele>
        <time>2021-11-18T15:12:26Z</time>
      </trkpt>
      <trkpt lat="44.47302" lon="1.29532">
        <ele>99.2</ele>
        <time>2021-11-18T15:12:30Z</time>
      </trkpt>
      <trkpt lat="44.47304" lon="1.29526">
        <ele>99.9</ele>
        <time>2021-11-18T15:12:34Z</time>
      </trkpt>
      <trkpt lat="44.47309" lon="1.29524">
        <ele>100.2</ele>
        <time>2021-11-18T15:12:42Z</time>
      </trkpt>
      <trkpt lat="44.47313" lon="1.29521">
        <ele>99.9</ele>
        <time>2021-11-18T15:12:47Z</time>
      </trkpt>
      <trkpt lat="44.47318" lon="1.29518">
        <ele>99.5</ele>
        <time>2021-11-18T15:12:52Z</time>
      </trkpt>
      <trkpt lat="44.47323" lon="1.29516">
        <ele>99</ele>
        <time>2021-11-18T15:12:56Z</time>
      </trkpt>
      <trkpt lat="44.47327" lon="1.29513">
        <ele>98.5</ele>
        <time>2021-11-18T15:13:02Z</time>
      </trkpt>
      <trkpt lat="44.47332" lon="1.2951">
        <ele>98.4</ele>
        <time>2021-11-18T15:13:08Z</time>
      </trkpt>
      <trkpt lat="44.47336" lon="1.29508">
        <ele>98.2</ele>
        <time>2021-11-18T15:13:13Z</time>
      </trkpt>
      <trkpt lat="44.4734" lon="1.29505">
        <ele>98.1</ele>
        <time>2021-11-18T15:13:18Z</time>
      </trkpt>
      <trkpt lat="44.47345" lon="1.29501">
        <ele>98</ele>
        <time>2021-11-18T15:13:25Z</time>
      </trkpt>
      <trkpt lat="44.47348" lon="1.29497">
        <ele>97.8</ele>
        <time>2021-11-18T15:13:31Z</time>
      </trkpt>
      <trkpt lat="44.47352" lon="1.29493">
        <ele>97.9</ele>
        <time>2021-11-18T15:13:35Z</time>
      </trkpt>
      <trkpt lat="44.47356" lon="1.29489">
        <ele>98</ele>
        <time>2021-11-18T15:13:39Z</time>
      </trkpt>
      <trkpt lat="44.47361" lon="1.29487">
        <ele>98</ele>
        <time>2021-11-18T15:13:43Z</time>
      </trkpt>
      <trkpt lat="44.47366" lon="1.29485">
        <ele>98.1</ele>
        <time>2021-11-18T15:13:47Z</time>
      </trkpt>
      <trkpt lat="44.4737" lon="1.29483">
        <ele>97.8</ele>
        <time>2021-11-18T15:13:52Z</time>
      </trkpt>
      <trkpt lat="44.47375" lon="1.29483">
        <ele>97.1</ele>
        <time>2021-11-18T15:13:59Z</time>
      </trkpt>
      <trkpt lat="44.4738" lon="1.29482">
        <ele>96.8</ele>
        <time>2021-11-18T15:14:07Z</time>
      </trkpt>
      <trkpt lat="44.47385" lon="1.29481">
        <ele>96.3</ele>
        <time>2021-11-18T15:14:14Z</time>
      </trkpt>
      <trkpt lat="44.47389" lon="1.29479">
        <ele>95.9</ele>
        <time>2021-11-18T15:14:19Z</time>
      </trkpt>
      <trkpt lat="44.47394" lon="1.29476">
        <ele>95.7</ele>
        <time>2021-11-18T15:14:23Z</time>
      </trkpt>
      <trkpt lat="44.47398" lon="1.29474">
        <ele>95.6</ele>
        <time>2021-11-18T15:14:27Z</time>
      </trkpt>
      <trkpt lat="44.47403" lon="1.29471">
        <ele>95.5</ele>
        <time>2021-11-18T15:14:31Z</time>
      </trkpt>
      <trkpt lat="44.47407" lon="1.29468">
        <ele>95.3</ele>
        <time>2021-11-18T15:14:36Z</time>
      </trkpt>
      <trkpt lat="44.4741" lon="1.29464">
        <ele>95.4</ele>
        <time>2021-11-18T15:14:40Z</time>
      </trkpt>
      <trkpt lat="44.47415" lon="1.29462">
        <ele>95.4</ele>
        <time>2021-11-18T15:14:48Z</time>
      </trkpt>
      <trkpt lat="44.4742" lon="1.2946">
        <ele>95.8</ele>
        <time>2021-11-18T15:14:59Z</time>
      </trkpt>
      <trkpt lat="44.47424" lon="1.29457">
        <ele>95.5</ele>
        <time>2021-11-18T15:15:06Z</time>
      </trkpt>
      <trkpt lat="44.47428" lon="1.29454">
        <ele>95.2</ele>
        <time>2021-11-18T15:15:11Z</time>
      </trkpt>
      <trkpt lat="44.47432" lon="1.29452">
        <ele>94.9</ele>
        <time>2021-11-18T15:15:15Z</time>
      </trkpt>
      <trkpt lat="44.47437" lon="1.29452">
        <ele>94.3</ele>
        <time>2021-11-18T15:15:22Z</time>
      </trkpt>
      <trkpt lat="44.47441" lon="1.29446">
        <ele>94.2</ele>
        <time>2021-11-18T15:15:28Z</time>
      </trkpt>
      <trkpt lat="44.47442" lon="1.29439">
        <ele>94.3</ele>
        <time>2021-11-18T15:15:34Z</time>
      </trkpt>
      <trkpt lat="44.47446" lon="1.29436">
        <ele>94.6</ele>
        <time>2021-11-18T15:15:40Z</time>
      </trkpt>
      <trkpt lat="44.47451" lon="1.29434">
        <ele>94.9</ele>
        <time>2021-11-18T15:15:43Z</time>
      </trkpt>
      <trkpt lat="44.47456" lon="1.2943">
        <ele>95.1</ele>
        <time>2021-11-18T15:15:46Z</time>
      </trkpt>
      <trkpt lat="44.4746" lon="1.29427">
        <ele>95</ele>
        <time>2021-11-18T15:15:50Z</time>
      </trkpt>
      <trkpt lat="44.47463" lon="1.29421">
        <ele>94.5</ele>
        <time>2021-11-18T15:15:56Z</time>
      </trkpt>
      <trkpt lat="44.47467" lon="1.29418">
        <ele>94.3</ele>
        <time>2021-11-18T15:16:03Z</time>
      </trkpt>
      <trkpt lat="44.47472" lon="1.29416">
        <ele>94.7</ele>
        <time>2021-11-18T15:16:10Z</time>
      </trkpt>
      <trkpt lat="44.47477" lon="1.29414">
        <ele>95</ele>
        <time>2021-11-18T15:16:14Z</time>
      </trkpt>
      <trkpt lat="44.47481" lon="1.29412">
        <ele>95.1</ele>
        <time>2021-11-18T15:16:19Z</time>
      </trkpt>
      <trkpt lat="44.47486" lon="1.29409">
        <ele>95.5</ele>
        <time>2021-11-18T15:16:24Z</time>
      </trkpt>
      <trkpt lat="44.47491" lon="1.29406">
        <ele>96.2</ele>
        <time>2021-11-18T15:16:30Z</time>
      </trkpt>
      <trkpt lat="44.47496" lon="1.29403">
        <ele>96.6</ele>
        <time>2021-11-18T15:16:36Z</time>
      </trkpt>
      <trkpt lat="44.475" lon="1.29399">
        <ele>96.5</ele>
        <time>2021-11-18T15:16:42Z</time>
      </trkpt>
      <trkpt lat="44.47504" lon="1.29396">
        <ele>96.1</ele>
        <time>2021-11-18T15:16:47Z</time>
      </trkpt>
      <trkpt lat="44.47507" lon="1.29391">
        <ele>95.8</ele>
        <time>2021-11-18T15:16:52Z</time>
      </trkpt>
      <trkpt lat="44.47511" lon="1.29387">
        <ele>95.2</ele>
        <time>2021-11-18T15:16:59Z</time>
      </trkpt>
      <trkpt lat="44.47516" lon="1.29384">
        <ele>94.9</ele>
        <time>2021-11-18T15:17:03Z</time>
      </trkpt>
      <trkpt lat="44.47521" lon="1.29382">
        <ele>95.5</ele>
        <time>2021-11-18T15:17:07Z</time>
      </trkpt>
      <trkpt lat="44.47526" lon="1.2938">
        <ele>95.8</ele>
        <time>2021-11-18T15:17:11Z</time>
      </trkpt>
      <trkpt lat="44.4753" lon="1.29376">
        <ele>96</ele>
        <time>2021-11-18T15:17:16Z</time>
      </trkpt>
      <trkpt lat="44.47533" lon="1.29371">
        <ele>95.8</ele>
        <time>2021-11-18T15:17:23Z</time>
      </trkpt>
      <trkpt lat="44.47537" lon="1.29368">
        <ele>95.3</ele>
        <time>2021-11-18T15:17:32Z</time>
      </trkpt>
      <trkpt lat="44.47541" lon="1.29365">
        <ele>94.7</ele>
        <time>2021-11-18T15:17:39Z</time>
      </trkpt>
      <trkpt lat="44.47546" lon="1.29363">
        <ele>94</ele>
        <time>2021-11-18T15:17:48Z</time>
      </trkpt>
      <trkpt lat="44.4755" lon="1.29358">
        <ele>92.7</ele>
        <time>2021-11-18T15:17:57Z</time>
      </trkpt>
      <trkpt lat="44.47554" lon="1.29353">
        <ele>91.9</ele>
        <time>2021-11-18T15:18:01Z</time>
      </trkpt>
      <trkpt lat="44.47559" lon="1.29348">
        <ele>90.8</ele>
        <time>2021-11-18T15:18:05Z</time>
      </trkpt>
      <trkpt lat="44.47563" lon="1.29345">
        <ele>90</ele>
        <time>2021-11-18T15:18:08Z</time>
      </trkpt>
      <trkpt lat="44.47567" lon="1.29341">
        <ele>89.5</ele>
        <time>2021-11-18T15:18:12Z</time>
      </trkpt>
      <trkpt lat="44.47571" lon="1.29338">
        <ele>89.2</ele>
        <time>2021-11-18T15:18:17Z</time>
      </trkpt>
      <trkpt lat="44.47576" lon="1.29336">
        <ele>89.3</ele>
        <time>2021-11-18T15:18:22Z</time>
      </trkpt>
      <trkpt lat="44.47579" lon="1.29331">
        <ele>89.9</ele>
        <time>2021-11-18T15:18:28Z</time>
      </trkpt>
      <trkpt lat="44.47581" lon="1.29324">
        <ele>90.7</ele>
        <time>2021-11-18T15:18:34Z</time>
      </trkpt>
      <trkpt lat="44.47583" lon="1.29317">
        <ele>91.2</ele>
        <time>2021-11-18T15:18:38Z</time>
      </trkpt>
      <trkpt lat="44.47586" lon="1.29311">
        <ele>91.3</ele>
        <time>2021-11-18T15:18:41Z</time>
      </trkpt>
      <trkpt lat="44.4759" lon="1.29307">
        <ele>90.7</ele>
        <time>2021-11-18T15:18:47Z</time>
      </trkpt>
      <trkpt lat="44.47595" lon="1.29304">
        <ele>89.2</ele>
        <time>2021-11-18T15:18:55Z</time>
      </trkpt>
      <trkpt lat="44.476" lon="1.29305">
        <ele>88.9</ele>
        <time>2021-11-18T15:18:59Z</time>
      </trkpt>
      <trkpt lat="44.47605" lon="1.29301">
        <ele>88.6</ele>
        <time>2021-11-18T15:19:03Z</time>
      </trkpt>
      <trkpt lat="44.47609" lon="1.29296">
        <ele>88.3</ele>
        <time>2021-11-18T15:19:07Z</time>
      </trkpt>
      <trkpt lat="44.47613" lon="1.29292">
        <ele>88.1</ele>
        <time>2021-11-18T15:19:12Z</time>
      </trkpt>
      <trkpt lat="44.47619" lon="1.2929">
        <ele>88.1</ele>
        <time>2021-11-18T15:19:16Z</time>
      </trkpt>
      <trkpt lat="44.47622" lon="1.29284">
        <ele>88.3</ele>
        <time>2021-11-18T15:19:21Z</time>
      </trkpt>
      <trkpt lat="44.47623" lon="1.29277">
        <ele>88.8</ele>
        <time>2021-11-18T15:19:25Z</time>
      </trkpt>
      <trkpt lat="44.47626" lon="1.29271">
        <ele>89.9</ele>
        <time>2021-11-18T15:19:29Z</time>
      </trkpt>
      <trkpt lat="44.47631" lon="1.29268">
        <ele>91</ele>
        <time>2021-11-18T15:19:34Z</time>
      </trkpt>
      <trkpt lat="44.47633" lon="1.29261">
        <ele>92.1</ele>
        <time>2021-11-18T15:19:41Z</time>
      </trkpt>
      <trkpt lat="44.47637" lon="1.29256">
        <ele>92.5</ele>
        <time>2021-11-18T15:19:47Z</time>
      </trkpt>
      <trkpt lat="44.47643" lon="1.29254">
        <ele>92.8</ele>
        <time>2021-11-18T15:19:52Z</time>
      </trkpt>
      <trkpt lat="44.47648" lon="1.29253">
        <ele>93</ele>
        <time>2021-11-18T15:19:56Z</time>
      </trkpt>
      <trkpt lat="44.47651" lon="1.29249">
        <ele>92.8</ele>
        <time>2021-11-18T15:20:00Z</time>
      </trkpt>
      <trkpt lat="44.47655" lon="1.29243">
        <ele>91.7</ele>
        <time>2021-11-18T15:20:04Z</time>
      </trkpt>
      <trkpt lat="44.47658" lon="1.29237">
        <ele>91.2</ele>
        <time>2021-11-18T15:20:08Z</time>
      </trkpt>
      <trkpt lat="44.47661" lon="1.29232">
        <ele>90.9</ele>
        <time>2021-11-18T15:20:12Z</time>
      </trkpt>
      <trkpt lat="44.47664" lon="1.29228">
        <ele>90.7</ele>
        <time>2021-11-18T15:20:16Z</time>
      </trkpt>
      <trkpt lat="44.4767" lon="1.29225">
        <ele>90.6</ele>
        <time>2021-11-18T15:20:20Z</time>
      </trkpt>
      <trkpt lat="44.47674" lon="1.29222">
        <ele>90.7</ele>
        <time>2021-11-18T15:20:26Z</time>
      </trkpt>
      <trkpt lat="44.47679" lon="1.2922">
        <ele>90.7</ele>
        <time>2021-11-18T15:20:32Z</time>
      </trkpt>
      <trkpt lat="44.47682" lon="1.29215">
        <ele>89.9</ele>
        <time>2021-11-18T15:20:45Z</time>
      </trkpt>
      <trkpt lat="44.47686" lon="1.29211">
        <ele>88.3</ele>
        <time>2021-11-18T15:20:54Z</time>
      </trkpt>
      <trkpt lat="44.4769" lon="1.29207">
        <ele>87.4</ele>
        <time>2021-11-18T15:21:00Z</time>
      </trkpt>
      <trkpt lat="44.47694" lon="1.29202">
        <ele>87.1</ele>
        <time>2021-11-18T15:21:04Z</time>
      </trkpt>
      <trkpt lat="44.47697" lon="1.29197">
        <ele>87.1</ele>
        <time>2021-11-18T15:21:08Z</time>
      </trkpt>
      <trkpt lat="44.47701" lon="1.29193">
        <ele>87.5</ele>
        <time>2021-11-18T15:21:12Z</time>
      </trkpt>
      <trkpt lat="44.47705" lon="1.29188">
        <ele>87.9</ele>
        <time>2021-11-18T15:21:17Z</time>
      </trkpt>
      <trkpt lat="44.47708" lon="1.29183">
        <ele>88.2</ele>
        <time>2021-11-18T15:21:22Z</time>
      </trkpt>
      <trkpt lat="44.47711" lon="1.29178">
        <ele>88.4</ele>
        <time>2021-11-18T15:21:27Z</time>
      </trkpt>
      <trkpt lat="44.47715" lon="1.29173">
        <ele>87.9</ele>
        <time>2021-11-18T15:21:33Z</time>
      </trkpt>
      <trkpt lat="44.47719" lon="1.29169">
        <ele>87.2</ele>
        <time>2021-11-18T15:21:37Z</time>
      </trkpt>
      <trkpt lat="44.47724" lon="1.29164">
        <ele>86.5</ele>
        <time>2021-11-18T15:21:41Z</time>
      </trkpt>
      <trkpt lat="44.47728" lon="1.29161">
        <ele>85.1</ele>
        <time>2021-11-18T15:21:46Z</time>
      </trkpt>
      <trkpt lat="44.47733" lon="1.29158">
        <ele>84.5</ele>
        <time>2021-11-18T15:21:51Z</time>
      </trkpt>
      <trkpt lat="44.47738" lon="1.29156">
        <ele>83.9</ele>
        <time>2021-11-18T15:21:56Z</time>
      </trkpt>
      <trkpt lat="44.47743" lon="1.29153">
        <ele>83.5</ele>
        <time>2021-11-18T15:22:02Z</time>
      </trkpt>
      <trkpt lat="44.47747" lon="1.2915">
        <ele>83.6</ele>
        <time>2021-11-18T15:22:07Z</time>
      </trkpt>
      <trkpt lat="44.47752" lon="1.2915">
        <ele>83.4</ele>
        <time>2021-11-18T15:22:15Z</time>
      </trkpt>
      <trkpt lat="44.47757" lon="1.29147">
        <ele>84.3</ele>
        <time>2021-11-18T15:22:21Z</time>
      </trkpt>
      <trkpt lat="44.47761" lon="1.29143">
        <ele>85.6</ele>
        <time>2021-11-18T15:22:25Z</time>
      </trkpt>
      <trkpt lat="44.47765" lon="1.29139">
        <ele>86.7</ele>
        <time>2021-11-18T15:22:29Z</time>
      </trkpt>
      <trkpt lat="44.47769" lon="1.29135">
        <ele>87.5</ele>
        <time>2021-11-18T15:22:33Z</time>
      </trkpt>
      <trkpt lat="44.47773" lon="1.29132">
        <ele>88.1</ele>
        <time>2021-11-18T15:22:37Z</time>
      </trkpt>
      <trkpt lat="44.47777" lon="1.29127">
        <ele>88.7</ele>
        <time>2021-11-18T15:22:43Z</time>
      </trkpt>
      <trkpt lat="44.4778" lon="1.2912">
        <ele>88.8</ele>
        <time>2021-11-18T15:22:49Z</time>
      </trkpt>
      <trkpt lat="44.47783" lon="1.29115">
        <ele>88.9</ele>
        <time>2021-11-18T15:22:54Z</time>
      </trkpt>
      <trkpt lat="44.47784" lon="1.29108">
        <ele>89.9</ele>
        <time>2021-11-18T15:23:04Z</time>
      </trkpt>
      <trkpt lat="44.47785" lon="1.29101">
        <ele>90.8</ele>
        <time>2021-11-18T15:23:13Z</time>
      </trkpt>
      <trkpt lat="44.47787" lon="1.29095">
        <ele>91.4</ele>
        <time>2021-11-18T15:23:18Z</time>
      </trkpt>
      <trkpt lat="44.47791" lon="1.29091">
        <ele>91.9</ele>
        <time>2021-11-18T15:23:23Z</time>
      </trkpt>
      <trkpt lat="44.47794" lon="1.29086">
        <ele>92.4</ele>
        <time>2021-11-18T15:23:27Z</time>
      </trkpt>
      <trkpt lat="44.47798" lon="1.29082">
        <ele>92.6</ele>
        <time>2021-11-18T15:23:31Z</time>
      </trkpt>
      <trkpt lat="44.47802" lon="1.29078">
        <ele>93.2</ele>
        <time>2021-11-18T15:23:37Z</time>
      </trkpt>
      <trkpt lat="44.47806" lon="1.29073">
        <ele>93.6</ele>
        <time>2021-11-18T15:23:42Z</time>
      </trkpt>
      <trkpt lat="44.47809" lon="1.29068">
        <ele>94.1</ele>
        <time>2021-11-18T15:23:46Z</time>
      </trkpt>
      <trkpt lat="44.47813" lon="1.29063">
        <ele>94.5</ele>
        <time>2021-11-18T15:23:51Z</time>
      </trkpt>
      <trkpt lat="44.47817" lon="1.2906">
        <ele>94.3</ele>
        <time>2021-11-18T15:23:55Z</time>
      </trkpt>
      <trkpt lat="44.47822" lon="1.29058">
        <ele>93.9</ele>
        <time>2021-11-18T15:24:01Z</time>
      </trkpt>
      <trkpt lat="44.47817" lon="1.29058">
        <ele>93.6</ele>
        <time>2021-11-18T15:24:29Z</time>
      </trkpt>
      <trkpt lat="44.47813" lon="1.29062">
        <ele>93.9</ele>
        <time>2021-11-18T15:24:34Z</time>
      </trkpt>
      <trkpt lat="44.47808" lon="1.29062">
        <ele>93.9</ele>
        <time>2021-11-18T15:24:40Z</time>
      </trkpt>
      <trkpt lat="44.47808" lon="1.29055">
        <ele>93.6</ele>
        <time>2021-11-18T15:24:46Z</time>
      </trkpt>
      <trkpt lat="44.47814" lon="1.29049">
        <ele>93.1</ele>
        <time>2021-11-18T15:25:06Z</time>
      </trkpt>
      <trkpt lat="44.47818" lon="1.29049">
        <ele>93.2</ele>
        <time>2021-11-18T15:25:11Z</time>
      </trkpt>
      <trkpt lat="44.47823" lon="1.29047">
        <ele>93.4</ele>
        <time>2021-11-18T15:25:19Z</time>
      </trkpt>
      <trkpt lat="44.47827" lon="1.2904">
        <ele>93.6</ele>
        <time>2021-11-18T15:25:27Z</time>
      </trkpt>
      <trkpt lat="44.47831" lon="1.29036">
        <ele>93.5</ele>
        <time>2021-11-18T15:25:31Z</time>
      </trkpt>
      <trkpt lat="44.47836" lon="1.29032">
        <ele>93.4</ele>
        <time>2021-11-18T15:25:39Z</time>
      </trkpt>
      <trkpt lat="44.4784" lon="1.29029">
        <ele>93.4</ele>
        <time>2021-11-18T15:25:44Z</time>
      </trkpt>
      <trkpt lat="44.47844" lon="1.29026">
        <ele>93.2</ele>
        <time>2021-11-18T15:25:48Z</time>
      </trkpt>
      <trkpt lat="44.47849" lon="1.29024">
        <ele>92.6</ele>
        <time>2021-11-18T15:25:54Z</time>
      </trkpt>
      <trkpt lat="44.47853" lon="1.2902">
        <ele>91.5</ele>
        <time>2021-11-18T15:26:05Z</time>
      </trkpt>
      <trkpt lat="44.47858" lon="1.29019">
        <ele>91.5</ele>
        <time>2021-11-18T15:26:12Z</time>
      </trkpt>
      <trkpt lat="44.47862" lon="1.29021">
        <ele>91.3</ele>
        <time>2021-11-18T15:26:18Z</time>
      </trkpt>
      <trkpt lat="44.47867" lon="1.2902">
        <ele>92.1</ele>
        <time>2021-11-18T15:26:25Z</time>
      </trkpt>
      <trkpt lat="44.47868" lon="1.29027">
        <ele>91.8</ele>
        <time>2021-11-18T15:26:34Z</time>
      </trkpt>
      <trkpt lat="44.47865" lon="1.29022">
        <ele>90.8</ele>
        <time>2021-11-18T15:26:58Z</time>
      </trkpt>
      <trkpt lat="44.47864" lon="1.29015">
        <ele>90.8</ele>
        <time>2021-11-18T15:27:02Z</time>
      </trkpt>
      <trkpt lat="44.47864" lon="1.29021">
        <ele>89.9</ele>
        <time>2021-11-18T15:27:46Z</time>
      </trkpt>
      <trkpt lat="44.47867" lon="1.29015">
        <ele>91</ele>
        <time>2021-11-18T15:28:01Z</time>
      </trkpt>
      <trkpt lat="44.4787" lon="1.2901">
        <ele>92.1</ele>
        <time>2021-11-18T15:28:06Z</time>
      </trkpt>
      <trkpt lat="44.47873" lon="1.29004">
        <ele>93.3</ele>
        <time>2021-11-18T15:28:11Z</time>
      </trkpt>
      <trkpt lat="44.47876" lon="1.28999">
        <ele>93.9</ele>
        <time>2021-11-18T15:28:17Z</time>
      </trkpt>
      <trkpt lat="44.4788" lon="1.28995">
        <ele>94.3</ele>
        <time>2021-11-18T15:28:21Z</time>
      </trkpt>
      <trkpt lat="44.47885" lon="1.28994">
        <ele>94.4</ele>
        <time>2021-11-18T15:28:24Z</time>
      </trkpt>
      <trkpt lat="44.47889" lon="1.28992">
        <ele>94.7</ele>
        <time>2021-11-18T15:28:27Z</time>
      </trkpt>
      <trkpt lat="44.47894" lon="1.28989">
        <ele>95.1</ele>
        <time>2021-11-18T15:28:31Z</time>
      </trkpt>
      <trkpt lat="44.47899" lon="1.28987">
        <ele>94.9</ele>
        <time>2021-11-18T15:28:42Z</time>
      </trkpt>
      <trkpt lat="44.47903" lon="1.28984">
        <ele>94.8</ele>
        <time>2021-11-18T15:28:48Z</time>
      </trkpt>
      <trkpt lat="44.47907" lon="1.28979">
        <ele>94.9</ele>
        <time>2021-11-18T15:28:54Z</time>
      </trkpt>
      <trkpt lat="44.47912" lon="1.28974">
        <ele>95.2</ele>
        <time>2021-11-18T15:28:57Z</time>
      </trkpt>
      <trkpt lat="44.47916" lon="1.2897">
        <ele>95.4</ele>
        <time>2021-11-18T15:29:00Z</time>
      </trkpt>
      <trkpt lat="44.47921" lon="1.28967">
        <ele>95.7</ele>
        <time>2021-11-18T15:29:04Z</time>
      </trkpt>
      <trkpt lat="44.47926" lon="1.28964">
        <ele>95.8</ele>
        <time>2021-11-18T15:29:07Z</time>
      </trkpt>
      <trkpt lat="44.47931" lon="1.28967">
        <ele>96.2</ele>
        <time>2021-11-18T15:29:13Z</time>
      </trkpt>
      <trkpt lat="44.47932" lon="1.28973">
        <ele>96.5</ele>
        <time>2021-11-18T15:29:19Z</time>
      </trkpt>
      <trkpt lat="44.4793" lon="1.28979">
        <ele>96.6</ele>
        <time>2021-11-18T15:29:25Z</time>
      </trkpt>
      <trkpt lat="44.47927" lon="1.28986">
        <ele>94.9</ele>
        <time>2021-11-18T15:29:47Z</time>
      </trkpt>
      <trkpt lat="44.47924" lon="1.2899">
        <ele>95.5</ele>
        <time>2021-11-18T15:29:53Z</time>
      </trkpt>
      <trkpt lat="44.4792" lon="1.28995">
        <ele>96.4</ele>
        <time>2021-11-18T15:29:58Z</time>
      </trkpt>
      <trkpt lat="44.47917" lon="1.28999">
        <ele>97.5</ele>
        <time>2021-11-18T15:30:02Z</time>
      </trkpt>
      <trkpt lat="44.47914" lon="1.29005">
        <ele>99</ele>
        <time>2021-11-18T15:30:07Z</time>
      </trkpt>
      <trkpt lat="44.4791" lon="1.2901">
        <ele>100</ele>
        <time>2021-11-18T15:30:12Z</time>
      </trkpt>
      <trkpt lat="44.47905" lon="1.29014">
        <ele>100.6</ele>
        <time>2021-11-18T15:30:16Z</time>
      </trkpt>
      <trkpt lat="44.47901" lon="1.29018">
        <ele>100.8</ele>
        <time>2021-11-18T15:30:20Z</time>
      </trkpt>
      <trkpt lat="44.47897" lon="1.29021">
        <ele>101.9</ele>
        <time>2021-11-18T15:30:28Z</time>
      </trkpt>
      <trkpt lat="44.47893" lon="1.29019">
        <ele>102.9</ele>
        <time>2021-11-18T15:30:35Z</time>
      </trkpt>
      <trkpt lat="44.4789" lon="1.29015">
        <ele>103.9</ele>
        <time>2021-11-18T15:30:42Z</time>
      </trkpt>
      <trkpt lat="44.47889" lon="1.29008">
        <ele>104.7</ele>
        <time>2021-11-18T15:30:50Z</time>
      </trkpt>
      <trkpt lat="44.47886" lon="1.29002">
        <ele>104.8</ele>
        <time>2021-11-18T15:30:57Z</time>
      </trkpt>
      <trkpt lat="44.47884" lon="1.28996">
        <ele>104.6</ele>
        <time>2021-11-18T15:31:02Z</time>
      </trkpt>
      <trkpt lat="44.47883" lon="1.28989">
        <ele>104.6</ele>
        <time>2021-11-18T15:31:07Z</time>
      </trkpt>
      <trkpt lat="44.47882" lon="1.28982">
        <ele>104.7</ele>
        <time>2021-11-18T15:31:12Z</time>
      </trkpt>
      <trkpt lat="44.47882" lon="1.28976">
        <ele>104.9</ele>
        <time>2021-11-18T15:31:18Z</time>
      </trkpt>
      <trkpt lat="44.4788" lon="1.28969">
        <ele>104.9</ele>
        <time>2021-11-18T15:31:25Z</time>
      </trkpt>
      <trkpt lat="44.47878" lon="1.28962">
        <ele>104.4</ele>
        <time>2021-11-18T15:31:31Z</time>
      </trkpt>
      <trkpt lat="44.47878" lon="1.28956">
        <ele>104</ele>
        <time>2021-11-18T15:31:35Z</time>
      </trkpt>
      <trkpt lat="44.47877" lon="1.28949">
        <ele>102.9</ele>
        <time>2021-11-18T15:31:42Z</time>
      </trkpt>
      <trkpt lat="44.47876" lon="1.28942">
        <ele>101.7</ele>
        <time>2021-11-18T15:31:48Z</time>
      </trkpt>
      <trkpt lat="44.47876" lon="1.28935">
        <ele>101.1</ele>
        <time>2021-11-18T15:31:53Z</time>
      </trkpt>
      <trkpt lat="44.47874" lon="1.28929">
        <ele>100.9</ele>
        <time>2021-11-18T15:31:58Z</time>
      </trkpt>
      <trkpt lat="44.47872" lon="1.28922">
        <ele>100.9</ele>
        <time>2021-11-18T15:32:03Z</time>
      </trkpt>
      <trkpt lat="44.4787" lon="1.28916">
        <ele>100.7</ele>
        <time>2021-11-18T15:32:07Z</time>
      </trkpt>
      <trkpt lat="44.47868" lon="1.2891">
        <ele>100.7</ele>
        <time>2021-11-18T15:32:11Z</time>
      </trkpt>
      <trkpt lat="44.47866" lon="1.28903">
        <ele>100.8</ele>
        <time>2021-11-18T15:32:16Z</time>
      </trkpt>
      <trkpt lat="44.47864" lon="1.28897">
        <ele>101.2</ele>
        <time>2021-11-18T15:32:20Z</time>
      </trkpt>
      <trkpt lat="44.47863" lon="1.28891">
        <ele>102.3</ele>
        <time>2021-11-18T15:32:27Z</time>
      </trkpt>
      <trkpt lat="44.47863" lon="1.28884">
        <ele>103.2</ele>
        <time>2021-11-18T15:32:33Z</time>
      </trkpt>
      <trkpt lat="44.47861" lon="1.28875">
        <ele>103.3</ele>
        <time>2021-11-18T15:32:36Z</time>
      </trkpt>
      <trkpt lat="44.4786" lon="1.28867">
        <ele>103.3</ele>
        <time>2021-11-18T15:32:40Z</time>
      </trkpt>
      <trkpt lat="44.47858" lon="1.28861">
        <ele>103.1</ele>
        <time>2021-11-18T15:32:44Z</time>
      </trkpt>
      <trkpt lat="44.47856" lon="1.28855">
        <ele>103.1</ele>
        <time>2021-11-18T15:32:48Z</time>
      </trkpt>
      <trkpt lat="44.47855" lon="1.28849">
        <ele>103.2</ele>
        <time>2021-11-18T15:32:52Z</time>
      </trkpt>
      <trkpt lat="44.47853" lon="1.28842">
        <ele>103.1</ele>
        <time>2021-11-18T15:32:57Z</time>
      </trkpt>
      <trkpt lat="44.4785" lon="1.28836">
        <ele>103</ele>
        <time>2021-11-18T15:33:02Z</time>
      </trkpt>
      <trkpt lat="44.47849" lon="1.28829">
        <ele>102.8</ele>
        <time>2021-11-18T15:33:07Z</time>
      </trkpt>
      <trkpt lat="44.47847" lon="1.28823">
        <ele>102.6</ele>
        <time>2021-11-18T15:33:11Z</time>
      </trkpt>
      <trkpt lat="44.47845" lon="1.28816">
        <ele>102.3</ele>
        <time>2021-11-18T15:33:16Z</time>
      </trkpt>
      <trkpt lat="44.47844" lon="1.2881">
        <ele>101.8</ele>
        <time>2021-11-18T15:33:20Z</time>
      </trkpt>
      <trkpt lat="44.47843" lon="1.28803">
        <ele>100.9</ele>
        <time>2021-11-18T15:33:25Z</time>
      </trkpt>
      <trkpt lat="44.4784" lon="1.28796">
        <ele>100.2</ele>
        <time>2021-11-18T15:33:30Z</time>
      </trkpt>
      <trkpt lat="44.47837" lon="1.28792">
        <ele>99.6</ele>
        <time>2021-11-18T15:33:35Z</time>
      </trkpt>
      <trkpt lat="44.47833" lon="1.28788">
        <ele>99.1</ele>
        <time>2021-11-18T15:33:41Z</time>
      </trkpt>
      <trkpt lat="44.47829" lon="1.28787">
        <ele>98.3</ele>
        <time>2021-11-18T15:33:47Z</time>
      </trkpt>
      <trkpt lat="44.47824" lon="1.2879">
        <ele>97.8</ele>
        <time>2021-11-18T15:33:58Z</time>
      </trkpt>
      <trkpt lat="44.47818" lon="1.28792">
        <ele>97.6</ele>
        <time>2021-11-18T15:34:02Z</time>
      </trkpt>
      <trkpt lat="44.47814" lon="1.28796">
        <ele>97.3</ele>
        <time>2021-11-18T15:34:06Z</time>
      </trkpt>
      <trkpt lat="44.47809" lon="1.28799">
        <ele>96.6</ele>
        <time>2021-11-18T15:34:09Z</time>
      </trkpt>
      <trkpt lat="44.47805" lon="1.28801">
        <ele>96</ele>
        <time>2021-11-18T15:34:12Z</time>
      </trkpt>
      <trkpt lat="44.47801" lon="1.28805">
        <ele>94.8</ele>
        <time>2021-11-18T15:34:17Z</time>
      </trkpt>
      <trkpt lat="44.47796" lon="1.28808">
        <ele>93.8</ele>
        <time>2021-11-18T15:34:22Z</time>
      </trkpt>
      <trkpt lat="44.47791" lon="1.2881">
        <ele>92.6</ele>
        <time>2021-11-18T15:34:27Z</time>
      </trkpt>
      <trkpt lat="44.47786" lon="1.28809">
        <ele>91.2</ele>
        <time>2021-11-18T15:34:32Z</time>
      </trkpt>
      <trkpt lat="44.47781" lon="1.28811">
        <ele>89.8</ele>
        <time>2021-11-18T15:34:37Z</time>
      </trkpt>
      <trkpt lat="44.47777" lon="1.28814">
        <ele>88.8</ele>
        <time>2021-11-18T15:34:41Z</time>
      </trkpt>
      <trkpt lat="44.47773" lon="1.28818">
        <ele>88.4</ele>
        <time>2021-11-18T15:34:44Z</time>
      </trkpt>
      <trkpt lat="44.4777" lon="1.28823">
        <ele>88.1</ele>
        <time>2021-11-18T15:34:47Z</time>
      </trkpt>
      <trkpt lat="44.47768" lon="1.28829">
        <ele>88</ele>
        <time>2021-11-18T15:34:51Z</time>
      </trkpt>
      <trkpt lat="44.47765" lon="1.28835">
        <ele>87.6</ele>
        <time>2021-11-18T15:34:56Z</time>
      </trkpt>
      <trkpt lat="44.47762" lon="1.28841">
        <ele>87.4</ele>
        <time>2021-11-18T15:35:01Z</time>
      </trkpt>
      <trkpt lat="44.4776" lon="1.28847">
        <ele>87.5</ele>
        <time>2021-11-18T15:35:04Z</time>
      </trkpt>
      <trkpt lat="44.47759" lon="1.28853">
        <ele>87.7</ele>
        <time>2021-11-18T15:35:07Z</time>
      </trkpt>
      <trkpt lat="44.47757" lon="1.2886">
        <ele>87.8</ele>
        <time>2021-11-18T15:35:11Z</time>
      </trkpt>
      <trkpt lat="44.47754" lon="1.28865">
        <ele>87.7</ele>
        <time>2021-11-18T15:35:15Z</time>
      </trkpt>
      <trkpt lat="44.4775" lon="1.28868">
        <ele>87.7</ele>
        <time>2021-11-18T15:35:19Z</time>
      </trkpt>
      <trkpt lat="44.47744" lon="1.28869">
        <ele>87.8</ele>
        <time>2021-11-18T15:35:23Z</time>
      </trkpt>
      <trkpt lat="44.47739" lon="1.28868">
        <ele>88</ele>
        <time>2021-11-18T15:35:27Z</time>
      </trkpt>
      <trkpt lat="44.47735" lon="1.28869">
        <ele>88.2</ele>
        <time>2021-11-18T15:35:31Z</time>
      </trkpt>
      <trkpt lat="44.4773" lon="1.28868">
        <ele>88.1</ele>
        <time>2021-11-18T15:35:35Z</time>
      </trkpt>
      <trkpt lat="44.47726" lon="1.28864">
        <ele>88</ele>
        <time>2021-11-18T15:35:39Z</time>
      </trkpt>
      <trkpt lat="44.47722" lon="1.28861">
        <ele>87.8</ele>
        <time>2021-11-18T15:35:43Z</time>
      </trkpt>
      <trkpt lat="44.47717" lon="1.28858">
        <ele>87.4</ele>
        <time>2021-11-18T15:35:49Z</time>
      </trkpt>
      <trkpt lat="44.47712" lon="1.28861">
        <ele>87.3</ele>
        <time>2021-11-18T15:35:53Z</time>
      </trkpt>
      <trkpt lat="44.4771" lon="1.28866">
        <ele>87.5</ele>
        <time>2021-11-18T15:35:58Z</time>
      </trkpt>
      <trkpt lat="44.47704" lon="1.28862">
        <ele>87.6</ele>
        <time>2021-11-18T15:36:05Z</time>
      </trkpt>
      <trkpt lat="44.47699" lon="1.2886">
        <ele>87.6</ele>
        <time>2021-11-18T15:36:09Z</time>
      </trkpt>
      <trkpt lat="44.47694" lon="1.28857">
        <ele>87.4</ele>
        <time>2021-11-18T15:36:13Z</time>
      </trkpt>
      <trkpt lat="44.47689" lon="1.28855">
        <ele>87.2</ele>
        <time>2021-11-18T15:36:16Z</time>
      </trkpt>
      <trkpt lat="44.47684" lon="1.28852">
        <ele>86.8</ele>
        <time>2021-11-18T15:36:20Z</time>
      </trkpt>
      <trkpt lat="44.47682" lon="1.28859">
        <ele>87</ele>
        <time>2021-11-18T15:36:55Z</time>
      </trkpt>
      <trkpt lat="44.47678" lon="1.28867">
        <ele>90.8</ele>
        <time>2021-11-18T15:37:44Z</time>
      </trkpt>
      <trkpt lat="44.47675" lon="1.28872">
        <ele>96.7</ele>
        <time>2021-11-18T15:38:57Z</time>
      </trkpt>
      <trkpt lat="44.4767" lon="1.28871">
        <ele>98.4</ele>
        <time>2021-11-18T15:39:17Z</time>
      </trkpt>
      <trkpt lat="44.47666" lon="1.28874">
        <ele>98.3</ele>
        <time>2021-11-18T15:39:21Z</time>
      </trkpt>
      <trkpt lat="44.47661" lon="1.28876">
        <ele>98.3</ele>
        <time>2021-11-18T15:39:25Z</time>
      </trkpt>
      <trkpt lat="44.47657" lon="1.28879">
        <ele>98.6</ele>
        <time>2021-11-18T15:39:30Z</time>
      </trkpt>
      <trkpt lat="44.47652" lon="1.2888">
        <ele>98.9</ele>
        <time>2021-11-18T15:39:33Z</time>
      </trkpt>
      <trkpt lat="44.47647" lon="1.28879">
        <ele>99.5</ele>
        <time>2021-11-18T15:39:37Z</time>
      </trkpt>
      <trkpt lat="44.47642" lon="1.2888">
        <ele>99</ele>
        <time>2021-11-18T15:39:42Z</time>
      </trkpt>
      <trkpt lat="44.47637" lon="1.28883">
        <ele>97.9</ele>
        <time>2021-11-18T15:39:46Z</time>
      </trkpt>
      <trkpt lat="44.47633" lon="1.28885">
        <ele>96.8</ele>
        <time>2021-11-18T15:39:51Z</time>
      </trkpt>
      <trkpt lat="44.47628" lon="1.28887">
        <ele>94.9</ele>
        <time>2021-11-18T15:39:57Z</time>
      </trkpt>
      <trkpt lat="44.47623" lon="1.28888">
        <ele>93.3</ele>
        <time>2021-11-18T15:40:02Z</time>
      </trkpt>
      <trkpt lat="44.47618" lon="1.28891">
        <ele>92.2</ele>
        <time>2021-11-18T15:40:07Z</time>
      </trkpt>
      <trkpt lat="44.47614" lon="1.28895">
        <ele>91.6</ele>
        <time>2021-11-18T15:40:10Z</time>
      </trkpt>
      <trkpt lat="44.47611" lon="1.28901">
        <ele>91.3</ele>
        <time>2021-11-18T15:40:13Z</time>
      </trkpt>
      <trkpt lat="44.47607" lon="1.28905">
        <ele>91.3</ele>
        <time>2021-11-18T15:40:16Z</time>
      </trkpt>
      <trkpt lat="44.47603" lon="1.28909">
        <ele>91.3</ele>
        <time>2021-11-18T15:40:20Z</time>
      </trkpt>
      <trkpt lat="44.47598" lon="1.28912">
        <ele>91</ele>
        <time>2021-11-18T15:40:26Z</time>
      </trkpt>
      <trkpt lat="44.47593" lon="1.28912">
        <ele>88.8</ele>
        <time>2021-11-18T15:40:36Z</time>
      </trkpt>
      <trkpt lat="44.47588" lon="1.28915">
        <ele>88.1</ele>
        <time>2021-11-18T15:40:40Z</time>
      </trkpt>
      <trkpt lat="44.47585" lon="1.2892">
        <ele>87.2</ele>
        <time>2021-11-18T15:40:45Z</time>
      </trkpt>
      <trkpt lat="44.47581" lon="1.28924">
        <ele>86.9</ele>
        <time>2021-11-18T15:40:49Z</time>
      </trkpt>
      <trkpt lat="44.47576" lon="1.28926">
        <ele>86.5</ele>
        <time>2021-11-18T15:40:53Z</time>
      </trkpt>
      <trkpt lat="44.47572" lon="1.2893">
        <ele>86.5</ele>
        <time>2021-11-18T15:40:57Z</time>
      </trkpt>
      <trkpt lat="44.47568" lon="1.28934">
        <ele>86.9</ele>
        <time>2021-11-18T15:41:02Z</time>
      </trkpt>
      <trkpt lat="44.47564" lon="1.28939">
        <ele>87.2</ele>
        <time>2021-11-18T15:41:07Z</time>
      </trkpt>
      <trkpt lat="44.4756" lon="1.28942">
        <ele>87</ele>
        <time>2021-11-18T15:41:13Z</time>
      </trkpt>
      <trkpt lat="44.47555" lon="1.28946">
        <ele>87</ele>
        <time>2021-11-18T15:41:17Z</time>
      </trkpt>
      <trkpt lat="44.47551" lon="1.28948">
        <ele>87.6</ele>
        <time>2021-11-18T15:41:21Z</time>
      </trkpt>
      <trkpt lat="44.47547" lon="1.28955">
        <ele>89.2</ele>
        <time>2021-11-18T15:41:26Z</time>
      </trkpt>
      <trkpt lat="44.47544" lon="1.2896">
        <ele>90.5</ele>
        <time>2021-11-18T15:41:30Z</time>
      </trkpt>
      <trkpt lat="44.4754" lon="1.28965">
        <ele>91.3</ele>
        <time>2021-11-18T15:41:34Z</time>
      </trkpt>
      <trkpt lat="44.47536" lon="1.2897">
        <ele>91.3</ele>
        <time>2021-11-18T15:41:38Z</time>
      </trkpt>
      <trkpt lat="44.47532" lon="1.28974">
        <ele>91.2</ele>
        <time>2021-11-18T15:41:43Z</time>
      </trkpt>
      <trkpt lat="44.47528" lon="1.28978">
        <ele>90.9</ele>
        <time>2021-11-18T15:41:47Z</time>
      </trkpt>
      <trkpt lat="44.47524" lon="1.28983">
        <ele>90.4</ele>
        <time>2021-11-18T15:41:52Z</time>
      </trkpt>
      <trkpt lat="44.4752" lon="1.28987">
        <ele>90.1</ele>
        <time>2021-11-18T15:41:56Z</time>
      </trkpt>
      <trkpt lat="44.47515" lon="1.2899">
        <ele>89.9</ele>
        <time>2021-11-18T15:42:00Z</time>
      </trkpt>
      <trkpt lat="44.4751" lon="1.28994">
        <ele>89.6</ele>
        <time>2021-11-18T15:42:05Z</time>
      </trkpt>
      <trkpt lat="44.47506" lon="1.28998">
        <ele>89.4</ele>
        <time>2021-11-18T15:42:09Z</time>
      </trkpt>
      <trkpt lat="44.47502" lon="1.29003">
        <ele>89.3</ele>
        <time>2021-11-18T15:42:14Z</time>
      </trkpt>
      <trkpt lat="44.47498" lon="1.29008">
        <ele>89.4</ele>
        <time>2021-11-18T15:42:18Z</time>
      </trkpt>
      <trkpt lat="44.47493" lon="1.29012">
        <ele>89.5</ele>
        <time>2021-11-18T15:42:22Z</time>
      </trkpt>
      <trkpt lat="44.47489" lon="1.29017">
        <ele>89.8</ele>
        <time>2021-11-18T15:42:27Z</time>
      </trkpt>
      <trkpt lat="44.47484" lon="1.2902">
        <ele>90.1</ele>
        <time>2021-11-18T15:42:31Z</time>
      </trkpt>
      <trkpt lat="44.4748" lon="1.29024">
        <ele>90.5</ele>
        <time>2021-11-18T15:42:35Z</time>
      </trkpt>
      <trkpt lat="44.47476" lon="1.29028">
        <ele>91.1</ele>
        <time>2021-11-18T15:42:39Z</time>
      </trkpt>
      <trkpt lat="44.47471" lon="1.29032">
        <ele>91.7</ele>
        <time>2021-11-18T15:42:43Z</time>
      </trkpt>
      <trkpt lat="44.47467" lon="1.29036">
        <ele>92.2</ele>
        <time>2021-11-18T15:42:47Z</time>
      </trkpt>
      <trkpt lat="44.47464" lon="1.2904">
        <ele>92.9</ele>
        <time>2021-11-18T15:42:52Z</time>
      </trkpt>
      <trkpt lat="44.47459" lon="1.29045">
        <ele>93.3</ele>
        <time>2021-11-18T15:42:57Z</time>
      </trkpt>
      <trkpt lat="44.47455" lon="1.29048">
        <ele>93.3</ele>
        <time>2021-11-18T15:43:02Z</time>
      </trkpt>
      <trkpt lat="44.47452" lon="1.29053">
        <ele>93.4</ele>
        <time>2021-11-18T15:43:07Z</time>
      </trkpt>
      <trkpt lat="44.47447" lon="1.29056">
        <ele>93.6</ele>
        <time>2021-11-18T15:43:12Z</time>
      </trkpt>
      <trkpt lat="44.47442" lon="1.29058">
        <ele>93.2</ele>
        <time>2021-11-18T15:43:17Z</time>
      </trkpt>
      <trkpt lat="44.47438" lon="1.29062">
        <ele>93</ele>
        <time>2021-11-18T15:43:21Z</time>
      </trkpt>
      <trkpt lat="44.47433" lon="1.29065">
        <ele>92.8</ele>
        <time>2021-11-18T15:43:25Z</time>
      </trkpt>
      <trkpt lat="44.47429" lon="1.29069">
        <ele>92.3</ele>
        <time>2021-11-18T15:43:30Z</time>
      </trkpt>
      <trkpt lat="44.47424" lon="1.29073">
        <ele>91.7</ele>
        <time>2021-11-18T15:43:35Z</time>
      </trkpt>
      <trkpt lat="44.4742" lon="1.29076">
        <ele>91.4</ele>
        <time>2021-11-18T15:43:38Z</time>
      </trkpt>
      <trkpt lat="44.47416" lon="1.29081">
        <ele>90.9</ele>
        <time>2021-11-18T15:43:42Z</time>
      </trkpt>
      <trkpt lat="44.47412" lon="1.29086">
        <ele>90.9</ele>
        <time>2021-11-18T15:43:47Z</time>
      </trkpt>
      <trkpt lat="44.47408" lon="1.2909">
        <ele>90.9</ele>
        <time>2021-11-18T15:43:51Z</time>
      </trkpt>
      <trkpt lat="44.47404" lon="1.29094">
        <ele>90.7</ele>
        <time>2021-11-18T15:43:56Z</time>
      </trkpt>
      <trkpt lat="44.47399" lon="1.29095">
        <ele>89.7</ele>
        <time>2021-11-18T15:44:01Z</time>
      </trkpt>
      <trkpt lat="44.47394" lon="1.29097">
        <ele>89.1</ele>
        <time>2021-11-18T15:44:05Z</time>
      </trkpt>
      <trkpt lat="44.4739" lon="1.291">
        <ele>88.4</ele>
        <time>2021-11-18T15:44:09Z</time>
      </trkpt>
      <trkpt lat="44.47386" lon="1.29102">
        <ele>87.4</ele>
        <time>2021-11-18T15:44:14Z</time>
      </trkpt>
      <trkpt lat="44.47381" lon="1.29105">
        <ele>86.6</ele>
        <time>2021-11-18T15:44:18Z</time>
      </trkpt>
      <trkpt lat="44.47377" lon="1.29109">
        <ele>86.2</ele>
        <time>2021-11-18T15:44:21Z</time>
      </trkpt>
      <trkpt lat="44.47373" lon="1.29114">
        <ele>85.7</ele>
        <time>2021-11-18T15:44:25Z</time>
      </trkpt>
      <trkpt lat="44.47369" lon="1.2912">
        <ele>85.6</ele>
        <time>2021-11-18T15:44:29Z</time>
      </trkpt>
      <trkpt lat="44.47364" lon="1.29124">
        <ele>85.9</ele>
        <time>2021-11-18T15:44:34Z</time>
      </trkpt>
      <trkpt lat="44.47359" lon="1.29128">
        <ele>86.3</ele>
        <time>2021-11-18T15:44:38Z</time>
      </trkpt>
      <trkpt lat="44.47355" lon="1.29132">
        <ele>86.8</ele>
        <time>2021-11-18T15:44:42Z</time>
      </trkpt>
      <trkpt lat="44.4735" lon="1.29134">
        <ele>87.1</ele>
        <time>2021-11-18T15:44:47Z</time>
      </trkpt>
      <trkpt lat="44.47345" lon="1.29136">
        <ele>87.3</ele>
        <time>2021-11-18T15:44:50Z</time>
      </trkpt>
      <trkpt lat="44.47341" lon="1.29141">
        <ele>87.6</ele>
        <time>2021-11-18T15:44:54Z</time>
      </trkpt>
      <trkpt lat="44.47338" lon="1.29145">
        <ele>87.5</ele>
        <time>2021-11-18T15:44:58Z</time>
      </trkpt>
      <trkpt lat="44.47334" lon="1.2915">
        <ele>87.4</ele>
        <time>2021-11-18T15:45:02Z</time>
      </trkpt>
      <trkpt lat="44.47331" lon="1.29155">
        <ele>87.3</ele>
        <time>2021-11-18T15:45:05Z</time>
      </trkpt>
      <trkpt lat="44.47328" lon="1.29162">
        <ele>87.5</ele>
        <time>2021-11-18T15:45:09Z</time>
      </trkpt>
      <trkpt lat="44.47324" lon="1.29165">
        <ele>87.5</ele>
        <time>2021-11-18T15:45:15Z</time>
      </trkpt>
      <trkpt lat="44.4732" lon="1.29168">
        <ele>87.3</ele>
        <time>2021-11-18T15:45:19Z</time>
      </trkpt>
      <trkpt lat="44.47315" lon="1.29172">
        <ele>86.9</ele>
        <time>2021-11-18T15:45:23Z</time>
      </trkpt>
      <trkpt lat="44.4731" lon="1.29175">
        <ele>86.7</ele>
        <time>2021-11-18T15:45:27Z</time>
      </trkpt>
      <trkpt lat="44.47305" lon="1.29177">
        <ele>86.7</ele>
        <time>2021-11-18T15:45:31Z</time>
      </trkpt>
      <trkpt lat="44.47301" lon="1.29179">
        <ele>86.8</ele>
        <time>2021-11-18T15:45:36Z</time>
      </trkpt>
      <trkpt lat="44.47296" lon="1.2918">
        <ele>86.2</ele>
        <time>2021-11-18T15:45:42Z</time>
      </trkpt>
      <trkpt lat="44.47291" lon="1.29182">
        <ele>85.3</ele>
        <time>2021-11-18T15:45:47Z</time>
      </trkpt>
      <trkpt lat="44.47287" lon="1.29185">
        <ele>84.5</ele>
        <time>2021-11-18T15:45:51Z</time>
      </trkpt>
      <trkpt lat="44.47282" lon="1.29187">
        <ele>83.6</ele>
        <time>2021-11-18T15:45:55Z</time>
      </trkpt>
      <trkpt lat="44.47277" lon="1.2919">
        <ele>82.8</ele>
        <time>2021-11-18T15:45:59Z</time>
      </trkpt>
      <trkpt lat="44.47272" lon="1.29194">
        <ele>82.1</ele>
        <time>2021-11-18T15:46:04Z</time>
      </trkpt>
      <trkpt lat="44.47268" lon="1.292">
        <ele>81.9</ele>
        <time>2021-11-18T15:46:08Z</time>
      </trkpt>
      <trkpt lat="44.47265" lon="1.29205">
        <ele>82</ele>
        <time>2021-11-18T15:46:11Z</time>
      </trkpt>
      <trkpt lat="44.47261" lon="1.2921">
        <ele>81.8</ele>
        <time>2021-11-18T15:46:15Z</time>
      </trkpt>
      <trkpt lat="44.47257" lon="1.29214">
        <ele>81.5</ele>
        <time>2021-11-18T15:46:21Z</time>
      </trkpt>
      <trkpt lat="44.47253" lon="1.29218">
        <ele>81.2</ele>
        <time>2021-11-18T15:46:27Z</time>
      </trkpt>
      <trkpt lat="44.47249" lon="1.29224">
        <ele>80.9</ele>
        <time>2021-11-18T15:46:31Z</time>
      </trkpt>
      <trkpt lat="44.47244" lon="1.29227">
        <ele>81.1</ele>
        <time>2021-11-18T15:46:35Z</time>
      </trkpt>
      <trkpt lat="44.4724" lon="1.2923">
        <ele>81.6</ele>
        <time>2021-11-18T15:46:38Z</time>
      </trkpt>
      <trkpt lat="44.47236" lon="1.29234">
        <ele>82.2</ele>
        <time>2021-11-18T15:46:42Z</time>
      </trkpt>
      <trkpt lat="44.47232" lon="1.29238">
        <ele>82.5</ele>
        <time>2021-11-18T15:46:46Z</time>
      </trkpt>
      <trkpt lat="44.47228" lon="1.29243">
        <ele>82.9</ele>
        <time>2021-11-18T15:46:51Z</time>
      </trkpt>
      <trkpt lat="44.47224" lon="1.29249">
        <ele>83.6</ele>
        <time>2021-11-18T15:46:55Z</time>
      </trkpt>
      <trkpt lat="44.47221" lon="1.29254">
        <ele>84.3</ele>
        <time>2021-11-18T15:46:59Z</time>
      </trkpt>
      <trkpt lat="44.47217" lon="1.29259">
        <ele>85</ele>
        <time>2021-11-18T15:47:03Z</time>
      </trkpt>
      <trkpt lat="44.47212" lon="1.29262">
        <ele>85.5</ele>
        <time>2021-11-18T15:47:07Z</time>
      </trkpt>
      <trkpt lat="44.47208" lon="1.29265">
        <ele>85.8</ele>
        <time>2021-11-18T15:47:11Z</time>
      </trkpt>
      <trkpt lat="44.47204" lon="1.29269">
        <ele>86.2</ele>
        <time>2021-11-18T15:47:15Z</time>
      </trkpt>
      <trkpt lat="44.47201" lon="1.29274">
        <ele>86.6</ele>
        <time>2021-11-18T15:47:19Z</time>
      </trkpt>
      <trkpt lat="44.47197" lon="1.2928">
        <ele>86.9</ele>
        <time>2021-11-18T15:47:24Z</time>
      </trkpt>
      <trkpt lat="44.47193" lon="1.29285">
        <ele>87.2</ele>
        <time>2021-11-18T15:47:29Z</time>
      </trkpt>
      <trkpt lat="44.47189" lon="1.29288">
        <ele>87.4</ele>
        <time>2021-11-18T15:47:33Z</time>
      </trkpt>
      <trkpt lat="44.47185" lon="1.29292">
        <ele>87.4</ele>
        <time>2021-11-18T15:47:38Z</time>
      </trkpt>
      <trkpt lat="44.47179" lon="1.29295">
        <ele>87.6</ele>
        <time>2021-11-18T15:47:42Z</time>
      </trkpt>
      <trkpt lat="44.47174" lon="1.293">
        <ele>88</ele>
        <time>2021-11-18T15:47:45Z</time>
      </trkpt>
      <trkpt lat="44.47169" lon="1.29303">
        <ele>88.6</ele>
        <time>2021-11-18T15:47:48Z</time>
      </trkpt>
      <trkpt lat="44.47165" lon="1.29307">
        <ele>89.3</ele>
        <time>2021-11-18T15:47:51Z</time>
      </trkpt>
      <trkpt lat="44.47161" lon="1.29312">
        <ele>90.4</ele>
        <time>2021-11-18T15:47:55Z</time>
      </trkpt>
      <trkpt lat="44.47159" lon="1.29317">
        <ele>91.4</ele>
        <time>2021-11-18T15:47:59Z</time>
      </trkpt>
      <trkpt lat="44.47158" lon="1.29324">
        <ele>92.4</ele>
        <time>2021-11-18T15:48:03Z</time>
      </trkpt>
      <trkpt lat="44.47159" lon="1.29331">
        <ele>93.5</ele>
        <time>2021-11-18T15:48:08Z</time>
      </trkpt>
      <trkpt lat="44.47161" lon="1.29338">
        <ele>94.8</ele>
        <time>2021-11-18T15:48:14Z</time>
      </trkpt>
      <trkpt lat="44.47163" lon="1.29345">
        <ele>95.6</ele>
        <time>2021-11-18T15:48:18Z</time>
      </trkpt>
      <trkpt lat="44.47164" lon="1.29353">
        <ele>96.4</ele>
        <time>2021-11-18T15:48:22Z</time>
      </trkpt>
      <trkpt lat="44.47165" lon="1.29361">
        <ele>97.7</ele>
        <time>2021-11-18T15:48:27Z</time>
      </trkpt>
      <trkpt lat="44.47166" lon="1.29367">
        <ele>98.1</ele>
        <time>2021-11-18T15:48:32Z</time>
      </trkpt>
      <trkpt lat="44.47169" lon="1.29373">
        <ele>97.4</ele>
        <time>2021-11-18T15:48:39Z</time>
      </trkpt>
      <trkpt lat="44.4717" lon="1.2938">
        <ele>97</ele>
        <time>2021-11-18T15:48:45Z</time>
      </trkpt>
      <trkpt lat="44.47172" lon="1.29387">
        <ele>96.6</ele>
        <time>2021-11-18T15:48:51Z</time>
      </trkpt>
      <trkpt lat="44.47174" lon="1.29392">
        <ele>96.3</ele>
        <time>2021-11-18T15:48:57Z</time>
      </trkpt>
      <trkpt lat="44.47176" lon="1.29399">
        <ele>96.4</ele>
        <time>2021-11-18T15:49:01Z</time>
      </trkpt>
      <trkpt lat="44.47178" lon="1.29405">
        <ele>96.6</ele>
        <time>2021-11-18T15:49:05Z</time>
      </trkpt>
      <trkpt lat="44.47181" lon="1.29411">
        <ele>96.6</ele>
        <time>2021-11-18T15:49:09Z</time>
      </trkpt>
      <trkpt lat="44.47184" lon="1.29416">
        <ele>96.3</ele>
        <time>2021-11-18T15:49:14Z</time>
      </trkpt>
      <trkpt lat="44.47186" lon="1.29423">
        <ele>95.7</ele>
        <time>2021-11-18T15:49:20Z</time>
      </trkpt>
      <trkpt lat="44.47188" lon="1.29429">
        <ele>95.5</ele>
        <time>2021-11-18T15:49:25Z</time>
      </trkpt>
      <trkpt lat="44.47189" lon="1.29435">
        <ele>95.3</ele>
        <time>2021-11-18T15:49:29Z</time>
      </trkpt>
      <trkpt lat="44.47189" lon="1.29443">
        <ele>95.3</ele>
        <time>2021-11-18T15:49:34Z</time>
      </trkpt>
      <trkpt lat="44.47189" lon="1.29449">
        <ele>95.5</ele>
        <time>2021-11-18T15:49:40Z</time>
      </trkpt>
      <trkpt lat="44.47186" lon="1.29456">
        <ele>95.7</ele>
        <time>2021-11-18T15:49:45Z</time>
      </trkpt>
      <trkpt lat="44.47185" lon="1.29462">
        <ele>95.7</ele>
        <time>2021-11-18T15:49:50Z</time>
      </trkpt>
      <trkpt lat="44.47182" lon="1.29468">
        <ele>95.4</ele>
        <time>2021-11-18T15:49:56Z</time>
      </trkpt>
      <trkpt lat="44.47178" lon="1.29471">
        <ele>95</ele>
        <time>2021-11-18T15:50:01Z</time>
      </trkpt>
      <trkpt lat="44.47174" lon="1.29474">
        <ele>94.7</ele>
        <time>2021-11-18T15:50:05Z</time>
      </trkpt>
      <trkpt lat="44.47168" lon="1.29476">
        <ele>94.2</ele>
        <time>2021-11-18T15:50:12Z</time>
      </trkpt>
      <trkpt lat="44.47164" lon="1.29479">
        <ele>93.5</ele>
        <time>2021-11-18T15:50:17Z</time>
      </trkpt>
      <trkpt lat="44.47159" lon="1.29481">
        <ele>92.8</ele>
        <time>2021-11-18T15:50:22Z</time>
      </trkpt>
      <trkpt lat="44.47154" lon="1.29483">
        <ele>92.4</ele>
        <time>2021-11-18T15:50:27Z</time>
      </trkpt>
      <trkpt lat="44.4715" lon="1.29486">
        <ele>92.2</ele>
        <time>2021-11-18T15:50:30Z</time>
      </trkpt>
      <trkpt lat="44.47146" lon="1.29488">
        <ele>92</ele>
        <time>2021-11-18T15:50:33Z</time>
      </trkpt>
      <trkpt lat="44.47141" lon="1.2949">
        <ele>91.8</ele>
        <time>2021-11-18T15:50:36Z</time>
      </trkpt>
      <trkpt lat="44.47137" lon="1.29493">
        <ele>91.7</ele>
        <time>2021-11-18T15:50:40Z</time>
      </trkpt>
      <trkpt lat="44.47132" lon="1.29497">
        <ele>91.4</ele>
        <time>2021-11-18T15:50:45Z</time>
      </trkpt>
      <trkpt lat="44.47128" lon="1.29501">
        <ele>90.8</ele>
        <time>2021-11-18T15:50:51Z</time>
      </trkpt>
      <trkpt lat="44.47124" lon="1.29505">
        <ele>90.2</ele>
        <time>2021-11-18T15:50:57Z</time>
      </trkpt>
      <trkpt lat="44.4712" lon="1.29508">
        <ele>89.9</ele>
        <time>2021-11-18T15:51:02Z</time>
      </trkpt>
      <trkpt lat="44.47115" lon="1.29512">
        <ele>89.7</ele>
        <time>2021-11-18T15:51:07Z</time>
      </trkpt>
      <trkpt lat="44.47111" lon="1.29516">
        <ele>89.6</ele>
        <time>2021-11-18T15:51:12Z</time>
      </trkpt>
      <trkpt lat="44.47106" lon="1.2952">
        <ele>89.5</ele>
        <time>2021-11-18T15:51:17Z</time>
      </trkpt>
      <trkpt lat="44.47102" lon="1.29524">
        <ele>89.4</ele>
        <time>2021-11-18T15:51:21Z</time>
      </trkpt>
      <trkpt lat="44.47098" lon="1.29527">
        <ele>89.5</ele>
        <time>2021-11-18T15:51:25Z</time>
      </trkpt>
      <trkpt lat="44.47093" lon="1.29531">
        <ele>89.6</ele>
        <time>2021-11-18T15:51:29Z</time>
      </trkpt>
      <trkpt lat="44.47088" lon="1.29535">
        <ele>89.6</ele>
        <time>2021-11-18T15:51:33Z</time>
      </trkpt>
      <trkpt lat="44.47084" lon="1.29538">
        <ele>89.6</ele>
        <time>2021-11-18T15:51:37Z</time>
      </trkpt>
      <trkpt lat="44.4708" lon="1.29541">
        <ele>89.6</ele>
        <time>2021-11-18T15:51:41Z</time>
      </trkpt>
      <trkpt lat="44.47076" lon="1.29545">
        <ele>89.7</ele>
        <time>2021-11-18T15:51:46Z</time>
      </trkpt>
      <trkpt lat="44.47071" lon="1.29548">
        <ele>90</ele>
        <time>2021-11-18T15:51:51Z</time>
      </trkpt>
      <trkpt lat="44.47066" lon="1.2955">
        <ele>90.2</ele>
        <time>2021-11-18T15:51:55Z</time>
      </trkpt>
      <trkpt lat="44.47061" lon="1.29554">
        <ele>90.4</ele>
        <time>2021-11-18T15:51:59Z</time>
      </trkpt>
      <trkpt lat="44.47057" lon="1.29557">
        <ele>90.6</ele>
        <time>2021-11-18T15:52:04Z</time>
      </trkpt>
      <trkpt lat="44.47052" lon="1.29561">
        <ele>90.9</ele>
        <time>2021-11-18T15:52:10Z</time>
      </trkpt>
      <trkpt lat="44.47047" lon="1.29564">
        <ele>91</ele>
        <time>2021-11-18T15:52:15Z</time>
      </trkpt>
      <trkpt lat="44.47042" lon="1.29566">
        <ele>91</ele>
        <time>2021-11-18T15:52:20Z</time>
      </trkpt>
      <trkpt lat="44.47036" lon="1.29568">
        <ele>90.9</ele>
        <time>2021-11-18T15:52:24Z</time>
      </trkpt>
      <trkpt lat="44.47031" lon="1.2957">
        <ele>90.9</ele>
        <time>2021-11-18T15:52:28Z</time>
      </trkpt>
      <trkpt lat="44.47027" lon="1.29573">
        <ele>90.8</ele>
        <time>2021-11-18T15:52:31Z</time>
      </trkpt>
      <trkpt lat="44.47022" lon="1.29575">
        <ele>90.7</ele>
        <time>2021-11-18T15:52:35Z</time>
      </trkpt>
      <trkpt lat="44.47018" lon="1.29574">
        <ele>90.6</ele>
        <time>2021-11-18T15:52:42Z</time>
      </trkpt>
      <trkpt lat="44.47013" lon="1.29574">
        <ele>90</ele>
        <time>2021-11-18T15:52:49Z</time>
      </trkpt>
      <trkpt lat="44.47008" lon="1.29573">
        <ele>89.4</ele>
        <time>2021-11-18T15:52:54Z</time>
      </trkpt>
      <trkpt lat="44.47003" lon="1.29573">
        <ele>88.9</ele>
        <time>2021-11-18T15:52:59Z</time>
      </trkpt>
      <trkpt lat="44.46998" lon="1.29572">
        <ele>88.6</ele>
        <time>2021-11-18T15:53:04Z</time>
      </trkpt>
      <trkpt lat="44.46993" lon="1.29571">
        <ele>88.2</ele>
        <time>2021-11-18T15:53:08Z</time>
      </trkpt>
      <trkpt lat="44.46987" lon="1.29568">
        <ele>88.1</ele>
        <time>2021-11-18T15:53:12Z</time>
      </trkpt>
      <trkpt lat="44.46983" lon="1.29567">
        <ele>88.2</ele>
        <time>2021-11-18T15:53:16Z</time>
      </trkpt>
      <trkpt lat="44.46978" lon="1.29568">
        <ele>88.5</ele>
        <time>2021-11-18T15:53:21Z</time>
      </trkpt>
      <trkpt lat="44.46973" lon="1.29567">
        <ele>88.9</ele>
        <time>2021-11-18T15:53:26Z</time>
      </trkpt>
      <trkpt lat="44.46968" lon="1.29566">
        <ele>89.2</ele>
        <time>2021-11-18T15:53:31Z</time>
      </trkpt>
      <trkpt lat="44.46963" lon="1.29567">
        <ele>89.4</ele>
        <time>2021-11-18T15:53:35Z</time>
      </trkpt>
      <trkpt lat="44.46958" lon="1.29566">
        <ele>89.5</ele>
        <time>2021-11-18T15:53:41Z</time>
      </trkpt>
      <trkpt lat="44.46952" lon="1.29565">
        <ele>89.3</ele>
        <time>2021-11-18T15:53:48Z</time>
      </trkpt>
      <trkpt lat="44.46948" lon="1.29564">
        <ele>89.2</ele>
        <time>2021-11-18T15:53:54Z</time>
      </trkpt>
      <trkpt lat="44.46943" lon="1.29563">
        <ele>89.3</ele>
        <time>2021-11-18T15:53:58Z</time>
      </trkpt>
      <trkpt lat="44.46938" lon="1.29562">
        <ele>89.4</ele>
        <time>2021-11-18T15:54:01Z</time>
      </trkpt>
      <trkpt lat="44.46933" lon="1.29562">
        <ele>89.6</ele>
        <time>2021-11-18T15:54:04Z</time>
      </trkpt>
      <trkpt lat="44.46929" lon="1.29562">
        <ele>89.9</ele>
        <time>2021-11-18T15:54:08Z</time>
      </trkpt>
      <trkpt lat="44.46924" lon="1.29563">
        <ele>90.3</ele>
        <time>2021-11-18T15:54:12Z</time>
      </trkpt>
      <trkpt lat="44.46919" lon="1.29564">
        <ele>91</ele>
        <time>2021-11-18T15:54:18Z</time>
      </trkpt>
      <trkpt lat="44.46914" lon="1.29564">
        <ele>91.2</ele>
        <time>2021-11-18T15:54:23Z</time>
      </trkpt>
      <trkpt lat="44.4691" lon="1.29562">
        <ele>90</ele>
        <time>2021-11-18T15:54:32Z</time>
      </trkpt>
      <trkpt lat="44.46905" lon="1.2956">
        <ele>89.1</ele>
        <time>2021-11-18T15:54:37Z</time>
      </trkpt>
      <trkpt lat="44.46901" lon="1.29558">
        <ele>88.7</ele>
        <time>2021-11-18T15:54:41Z</time>
      </trkpt>
      <trkpt lat="44.46895" lon="1.29557">
        <ele>88.2</ele>
        <time>2021-11-18T15:54:46Z</time>
      </trkpt>
      <trkpt lat="44.4689" lon="1.29557">
        <ele>87.9</ele>
        <time>2021-11-18T15:54:50Z</time>
      </trkpt>
      <trkpt lat="44.46885" lon="1.29558">
        <ele>87.6</ele>
        <time>2021-11-18T15:54:56Z</time>
      </trkpt>
      <trkpt lat="44.46881" lon="1.29558">
        <ele>87.6</ele>
        <time>2021-11-18T15:55:00Z</time>
      </trkpt>
      <trkpt lat="44.46875" lon="1.2956">
        <ele>87.6</ele>
        <time>2021-11-18T15:55:04Z</time>
      </trkpt>
      <trkpt lat="44.4687" lon="1.2956">
        <ele>87.5</ele>
        <time>2021-11-18T15:55:07Z</time>
      </trkpt>
      <trkpt lat="44.46866" lon="1.29559">
        <ele>87.5</ele>
        <time>2021-11-18T15:55:10Z</time>
      </trkpt>
      <trkpt lat="44.4686" lon="1.29559">
        <ele>87.5</ele>
        <time>2021-11-18T15:55:14Z</time>
      </trkpt>
      <trkpt lat="44.46856" lon="1.2956">
        <ele>87.2</ele>
        <time>2021-11-18T15:55:19Z</time>
      </trkpt>
      <trkpt lat="44.4685" lon="1.29561">
        <ele>87.2</ele>
        <time>2021-11-18T15:55:23Z</time>
      </trkpt>
      <trkpt lat="44.46845" lon="1.29562">
        <ele>87.2</ele>
        <time>2021-11-18T15:55:27Z</time>
      </trkpt>
      <trkpt lat="44.4684" lon="1.29561">
        <ele>87.1</ele>
        <time>2021-11-18T15:55:33Z</time>
      </trkpt>
      <trkpt lat="44.46835" lon="1.2956">
        <ele>86.4</ele>
        <time>2021-11-18T15:55:40Z</time>
      </trkpt>
      <trkpt lat="44.4683" lon="1.2956">
        <ele>85.7</ele>
        <time>2021-11-18T15:55:45Z</time>
      </trkpt>
      <trkpt lat="44.46825" lon="1.2956">
        <ele>85.3</ele>
        <time>2021-11-18T15:55:49Z</time>
      </trkpt>
      <trkpt lat="44.46819" lon="1.2956">
        <ele>85.1</ele>
        <time>2021-11-18T15:55:53Z</time>
      </trkpt>
      <trkpt lat="44.46813" lon="1.29561">
        <ele>85.1</ele>
        <time>2021-11-18T15:55:56Z</time>
      </trkpt>
      <trkpt lat="44.46808" lon="1.29562">
        <ele>85.2</ele>
        <time>2021-11-18T15:55:59Z</time>
      </trkpt>
      <trkpt lat="44.46803" lon="1.29561">
        <ele>85.1</ele>
        <time>2021-11-18T15:56:03Z</time>
      </trkpt>
      <trkpt lat="44.46797" lon="1.29561">
        <ele>85.2</ele>
        <time>2021-11-18T15:56:07Z</time>
      </trkpt>
      <trkpt lat="44.46791" lon="1.2956">
        <ele>85.5</ele>
        <time>2021-11-18T15:56:12Z</time>
      </trkpt>
      <trkpt lat="44.46786" lon="1.2956">
        <ele>86.1</ele>
        <time>2021-11-18T15:56:16Z</time>
      </trkpt>
      <trkpt lat="44.46781" lon="1.29559">
        <ele>86.7</ele>
        <time>2021-11-18T15:56:21Z</time>
      </trkpt>
      <trkpt lat="44.46777" lon="1.2956">
        <ele>87.6</ele>
        <time>2021-11-18T15:56:26Z</time>
      </trkpt>
      <trkpt lat="44.46771" lon="1.29561">
        <ele>88.3</ele>
        <time>2021-11-18T15:56:31Z</time>
      </trkpt>
      <trkpt lat="44.46766" lon="1.29561">
        <ele>88.8</ele>
        <time>2021-11-18T15:56:35Z</time>
      </trkpt>
      <trkpt lat="44.46761" lon="1.29562">
        <ele>89.2</ele>
        <time>2021-11-18T15:56:40Z</time>
      </trkpt>
      <trkpt lat="44.46756" lon="1.2956">
        <ele>89.7</ele>
        <time>2021-11-18T15:56:44Z</time>
      </trkpt>
      <trkpt lat="44.46752" lon="1.29558">
        <ele>90.1</ele>
        <time>2021-11-18T15:56:47Z</time>
      </trkpt>
      <trkpt lat="44.46747" lon="1.29555">
        <ele>90.7</ele>
        <time>2021-11-18T15:56:51Z</time>
      </trkpt>
      <trkpt lat="44.46742" lon="1.29555">
        <ele>91.1</ele>
        <time>2021-11-18T15:56:55Z</time>
      </trkpt>
      <trkpt lat="44.46738" lon="1.29555">
        <ele>91.3</ele>
        <time>2021-11-18T15:56:59Z</time>
      </trkpt>
      <trkpt lat="44.46732" lon="1.29556">
        <ele>91.3</ele>
        <time>2021-11-18T15:57:04Z</time>
      </trkpt>
      <trkpt lat="44.46727" lon="1.29557">
        <ele>91.4</ele>
        <time>2021-11-18T15:57:09Z</time>
      </trkpt>
      <trkpt lat="44.46722" lon="1.29557">
        <ele>91.5</ele>
        <time>2021-11-18T15:57:14Z</time>
      </trkpt>
      <trkpt lat="44.46717" lon="1.29557">
        <ele>91.7</ele>
        <time>2021-11-18T15:57:20Z</time>
      </trkpt>
      <trkpt lat="44.46712" lon="1.29556">
        <ele>91.7</ele>
        <time>2021-11-18T15:57:25Z</time>
      </trkpt>
      <trkpt lat="44.46707" lon="1.29555">
        <ele>91.9</ele>
        <time>2021-11-18T15:57:29Z</time>
      </trkpt>
      <trkpt lat="44.46702" lon="1.29554">
        <ele>92</ele>
        <time>2021-11-18T15:57:33Z</time>
      </trkpt>
      <trkpt lat="44.46697" lon="1.29556">
        <ele>91.8</ele>
        <time>2021-11-18T15:57:37Z</time>
      </trkpt>
      <trkpt lat="44.46692" lon="1.29557">
        <ele>91.4</ele>
        <time>2021-11-18T15:57:41Z</time>
      </trkpt>
      <trkpt lat="44.46687" lon="1.29558">
        <ele>91.1</ele>
        <time>2021-11-18T15:57:46Z</time>
      </trkpt>
      <trkpt lat="44.46682" lon="1.29559">
        <ele>90.8</ele>
        <time>2021-11-18T15:57:51Z</time>
      </trkpt>
      <trkpt lat="44.46677" lon="1.29558">
        <ele>90.7</ele>
        <time>2021-11-18T15:57:56Z</time>
      </trkpt>
      <trkpt lat="44.46672" lon="1.29558">
        <ele>90.3</ele>
        <time>2021-11-18T15:58:01Z</time>
      </trkpt>
      <trkpt lat="44.46667" lon="1.29557">
        <ele>90.3</ele>
        <time>2021-11-18T15:58:06Z</time>
      </trkpt>
      <trkpt lat="44.46662" lon="1.29556">
        <ele>90.3</ele>
        <time>2021-11-18T15:58:10Z</time>
      </trkpt>
      <trkpt lat="44.46657" lon="1.29556">
        <ele>90.3</ele>
        <time>2021-11-18T15:58:14Z</time>
      </trkpt>
      <trkpt lat="44.46652" lon="1.29556">
        <ele>90.2</ele>
        <time>2021-11-18T15:58:18Z</time>
      </trkpt>
      <trkpt lat="44.46646" lon="1.29556">
        <ele>90.2</ele>
        <time>2021-11-18T15:58:23Z</time>
      </trkpt>
      <trkpt lat="44.4664" lon="1.29557">
        <ele>90.2</ele>
        <time>2021-11-18T15:58:28Z</time>
      </trkpt>
      <trkpt lat="44.46635" lon="1.29557">
        <ele>90.5</ele>
        <time>2021-11-18T15:58:33Z</time>
      </trkpt>
      <trkpt lat="44.4663" lon="1.29557">
        <ele>90.6</ele>
        <time>2021-11-18T15:58:37Z</time>
      </trkpt>
      <trkpt lat="44.46626" lon="1.29558">
        <ele>90.5</ele>
        <time>2021-11-18T15:58:41Z</time>
      </trkpt>
      <trkpt lat="44.46621" lon="1.29559">
        <ele>90.2</ele>
        <time>2021-11-18T15:58:46Z</time>
      </trkpt>
      <trkpt lat="44.46616" lon="1.29558">
        <ele>89.8</ele>
        <time>2021-11-18T15:58:51Z</time>
      </trkpt>
      <trkpt lat="44.46611" lon="1.29558">
        <ele>89.6</ele>
        <time>2021-11-18T15:58:55Z</time>
      </trkpt>
      <trkpt lat="44.46606" lon="1.29558">
        <ele>89.4</ele>
        <time>2021-11-18T15:58:59Z</time>
      </trkpt>
      <trkpt lat="44.46601" lon="1.29558">
        <ele>88.9</ele>
        <time>2021-11-18T15:59:05Z</time>
      </trkpt>
      <trkpt lat="44.46595" lon="1.29559">
        <ele>88.5</ele>
        <time>2021-11-18T15:59:10Z</time>
      </trkpt>
      <trkpt lat="44.4659" lon="1.2956">
        <ele>88.4</ele>
        <time>2021-11-18T15:59:13Z</time>
      </trkpt>
      <trkpt lat="44.46585" lon="1.2956">
        <ele>88.3</ele>
        <time>2021-11-18T15:59:16Z</time>
      </trkpt>
      <trkpt lat="44.46581" lon="1.2956">
        <ele>88.2</ele>
        <time>2021-11-18T15:59:20Z</time>
      </trkpt>
      <trkpt lat="44.46576" lon="1.29561">
        <ele>88.3</ele>
        <time>2021-11-18T15:59:25Z</time>
      </trkpt>
      <trkpt lat="44.46571" lon="1.29561">
        <ele>88.4</ele>
        <time>2021-11-18T15:59:29Z</time>
      </trkpt>
      <trkpt lat="44.46567" lon="1.2956">
        <ele>88.7</ele>
        <time>2021-11-18T15:59:33Z</time>
      </trkpt>
      <trkpt lat="44.46561" lon="1.2956">
        <ele>88.9</ele>
        <time>2021-11-18T15:59:40Z</time>
      </trkpt>
      <trkpt lat="44.46557" lon="1.29559">
        <ele>89.1</ele>
        <time>2021-11-18T15:59:44Z</time>
      </trkpt>
      <trkpt lat="44.46552" lon="1.29559">
        <ele>89.4</ele>
        <time>2021-11-18T15:59:47Z</time>
      </trkpt>
      <trkpt lat="44.46547" lon="1.29559">
        <ele>89.6</ele>
        <time>2021-11-18T15:59:50Z</time>
      </trkpt>
      <trkpt lat="44.4654" lon="1.29558">
        <ele>90.2</ele>
        <time>2021-11-18T15:59:53Z</time>
      </trkpt>
      <trkpt lat="44.46535" lon="1.29557">
        <ele>91.1</ele>
        <time>2021-11-18T15:59:56Z</time>
      </trkpt>
      <trkpt lat="44.4653" lon="1.29557">
        <ele>92.2</ele>
        <time>2021-11-18T16:00:00Z</time>
      </trkpt>
      <trkpt lat="44.46525" lon="1.29556">
        <ele>93.4</ele>
        <time>2021-11-18T16:00:06Z</time>
      </trkpt>
      <trkpt lat="44.4652" lon="1.29555">
        <ele>93.7</ele>
        <time>2021-11-18T16:00:11Z</time>
      </trkpt>
      <trkpt lat="44.46514" lon="1.29553">
        <ele>93.4</ele>
        <time>2021-11-18T16:00:16Z</time>
      </trkpt>
      <trkpt lat="44.4651" lon="1.29552">
        <ele>92.9</ele>
        <time>2021-11-18T16:00:20Z</time>
      </trkpt>
      <trkpt lat="44.46505" lon="1.29551">
        <ele>92.5</ele>
        <time>2021-11-18T16:00:24Z</time>
      </trkpt>
      <trkpt lat="44.465" lon="1.2955">
        <ele>92</ele>
        <time>2021-11-18T16:00:29Z</time>
      </trkpt>
      <trkpt lat="44.46495" lon="1.29551">
        <ele>91.4</ele>
        <time>2021-11-18T16:00:33Z</time>
      </trkpt>
      <trkpt lat="44.46491" lon="1.29549">
        <ele>90</ele>
        <time>2021-11-18T16:00:38Z</time>
      </trkpt>
      <trkpt lat="44.46487" lon="1.29547">
        <ele>88.2</ele>
        <time>2021-11-18T16:00:43Z</time>
      </trkpt>
      <trkpt lat="44.46482" lon="1.29544">
        <ele>86.1</ele>
        <time>2021-11-18T16:00:50Z</time>
      </trkpt>
      <trkpt lat="44.46477" lon="1.29542">
        <ele>84</ele>
        <time>2021-11-18T16:00:57Z</time>
      </trkpt>
      <trkpt lat="44.46472" lon="1.2954">
        <ele>82.5</ele>
        <time>2021-11-18T16:01:03Z</time>
      </trkpt>
      <trkpt lat="44.46468" lon="1.29538">
        <ele>81.6</ele>
        <time>2021-11-18T16:01:07Z</time>
      </trkpt>
      <trkpt lat="44.46462" lon="1.29537">
        <ele>80.8</ele>
        <time>2021-11-18T16:01:12Z</time>
      </trkpt>
      <trkpt lat="44.46457" lon="1.29537">
        <ele>80.5</ele>
        <time>2021-11-18T16:01:15Z</time>
      </trkpt>
      <trkpt lat="44.46451" lon="1.29535">
        <ele>80.3</ele>
        <time>2021-11-18T16:01:19Z</time>
      </trkpt>
      <trkpt lat="44.46446" lon="1.29534">
        <ele>80.4</ele>
        <time>2021-11-18T16:01:22Z</time>
      </trkpt>
      <trkpt lat="44.46441" lon="1.29533">
        <ele>80.7</ele>
        <time>2021-11-18T16:01:26Z</time>
      </trkpt>
      <trkpt lat="44.46436" lon="1.29532">
        <ele>81.4</ele>
        <time>2021-11-18T16:01:29Z</time>
      </trkpt>
      <trkpt lat="44.4643" lon="1.2953">
        <ele>81.5</ele>
        <time>2021-11-18T16:01:33Z</time>
      </trkpt>
      <trkpt lat="44.46426" lon="1.29528">
        <ele>81.6</ele>
        <time>2021-11-18T16:01:37Z</time>
      </trkpt>
      <trkpt lat="44.46421" lon="1.29528">
        <ele>81.6</ele>
        <time>2021-11-18T16:01:43Z</time>
      </trkpt>
      <trkpt lat="44.46416" lon="1.29527">
        <ele>81.4</ele>
        <time>2021-11-18T16:01:47Z</time>
      </trkpt>
      <trkpt lat="44.46411" lon="1.29523">
        <ele>81.8</ele>
        <time>2021-11-18T16:01:51Z</time>
      </trkpt>
      <trkpt lat="44.46406" lon="1.2952">
        <ele>82.2</ele>
        <time>2021-11-18T16:01:55Z</time>
      </trkpt>
      <trkpt lat="44.46401" lon="1.29519">
        <ele>82.2</ele>
        <time>2021-11-18T16:02:00Z</time>
      </trkpt>
      <trkpt lat="44.46396" lon="1.29518">
        <ele>82.1</ele>
        <time>2021-11-18T16:02:04Z</time>
      </trkpt>
      <trkpt lat="44.46391" lon="1.29516">
        <ele>82</ele>
        <time>2021-11-18T16:02:08Z</time>
      </trkpt>
      <trkpt lat="44.46386" lon="1.29513">
        <ele>81.9</ele>
        <time>2021-11-18T16:02:13Z</time>
      </trkpt>
      <trkpt lat="44.46382" lon="1.29508">
        <ele>82</ele>
        <time>2021-11-18T16:02:17Z</time>
      </trkpt>
      <trkpt lat="44.46377" lon="1.29506">
        <ele>82.1</ele>
        <time>2021-11-18T16:02:21Z</time>
      </trkpt>
      <trkpt lat="44.46375" lon="1.295">
        <ele>82.6</ele>
        <time>2021-11-18T16:02:27Z</time>
      </trkpt>
      <trkpt lat="44.46376" lon="1.29493">
        <ele>84.1</ele>
        <time>2021-11-18T16:02:32Z</time>
      </trkpt>
      <trkpt lat="44.46373" lon="1.29486">
        <ele>84.9</ele>
        <time>2021-11-18T16:02:39Z</time>
      </trkpt>
      <trkpt lat="44.46371" lon="1.2948">
        <ele>85</ele>
        <time>2021-11-18T16:02:46Z</time>
      </trkpt>
      <trkpt lat="44.46366" lon="1.29476">
        <ele>85.1</ele>
        <time>2021-11-18T16:02:51Z</time>
      </trkpt>
      <trkpt lat="44.46362" lon="1.29472">
        <ele>85.3</ele>
        <time>2021-11-18T16:02:55Z</time>
      </trkpt>
      <trkpt lat="44.46358" lon="1.29468">
        <ele>85.4</ele>
        <time>2021-11-18T16:03:00Z</time>
      </trkpt>
      <trkpt lat="44.46354" lon="1.29464">
        <ele>85.5</ele>
        <time>2021-11-18T16:03:05Z</time>
      </trkpt>
      <trkpt lat="44.4635" lon="1.2946">
        <ele>85.6</ele>
        <time>2021-11-18T16:03:10Z</time>
      </trkpt>
      <trkpt lat="44.46346" lon="1.29456">
        <ele>85.8</ele>
        <time>2021-11-18T16:03:15Z</time>
      </trkpt>
      <trkpt lat="44.46341" lon="1.29452">
        <ele>85.8</ele>
        <time>2021-11-18T16:03:19Z</time>
      </trkpt>
      <trkpt lat="44.46337" lon="1.29448">
        <ele>86.3</ele>
        <time>2021-11-18T16:03:23Z</time>
      </trkpt>
      <trkpt lat="44.46334" lon="1.29443">
        <ele>87</ele>
        <time>2021-11-18T16:03:28Z</time>
      </trkpt>
      <trkpt lat="44.4633" lon="1.29438">
        <ele>87.7</ele>
        <time>2021-11-18T16:03:33Z</time>
      </trkpt>
      <trkpt lat="44.46325" lon="1.29434">
        <ele>88.1</ele>
        <time>2021-11-18T16:03:38Z</time>
      </trkpt>
      <trkpt lat="44.46321" lon="1.29431">
        <ele>88</ele>
        <time>2021-11-18T16:03:42Z</time>
      </trkpt>
      <trkpt lat="44.46317" lon="1.29426">
        <ele>87.9</ele>
        <time>2021-11-18T16:03:45Z</time>
      </trkpt>
      <trkpt lat="44.46313" lon="1.29421">
        <ele>87.9</ele>
        <time>2021-11-18T16:03:49Z</time>
      </trkpt>
      <trkpt lat="44.4631" lon="1.29416">
        <ele>88</ele>
        <time>2021-11-18T16:03:52Z</time>
      </trkpt>
      <trkpt lat="44.46305" lon="1.29412">
        <ele>88.3</ele>
        <time>2021-11-18T16:03:57Z</time>
      </trkpt>
      <trkpt lat="44.46301" lon="1.29409">
        <ele>88.5</ele>
        <time>2021-11-18T16:04:01Z</time>
      </trkpt>
      <trkpt lat="44.46298" lon="1.29404">
        <ele>88.5</ele>
        <time>2021-11-18T16:04:05Z</time>
      </trkpt>
      <trkpt lat="44.46295" lon="1.29398">
        <ele>88.4</ele>
        <time>2021-11-18T16:04:09Z</time>
      </trkpt>
      <trkpt lat="44.46293" lon="1.29392">
        <ele>88.2</ele>
        <time>2021-11-18T16:04:14Z</time>
      </trkpt>
      <trkpt lat="44.46289" lon="1.29387">
        <ele>88.1</ele>
        <time>2021-11-18T16:04:20Z</time>
      </trkpt>
      <trkpt lat="44.46285" lon="1.29382">
        <ele>88</ele>
        <time>2021-11-18T16:04:26Z</time>
      </trkpt>
      <trkpt lat="44.46282" lon="1.29377">
        <ele>88</ele>
        <time>2021-11-18T16:04:30Z</time>
      </trkpt>
      <trkpt lat="44.46279" lon="1.29371">
        <ele>88.5</ele>
        <time>2021-11-18T16:04:34Z</time>
      </trkpt>
      <trkpt lat="44.46276" lon="1.29366">
        <ele>88.7</ele>
        <time>2021-11-18T16:04:41Z</time>
      </trkpt>
      <trkpt lat="44.46273" lon="1.29359">
        <ele>89</ele>
        <time>2021-11-18T16:04:46Z</time>
      </trkpt>
      <trkpt lat="44.4627" lon="1.29352">
        <ele>89.4</ele>
        <time>2021-11-18T16:04:52Z</time>
      </trkpt>
      <trkpt lat="44.46267" lon="1.29347">
        <ele>89.8</ele>
        <time>2021-11-18T16:04:55Z</time>
      </trkpt>
      <trkpt lat="44.46263" lon="1.29342">
        <ele>90.3</ele>
        <time>2021-11-18T16:04:59Z</time>
      </trkpt>
      <trkpt lat="44.46261" lon="1.29336">
        <ele>90.3</ele>
        <time>2021-11-18T16:05:04Z</time>
      </trkpt>
      <trkpt lat="44.46259" lon="1.29328">
        <ele>90.3</ele>
        <time>2021-11-18T16:05:09Z</time>
      </trkpt>
      <trkpt lat="44.46257" lon="1.29321">
        <ele>90.7</ele>
        <time>2021-11-18T16:05:12Z</time>
      </trkpt>
      <trkpt lat="44.46255" lon="1.29315">
        <ele>90.8</ele>
        <time>2021-11-18T16:05:16Z</time>
      </trkpt>
      <trkpt lat="44.46253" lon="1.29308">
        <ele>90.9</ele>
        <time>2021-11-18T16:05:20Z</time>
      </trkpt>
      <trkpt lat="44.46251" lon="1.29302">
        <ele>90.9</ele>
        <time>2021-11-18T16:05:23Z</time>
      </trkpt>
      <trkpt lat="44.46249" lon="1.29296">
        <ele>90.8</ele>
        <time>2021-11-18T16:05:27Z</time>
      </trkpt>
      <trkpt lat="44.46246" lon="1.29289">
        <ele>90.9</ele>
        <time>2021-11-18T16:05:31Z</time>
      </trkpt>
      <trkpt lat="44.46244" lon="1.29282">
        <ele>90.9</ele>
        <time>2021-11-18T16:05:35Z</time>
      </trkpt>
      <trkpt lat="44.46242" lon="1.29276">
        <ele>91.3</ele>
        <time>2021-11-18T16:05:39Z</time>
      </trkpt>
      <trkpt lat="44.4624" lon="1.2927">
        <ele>91.4</ele>
        <time>2021-11-18T16:05:43Z</time>
      </trkpt>
      <trkpt lat="44.46239" lon="1.29263">
        <ele>91.6</ele>
        <time>2021-11-18T16:05:46Z</time>
      </trkpt>
      <trkpt lat="44.46237" lon="1.29257">
        <ele>92</ele>
        <time>2021-11-18T16:05:49Z</time>
      </trkpt>
      <trkpt lat="44.46235" lon="1.2925">
        <ele>92.4</ele>
        <time>2021-11-18T16:05:53Z</time>
      </trkpt>
      <trkpt lat="44.46233" lon="1.29243">
        <ele>93.1</ele>
        <time>2021-11-18T16:05:58Z</time>
      </trkpt>
      <trkpt lat="44.46232" lon="1.29236">
        <ele>93.5</ele>
        <time>2021-11-18T16:06:03Z</time>
      </trkpt>
      <trkpt lat="44.46231" lon="1.29229">
        <ele>93.8</ele>
        <time>2021-11-18T16:06:08Z</time>
      </trkpt>
      <trkpt lat="44.46229" lon="1.29224">
        <ele>93.7</ele>
        <time>2021-11-18T16:06:12Z</time>
      </trkpt>
      <trkpt lat="44.46227" lon="1.29217">
        <ele>93.8</ele>
        <time>2021-11-18T16:06:17Z</time>
      </trkpt>
      <trkpt lat="44.46225" lon="1.29211">
        <ele>93.9</ele>
        <time>2021-11-18T16:06:22Z</time>
      </trkpt>
      <trkpt lat="44.46223" lon="1.29204">
        <ele>93.7</ele>
        <time>2021-11-18T16:06:28Z</time>
      </trkpt>
      <trkpt lat="44.46221" lon="1.29198">
        <ele>93.9</ele>
        <time>2021-11-18T16:06:33Z</time>
      </trkpt>
      <trkpt lat="44.4622" lon="1.29191">
        <ele>94.4</ele>
        <time>2021-11-18T16:06:38Z</time>
      </trkpt>
      <trkpt lat="44.46219" lon="1.29183">
        <ele>94.8</ele>
        <time>2021-11-18T16:06:42Z</time>
      </trkpt>
      <trkpt lat="44.46217" lon="1.29177">
        <ele>95.2</ele>
        <time>2021-11-18T16:06:45Z</time>
      </trkpt>
      <trkpt lat="44.46216" lon="1.29169">
        <ele>95.4</ele>
        <time>2021-11-18T16:06:49Z</time>
      </trkpt>
      <trkpt lat="44.46215" lon="1.29162">
        <ele>95.4</ele>
        <time>2021-11-18T16:06:53Z</time>
      </trkpt>
      <trkpt lat="44.46215" lon="1.29156">
        <ele>95.4</ele>
        <time>2021-11-18T16:06:57Z</time>
      </trkpt>
      <trkpt lat="44.46217" lon="1.29149">
        <ele>95.3</ele>
        <time>2021-11-18T16:07:03Z</time>
      </trkpt>
      <trkpt lat="44.46219" lon="1.29143">
        <ele>94.7</ele>
        <time>2021-11-18T16:07:08Z</time>
      </trkpt>
      <trkpt lat="44.4622" lon="1.29136">
        <ele>94</ele>
        <time>2021-11-18T16:07:12Z</time>
      </trkpt>
      <trkpt lat="44.46219" lon="1.29128">
        <ele>93.2</ele>
        <time>2021-11-18T16:07:16Z</time>
      </trkpt>
      <trkpt lat="44.46218" lon="1.29121">
        <ele>92.4</ele>
        <time>2021-11-18T16:07:20Z</time>
      </trkpt>
      <trkpt lat="44.46217" lon="1.29115">
        <ele>91.8</ele>
        <time>2021-11-18T16:07:24Z</time>
      </trkpt>
      <trkpt lat="44.46216" lon="1.29109">
        <ele>91.4</ele>
        <time>2021-11-18T16:07:28Z</time>
      </trkpt>
      <trkpt lat="44.46214" lon="1.29102">
        <ele>91.1</ele>
        <time>2021-11-18T16:07:32Z</time>
      </trkpt>
      <trkpt lat="44.46212" lon="1.29096">
        <ele>90.7</ele>
        <time>2021-11-18T16:07:38Z</time>
      </trkpt>
      <trkpt lat="44.4621" lon="1.29089">
        <ele>90.4</ele>
        <time>2021-11-18T16:07:44Z</time>
      </trkpt>
      <trkpt lat="44.46209" lon="1.29082">
        <ele>90.1</ele>
        <time>2021-11-18T16:07:50Z</time>
      </trkpt>
      <trkpt lat="44.46209" lon="1.29074">
        <ele>89.8</ele>
        <time>2021-11-18T16:07:55Z</time>
      </trkpt>
      <trkpt lat="44.46208" lon="1.29068">
        <ele>89.8</ele>
        <time>2021-11-18T16:07:58Z</time>
      </trkpt>
      <trkpt lat="44.46209" lon="1.29061">
        <ele>90.4</ele>
        <time>2021-11-18T16:08:03Z</time>
      </trkpt>
      <trkpt lat="44.46213" lon="1.29057">
        <ele>90.8</ele>
        <time>2021-11-18T16:08:07Z</time>
      </trkpt>
      <trkpt lat="44.46218" lon="1.29051">
        <ele>91</ele>
        <time>2021-11-18T16:08:11Z</time>
      </trkpt>
      <trkpt lat="44.46221" lon="1.29046">
        <ele>91</ele>
        <time>2021-11-18T16:08:15Z</time>
      </trkpt>
      <trkpt lat="44.46224" lon="1.2904">
        <ele>91</ele>
        <time>2021-11-18T16:08:20Z</time>
      </trkpt>
      <trkpt lat="44.46226" lon="1.29033">
        <ele>91.2</ele>
        <time>2021-11-18T16:08:27Z</time>
      </trkpt>
      <trkpt lat="44.46227" lon="1.29027">
        <ele>91.2</ele>
        <time>2021-11-18T16:08:31Z</time>
      </trkpt>
      <trkpt lat="44.46227" lon="1.29021">
        <ele>91</ele>
        <time>2021-11-18T16:08:35Z</time>
      </trkpt>
      <trkpt lat="44.46228" lon="1.29014">
        <ele>91.1</ele>
        <time>2021-11-18T16:08:40Z</time>
      </trkpt>
      <trkpt lat="44.46228" lon="1.29006">
        <ele>91.6</ele>
        <time>2021-11-18T16:08:44Z</time>
      </trkpt>
      <trkpt lat="44.46228" lon="1.29">
        <ele>91.9</ele>
        <time>2021-11-18T16:08:47Z</time>
      </trkpt>
      <trkpt lat="44.46229" lon="1.28992">
        <ele>92.3</ele>
        <time>2021-11-18T16:08:51Z</time>
      </trkpt>
      <trkpt lat="44.46232" lon="1.28987">
        <ele>92.6</ele>
        <time>2021-11-18T16:08:55Z</time>
      </trkpt>
      <trkpt lat="44.46234" lon="1.28981">
        <ele>92.9</ele>
        <time>2021-11-18T16:09:00Z</time>
      </trkpt>
      <trkpt lat="44.46237" lon="1.28976">
        <ele>93.2</ele>
        <time>2021-11-18T16:09:05Z</time>
      </trkpt>
      <trkpt lat="44.46242" lon="1.28974">
        <ele>93.1</ele>
        <time>2021-11-18T16:09:10Z</time>
      </trkpt>
      <trkpt lat="44.46246" lon="1.28973">
        <ele>92.9</ele>
        <time>2021-11-18T16:09:14Z</time>
      </trkpt>
      <trkpt lat="44.46252" lon="1.28973">
        <ele>92.7</ele>
        <time>2021-11-18T16:09:19Z</time>
      </trkpt>
      <trkpt lat="44.46257" lon="1.28974">
        <ele>92.7</ele>
        <time>2021-11-18T16:09:24Z</time>
      </trkpt>
      <trkpt lat="44.46262" lon="1.28976">
        <ele>93.5</ele>
        <time>2021-11-18T16:09:29Z</time>
      </trkpt>
      <trkpt lat="44.46266" lon="1.28979">
        <ele>94.7</ele>
        <time>2021-11-18T16:09:39Z</time>
      </trkpt>
    </trkseg>
  </trk>
</gpx>